GFSCGP_2pvu_pres_000.txt.gz
Presure
137 132 127 110 100 136 124 132 130 126 159 165 137 149 183 177 176 170 169 161 170 172 170 174 135 196 131 147 143 135 121 131 123 142 118 115 148 135 127 145 141 114 127 162
109 103 133 132 119 111 141 132 130 132 128 154 164 139 128 156 170 175 174 175 174 180 177 153 137 139 135 135 139 134 126 121 126 104 116 122 109 131 144 153 136 99 170 179
121 109 120 121 132 130 106 119 130 118 122 132 131 154 143 142 135 126 124 134 136 141 145 144 142 138 134 119 119 111 108 117 126 147 131 136 116 118 132 129 161 165 173 169
139 121 120 107 112 134 129 113 112 135 129 125 129 104 118 143 141 142 139 138 146 118 122 130 127 119 119 122 126 124 124 122 133 144 159 125 152 121 156 168 174 145 189 160
122 139 123 124 126 116 155 134 115 124 128 122 123 136 139 133 131 139 146 131 135 140 118 121 128 124 117 101 98 134 118 107 138 133 133 135 154 163 86 171 183 110 159 109
135 120 129 138 131 129 114 106 120 131 133 140 128 136 107 98 125 119 113 144 128 117 119 135 122 129 114 124 125 134 135 131 118 137 132 120 139 149 170 169 161 189 192 180
124 118 123 128 96 141 159 131 131 132 121 115 114 123 132 141 139 130 134 122 118 126 118 144 124 112 140 133 126 119 119 136 139 103 124 136 110 124 130 170 118 180 174 112
153 131 125 129 125 105 107 142 133 152 150 108 113 112 120 126 128 144 132 133 139 136 134 128 132 110 129 142 112 157 127 132 136 137 146 132 138 155 194 193 176 185 164 161
139 143 130 124 112 123 100 138 133 136 135 135 105 133 129 124 126 127 133 136 134 115 135 137 139 131 137 141 133 139 118 127 135 104 127 133 138 145 165 131 147 138 150 99
201 141 143 145 133 114 122 127 120 127 129 129 151 142 134 144 150 128 138 145 124 141 155 138 136 142 135 140 149 136 123 141 113 140 101 126 135 133 122 144 149 114 108 168
280 164 144 141 134 138 127 125 114 122 126 131 135 149 128 126 151 158 132 128 128 137 78 110 149 127 129 100 140 122 131 132 140 131 121 123 139 125 129 143 172 138 131 146
126 286 153 156 141 148 137 126 129 126 123 127 132 136 144 134 141 132 142 121 138 138 132 162 159 124 135 140 139 134 141 113 116 112 126 106 131 133 124 109 126 126 144 124
238 128 241 168 151 144 131 136 137 128 125 128 130 136 136 130 131 136 89 154 143 132 169 119 130 149 131 123 124 125 123 104 105 130 112 127 138 131 99 159 124 138 107 163
273 273 130 138 167 148 150 114 144 141 144 140 139 133 137 140 137 141 144 140 140 129 147 109 159 150 144 140 137 133 130 131 127 138 123 136 141 96 126 125 136 157 151 143
269 252 285 245 136 185 90 99 148 140 146 152 153 146 138 150 179 156 138 133 130 147 140 140 135 134 133 142 151 123 126 127 141 122 116 138 103 135 133 132 97 123 182 187
252 121 286 289 278 135 147 157 129 90 153 112 136 151 125 135 173 158 136 145 156 147 152 135 127 139 134 125 153 168 110 92 133 92 150 138 149 143 125 95 132 135 181 166
193 267 271 292 281 140 103 147 166 148 144 147 148 156 132 123 158 167 150 148 151 150 157 151 152 138 155 120 122 128 106 121 124 134 131 135 137 149 92 95 128 85 191 192
246 263 197 282 279 276 147 142 173 144 146 149 141 152 158 155 153 158 143 156 160 159 134 149 132 153 136 132 127 135 113 131 140 149 142 109 136 158 191 174 117 191 141 192
248 253 245 263 255 276 279 275 163 148 96 135 141 145 145 147 145 140 113 144 138 144 157 150 124 135 127 107 112 137 117 113 139 127 109 151 113 195 202 192 195 197 197 201
244 250 256 239 278 186 89 94 287 146 144 142 138 136 143 98 142 144 139 139 137 137 136 129 127 118 136 104 128 124 144 130 129 141 155 132 140 147 205 201 200 191 194 193
186 247 246 248 246 278 152 96 121 257 216 129 133 133 135 143 149 141 130 136 128 124 126 139 116 127 133 137 159 139 166 129 133 130 137 135 137 209 204 203 87 199 158 202
245 251 225 213 230 209 278 227 130 124 92 121 140 119 90 120 128 122 147 144 122 132 131 126 118 155 124 97 148 126 124 134 127 144 109 133 203 203 202 199 197 200 195 190
229 236 243 234 184 276 265 137 274 140 131 127 120 129 142 135 130 126 113 130 113 130 133 138 144 145 111 134 107 140 139 171 119 187 124 194 199 198 195 198 199 193 194 191
226 232 194 239 252 262 254 234 154 135 129 137 107 138 128 134 201 194 151 137 134 87 96 123 131 132 115 147 144 156 190 199 138 123 196 195 193 188 192 191 194 191 187 196
223 222 238 212 205 253 258 248 247 257 275 267 260 241 224 212 150 137 144 184 189 169 165 167 122 144 138 164 192 199 156 125 133 169 195 195 192 191 193 191 159 196 215 172
216 239 236 243 239 219 244 259 246 225 266 271 172 128 210 222 187 205 179 160 174 201 199 200 147 195 160 159 190 143 183 199 197 194 195 198 199 195 203 200 146 214 182 204

GFSCGP_2pvu_pres_006.txt.gz
Presure
130 124 129 114 133 132 135 122 146 137 142 176 169 173 156 161 168 193 185 174 173 166 163 156 150 144 132 140 125 118 118 133 122 110 126 148 149 131 151 157 170 153 197 194
141 126 125 127 119 130 132 131 130 143 141 143 175 143 172 170 161 155 168 158 158 164 154 154 160 123 161 120 115 110 121 122 141 110 113 122 145 135 122 160 165 180 200 192
141 147 122 129 131 133 131 108 116 133 134 142 134 150 135 177 177 172 168 168 173 151 143 142 159 144 128 130 124 125 132 123 135 132 115 125 119 115 136 132 160 101 198 172
137 132 95 129 131 134 119 123 141 144 137 128 130 150 165 159 159 173 172 170 171 172 169 167 151 148 121 114 132 111 139 137 128 141 136 123 89 136 128 135 128 100 145 146
149 139 137 151 130 130 133 144 130 139 143 112 133 136 118 164 163 158 160 164 162 157 158 149 146 142 121 119 139 138 138 142 131 149 139 141 133 124 140 137 126 142 138 137
134 160 143 129 150 131 130 133 130 115 137 133 121 126 132 155 153 137 141 133 118 130 120 130 111 117 118 126 136 134 141 114 120 109 148 139 124 120 122 124 129 107 102 140
264 190 145 139 128 143 129 122 144 127 129 119 140 119 134 141 135 137 149 123 131 122 145 147 124 138 127 128 121 134 135 109 101 124 143 123 134 140 132 126 135 125 103 130
111 246 139 140 143 119 135 144 109 142 126 135 141 123 130 126 139 142 142 121 131 155 114 115 137 119 128 130 133 127 134 135 138 133 134 128 100 97 138 138 125 125 124 132
226 111 219 137 138 149 121 139 104 137 130 135 133 128 122 141 118 125 140 127 149 143 116 143 127 111 119 134 139 139 138 127 140 141 118 109 133 116 136 128 118 138 131 136
182 224 130 116 186 135 97 97 111 120 132 138 138 138 128 121 123 133 123 141 145 146 135 120 127 126 143 144 114 137 104 114 114 123 103 151 122 119 141 114 127 123 135 139
210 202 130 130 127 130 145 141 146 108 129 122 124 127 128 142 140 137 119 143 143 129 128 120 138 132 106 133 129 145 143 107 134 140 132 128 112 125 116 130 133 139 130 142
204 216 194 221 116 173 241 134 75 87 101 130 141 117 133 121 144 145 146 135 140 135 140 148 139 135 123 125 142 146 129 140 131 152 132 131 137 136 127 124 119 127 135 141
197 187 220 192 208 150 189 149 135 107 143 114 127 118 109 128 147 132 94 148 140 150 130 136 149 143 140 114 105 145 115 130 135 142 152 140 138 137 128 139 112 144 137 135
211 191 202 175 219 196 138 131 190 193 107 134 149 101 134 99 117 135 107 133 118 133 139 141 150 139 120 152 138 113 135 142 142 137 142 123 127 126 148 111 120 128 133 133
204 187 206 214 223 228 241 175 126 123 150 155 148 106 102 117 112 119 129 122 131 138 115 120 120 139 151 152 141 123 132 128 146 144 128 113 115 128 118 118 129 135 126 137
208 216 222 215 209 230 185 207 208 128 123 132 149 152 148 148 149 133 131 131 131 136 124 134 132 128 150 143 122 104 135 140 134 140 147 121 106 144 112 140 125 132 107 101
219 226 218 227 205 208 233 258 186 219 140 126 136 147 150 137 120 146 141 138 119 139 131 128 134 130 127 138 116 140 149 140 135 144 126 145 156 124 132 121 106 106 142 160
228 189 219 220 161 185 176 104 217 246 254 154 91 125 144 129 148 148 153 138 124 132 143 140 146 143 135 130 123 143 151 140 124 175 161 133 136 129 127 105 96 124 158 134
235 204 217 192 217 223 185 231 244 185 248 261 241 91 122 141 151 159 157 153 146 141 151 142 136 140 148 154 152 145 134 163 170 172 174 130 118 130 114 90 137 126 130 137
223 215 206 218 206 221 204 230 250 191 246 259 195 112 104 93 136 106 146 143 121 138 129 134 156 153 141 136 152 160 157 148 153 142 113 117 126 121 147 124 162 127 110 135
223 219 207 208 228 200 230 199 251 227 238 216 269 270 257 241 136 134 86 154 158 129 146 152 169 125 145 149 158 162 158 128 161 111 130 129 107 131 121 135 148 128 142 129
252 254 213 234 224 211 239 139 222 185 232 247 260 251 237 263 277 135 134 142 136 142 147 152 155 126 114 123 127 127 126 159 147 135 141 125 129 134 125 141 124 149 121 131
248 246 241 204 241 84 222 119 150 214 247 195 244 249 265 277 267 297 285 99 168 212 134 142 105 126 107 122 134 145 145 125 142 117 136 97 138 134 128 124 149 124 116 135
246 231 233 187 231 154 236 235 235 208 116 244 253 259 218 271 289 281 127 319 302 191 208 211 109 185 118 168 153 150 147 141 117 119 130 140 133 131 129 166 133 108 182 192
236 235 227 232 234 227 234 234 235 232 234 199 246 179 275 236 271 317 338 322 298 292 276 191 169 116 126 168 163 108 177 121 129 111 145 147 145 113 128 189 142 199 157 164
232 234 234 136 225 225 226 231 237 231 240 254 242 232 152 200 201 199 335 311 283 284 141 161 131 130 142 135 141 126 168 134 164 149 141 151 103 191 190 130 143 137 182 193

GFSCGP_2pvu_pres_009.txt.gz
Presure
114 130 134 134 114 122 126 138 127 138 147 142 173 174 204 203 209 197 183 187 192 183 169 169 159 135 137 143 117 126 134 111 144 124 145 133 98 110 130 157 145 178 136 206
126 148 142 130 130 125 123 139 139 121 144 133 151 157 139 172 128 175 177 174 166 161 160 156 148 131 139 126 143 127 136 130 145 129 117 111 123 132 133 132 130 135 137 121
124 136 140 147 128 132 135 125 144 124 128 145 143 152 181 138 174 166 172 166 149 159 157 153 182 137 151 121 115 115 126 136 141 136 142 139 134 110 140 128 134 135 131 95
129 121 130 139 126 134 134 132 138 132 136 124 137 135 155 160 161 172 167 161 162 161 143 139 137 140 128 127 133 127 139 138 127 145 141 119 136 109 131 124 141 130 127 127
219 124 126 127 134 138 132 156 129 134 133 140 137 130 147 138 176 143 175 179 181 177 175 146 172 151 122 118 117 112 127 134 139 137 140 152 119 132 142 136 121 115 117 117
203 208 131 129 130 124 148 121 137 124 124 145 143 136 118 126 153 156 142 173 173 175 170 167 159 132 128 120 128 131 130 131 122 117 134 135 140 119 143 135 134 132 130 131
121 113 142 224 125 131 134 121 124 134 121 109 115 133 134 140 137 128 146 140 125 129 141 125 136 118 119 132 135 128 134 131 112 123 119 141 139 142 141 132 128 125 120 128
197 111 119 139 242 142 116 140 134 107 141 138 124 128 134 112 145 140 154 153 127 140 123 141 131 119 123 117 132 137 126 130 138 139 133 129 114 103 110 98 139 134 122 130
200 218 193 120 154 257 157 147 136 145 131 135 130 114 117 111 122 135 125 126 121 140 121 128 122 128 118 114 128 133 134 142 131 128 122 126 134 107 142 125 117 134 114 120
187 187 210 187 164 164 187 131 157 121 128 139 137 136 138 124 112 131 142 138 147 150 152 126 117 122 129 110 113 139 126 131 144 131 128 135 133 144 113 125 138 129 124 112
183 191 200 212 181 184 120 204 231 136 133 117 151 136 144 137 137 126 124 119 141 137 135 146 149 113 121 132 132 113 147 144 142 112 127 141 119 129 131 159 124 138 137 131
191 181 207 212 192 205 184 210 133 146 89 135 133 155 132 145 152 145 143 141 104 123 145 147 139 124 130 146 140 92 142 123 150 149 142 132 128 144 120 137 120 154 111 128
166 179 182 174 170 182 203 200 120 214 142 132 98 135 109 105 141 111 143 152 137 155 133 141 149 125 142 137 137 125 143 119 132 146 136 147 125 132 133 129 125 104 135 126
184 187 191 168 188 203 176 173 195 135 76 162 123 135 130 146 123 118 146 130 140 157 156 150 143 140 147 150 143 147 116 142 149 131 136 158 134 135 134 120 120 123 109 129
182 189 182 162 191 197 174 202 194 139 110 82 138 137 139 134 150 108 108 131 148 120 106 134 134 138 143 158 136 124 151 139 148 126 160 138 141 129 145 109 118 141 122 127
184 178 182 196 182 185 192 196 203 177 206 126 72 128 144 146 107 116 147 158 122 121 123 126 133 134 124 127 119 145 138 155 127 149 146 135 141 152 137 129 125 177 122 148
195 197 195 176 184 142 196 217 159 173 175 207 184 120 104 110 128 148 152 142 112 118 132 126 126 130 135 119 123 124 145 123 144 131 129 155 155 142 152 140 122 174 130 131
188 201 202 179 196 198 200 95 194 199 197 206 189 109 108 133 175 142 101 108 156 149 146 124 135 134 152 141 111 138 136 124 144 132 135 129 149 133 166 164 167 119 123 121
195 195 202 176 204 209 189 92 138 197 200 203 223 213 228 120 153 144 143 145 145 142 150 148 102 120 141 142 141 133 147 153 122 150 136 143 148 156 135 165 125 129 109 120
208 209 221 223 216 212 180 194 202 101 179 219 206 85 108 83 115 129 138 140 142 140 150 155 157 126 143 138 145 145 140 137 134 150 142 142 150 164 175 142 139 114 188 124
236 239 240 229 221 216 210 197 207 150 218 214 203 210 221 262 203 145 153 135 164 117 134 156 147 129 152 135 135 141 141 152 152 153 141 151 156 144 146 124 135 165 119 148
274 274 254 240 226 217 222 218 189 214 206 186 219 220 95 181 195 159 156 248 257 193 213 136 147 140 145 153 162 147 134 146 149 163 162 173 141 144 127 161 121 175 112 133
273 266 294 264 230 223 94 214 222 215 244 228 212 234 245 243 219 95 250 255 99 251 248 257 126 110 132 140 147 124 107 131 166 137 131 135 140 106 146 144 88 127 139 119
285 272 270 262 240 234 229 221 244 227 215 191 226 242 231 233 235 221 209 220 200 109 124 293 308 126 122 154 128 149 164 167 135 136 113 127 150 152 131 127 153 123 121 124
282 278 273 267 249 152 268 196 207 139 197 242 197 202 211 228 222 222 248 307 287 232 239 278 314 305 330 297 305 214 180 146 148 126 119 127 162 140 165 159 123 128 163 137
296 283 281 262 239 201 264 183 150 217 213 222 212 192 190 220 248 281 301 244 236 201 145 210 205 272 119 310 298 244 124 143 128 181 131 134 168 187 143 144 149 146 133 125

GFSCGP_2pvu_pres_012.txt.gz
Presure
142 123 118 122 134 139 125 144 149 138 140 136 141 177 163 227 249 195 196 197 198 196 206 173 165 178 143 126 125 128 123 148 125 156 127 143 130 130 130 130 94 111 101 104
122 125 131 105 120 136 138 125 129 135 139 139 144 144 173 162 163 199 206 202 195 188 156 170 160 149 139 139 133 117 130 100 136 140 104 149 110 128 125 133 124 133 131 121
133 125 122 123 120 143 136 143 131 126 136 143 124 136 152 142 166 169 179 176 97 165 164 157 150 136 136 120 120 120 124 135 127 139 140 99 112 133 126 138 106 121 114 131
126 131 127 114 126 137 154 142 133 124 131 140 133 133 136 156 154 158 170 167 160 160 160 153 143 152 150 118 131 115 128 144 138 144 131 114 137 126 134 136 114 127 121 129
230 208 137 116 127 133 134 158 133 131 117 135 146 136 133 132 159 170 173 169 161 162 159 146 134 147 134 121 121 134 130 141 139 115 144 146 145 125 135 134 132 117 134 127
184 155 208 213 128 132 144 126 146 134 132 116 126 148 143 141 142 160 189 178 174 171 176 164 136 138 159 127 133 116 134 141 144 141 147 122 135 129 125 116 139 138 107 129
204 193 172 225 204 169 147 131 119 135 133 135 136 136 145 147 126 134 144 165 169 175 176 174 174 173 134 118 124 134 133 135 135 137 133 127 147 136 124 112 140 93 129 110
191 200 189 197 220 194 239 134 136 116 141 146 134 129 127 133 138 144 123 137 156 142 166 167 164 166 146 117 134 130 134 124 141 145 132 121 135 114 130 107 148 140 130 130
183 182 197 184 191 121 183 142 144 137 132 128 151 142 110 140 127 145 133 140 156 126 131 149 134 140 124 119 121 118 131 133 125 91 138 141 124 134 146 149 107 129 118 129
171 170 194 195 207 187 166 127 131 109 142 107 141 151 127 137 130 131 141 139 146 159 130 132 153 126 123 123 126 117 132 145 138 148 150 132 144 131 132 141 112 133 126 127
178 177 181 185 182 193 193 213 187 171 95 143 107 125 146 136 152 133 126 120 150 127 123 124 124 120 142 135 119 118 117 118 148 122 149 122 146 129 122 140 141 132 128 102
152 179 177 170 193 187 193 192 211 187 188 106 140 140 133 145 115 119 124 131 127 138 145 138 130 150 137 118 117 119 141 113 114 106 128 149 151 118 142 141 138 147 132 103
162 168 168 170 176 182 173 183 188 200 184 212 203 140 108 144 138 140 141 116 133 133 135 141 144 139 144 148 143 133 135 150 146 103 105 139 125 134 134 121 145 136 108 122
172 176 169 159 166 170 173 186 178 141 151 176 189 97 100 152 131 150 127 136 132 133 120 120 135 133 132 139 129 102 149 132 155 152 140 150 138 143 141 134 138 131 105 125
167 167 176 164 167 161 166 176 180 182 185 189 98 115 157 225 138 132 132 122 133 136 143 156 143 146 124 151 145 148 127 140 143 126 143 139 170 137 133 133 143 155 132 111
177 174 185 191 171 182 170 176 183 180 183 176 136 82 177 159 134 234 125 129 151 124 157 131 132 157 115 166 124 119 143 152 132 146 140 132 146 123 132 130 120 141 136 141
187 188 186 193 187 182 192 184 186 173 193 177 179 191 109 142 137 167 155 126 153 125 133 139 124 141 135 129 128 133 127 131 131 132 139 154 133 148 130 133 148 137 150 150
186 193 190 195 191 186 136 191 202 186 178 178 188 200 193 187 157 124 144 151 153 139 114 129 116 102 119 127 131 119 131 123 134 125 133 137 131 139 146 129 145 138 128 150
192 188 191 186 190 200 177 184 107 189 170 193 186 154 200 190 163 203 140 144 126 150 121 122 107 109 118 123 129 116 125 129 141 141 120 127 128 154 156 122 147 139 148 147
194 184 195 194 195 196 212 85 153 189 184 202 189 178 213 183 204 209 189 203 145 149 156 151 162 144 108 124 153 128 148 145 143 140 151 132 156 143 146 118 112 132 151 160
213 207 201 199 198 178 200 191 145 89 192 169 191 196 226 186 189 194 206 201 164 224 201 162 150 108 148 142 148 155 123 152 147 146 148 167 128 146 158 164 163 154 156 149
228 222 223 219 211 213 94 133 103 183 183 189 132 210 232 181 82 165 193 196 214 161 185 152 123 137 126 121 137 133 135 126 142 142 151 142 150 154 142 154 161 153 140 158
315 284 242 227 227 222 217 195 206 205 98 197 188 210 232 217 104 98 123 222 221 242 251 270 271 229 271 127 274 135 137 138 143 148 138 153 120 153 145 170 153 134 139 172
328 296 271 269 279 280 261 228 215 217 219 177 95 223 230 214 213 193 177 190 204 206 228 242 107 225 298 185 124 157 184 272 293 317 294 160 136 115 149 164 122 177 150 133
327 303 277 259 266 266 272 258 296 285 236 222 227 226 220 232 224 210 187 251 253 154 250 173 156 199 109 147 147 179 182 181 154 124 228 309 122 306 154 192 200 192 217 170
319 299 278 256 253 258 257 308 246 250 263 250 246 231 220 233 213 189 220 259 209 102 120 175 106 269 178 265 153 121 175 151 136 130 181 158 298 323 270 210 130 121 131 129

GFSCGP_2pvu_pres_015.txt.gz
Presure
130 136 106 126 132 130 136 118 143 139 140 143 146 148 168 176 224 190 223 206 199 188 222 224 226 212 186 145 159 127 129 140 116 156 141 110 124 122 141 135 116 112 120 134
113 135 123 110 126 121 129 136 132 121 126 137 130 135 146 177 169 215 199 196 193 197 237 218 194 185 173 142 132 127 124 141 147 113 115 122 124 119 130 131 125 127 127 135
235 198 133 131 115 103 131 140 133 126 125 132 134 138 134 139 142 168 172 201 196 175 170 172 162 157 144 134 127 130 118 115 152 143 102 121 129 138 121 118 128 130 122 121
186 195 207 198 144 117 127 135 129 132 139 126 132 139 132 134 143 146 182 186 187 172 163 169 164 150 141 126 157 127 140 111 158 144 156 116 132 139 141 115 126 130 122 116
210 205 195 199 198 141 140 124 125 135 150 130 125 134 134 136 139 157 147 170 166 167 167 160 151 148 144 128 126 134 123 146 142 139 137 148 142 133 99 133 131 132 135 140
201 195 207 233 198 204 129 135 128 132 131 146 138 132 141 150 133 126 157 179 167 163 159 155 150 148 141 132 143 124 121 132 101 143 140 136 125 116 101 129 100 112 121 120
188 187 195 191 221 215 221 143 130 120 125 139 159 135 131 141 142 130 138 161 179 176 163 159 149 140 148 143 129 123 135 127 139 147 128 121 141 139 112 122 136 125 130 134
162 168 190 197 203 210 231 148 225 136 117 112 132 152 141 130 132 139 138 139 149 182 184 179 171 140 139 176 134 131 132 137 137 136 133 126 136 137 140 148 128 126 141 118
165 176 168 171 195 197 203 211 216 206 145 106 89 129 131 138 149 132 127 148 149 156 145 182 176 172 177 174 127 134 126 127 134 125 148 127 128 126 136 138 118 114 132 128
180 176 174 184 181 190 200 194 210 227 198 228 121 119 84 141 150 132 138 126 131 138 156 143 149 162 169 136 146 126 129 125 135 138 118 150 129 143 126 133 138 140 145 144
164 170 168 182 178 173 184 120 156 112 74 181 130 143 146 128 141 133 137 133 130 119 151 131 141 140 146 153 130 133 125 125 119 141 129 148 156 150 120 131 146 138 123 142
157 165 166 172 180 173 177 190 184 192 193 214 80 130 146 147 142 117 155 134 140 120 135 147 140 126 153 125 124 126 140 133 117 117 119 109 129 154 121 128 134 135 154 142
161 159 164 174 176 171 166 174 181 176 186 196 154 110 92 104 134 133 142 110 129 139 125 139 120 139 124 126 126 132 118 117 105 121 133 129 102 112 134 119 125 141 134 129
166 173 159 162 180 164 168 165 171 160 180 161 148 116 202 128 136 191 121 140 145 122 123 124 130 121 121 124 123 131 137 131 129 142 141 154 158 151 137 132 158 143 136 149
181 180 171 159 158 160 153 158 165 173 165 169 156 183 197 207 129 202 151 143 134 128 134 140 128 128 134 131 134 134 133 140 149 128 151 162 148 129 135 151 156 121 127 127
183 176 173 150 163 168 149 151 162 165 166 147 166 177 110 195 153 203 148 155 143 137 118 147 132 139 130 130 126 139 143 138 123 82 150 150 150 133 148 126 159 134 129 132
182 190 183 188 181 174 179 93 164 159 156 165 82 78 168 171 195 188 172 169 196 118 149 148 144 142 132 113 139 148 132 156 150 142 153 144 129 129 134 146 131 138 134 139
176 176 171 168 157 176 152 94 164 160 176 155 162 159 137 176 178 162 146 172 154 125 171 145 142 158 143 152 114 118 140 139 149 132 126 124 141 118 119 136 144 117 122 142
186 186 184 182 182 189 86 178 172 153 167 182 178 158 166 172 174 184 126 195 208 161 135 200 148 127 126 143 163 125 140 148 101 125 120 118 135 128 115 115 118 127 135 134
195 194 186 175 170 169 175 152 175 150 178 180 171 172 149 177 164 97 171 192 194 210 144 151 137 118 156 127 136 141 111 121 122 127 130 126 123 126 149 139 137 127 147 146
199 203 200 186 189 193 154 177 185 172 168 178 178 186 191 197 178 195 183 185 201 209 209 168 143 103 196 132 116 117 122 129 122 119 118 135 134 152 150 125 132 132 124 125
206 210 211 203 204 164 203 171 185 186 186 192 178 184 169 197 166 119 169 167 189 205 213 122 180 206 146 143 145 119 116 127 114 128 149 146 148 122 148 131 125 130 149 151
226 224 224 217 216 197 91 185 202 198 185 164 190 169 181 170 175 187 169 170 197 183 211 216 227 215 125 100 198 272 275 264 123 240 151 128 148 228 181 236 227 189 132 152
254 242 231 236 243 235 230 196 191 196 198 169 133 209 188 165 182 169 183 178 195 196 192 211 224 229 211 205 253 141 261 149 245 132 206 135 268 288 194 278 177 197 205 121
475 372 289 238 232 221 219 210 218 217 220 226 187 190 195 193 163 198 190 151 169 186 182 195 216 204 165 174 207 184 196 163 133 126 155 247 151 199 177 171 231 235 303 133
407 410 380 319 297 245 232 224 218 207 92 130 202 204 191 189 182 176 136 149 201 207 217 225 184 136 215 264 272 282 272 186 265 124 227 117 138 184 166 215 123 323 248 122

GFSCGP_2pvu_pres_018.txt.gz
Presure
139 126 110 103 136 129 109 125 137 128 136 146 138 143 144 143 140 229 221 233 232 228 220 215 167 171 209 194 178 146 118 119 142 121 142 132 109 117 129 141 130 138 138 134
224 144 144 129 114 114 150 132 135 131 120 126 142 135 132 138 150 168 201 203 202 204 190 201 218 204 198 143 158 124 129 132 155 115 135 126 128 128 133 109 123 125 125 144
138 167 152 221 132 115 113 123 118 132 130 133 125 132 130 143 137 154 143 182 192 185 229 225 210 196 178 149 157 131 122 143 118 152 113 118 116 133 126 124 116 137 127 124
202 201 198 201 228 149 142 114 119 120 128 128 131 133 131 135 132 137 160 165 194 213 213 191 181 176 153 154 160 134 126 135 115 132 141 133 123 116 129 131 124 137 133 135
176 162 137 193 204 181 215 110 109 104 123 120 135 140 139 132 131 134 135 188 197 200 180 172 170 172 144 149 157 135 117 123 121 155 114 143 134 89 126 123 127 132 111 110
187 189 191 120 122 138 174 219 195 118 122 80 144 137 154 121 136 125 132 133 183 173 170 171 166 153 138 136 120 129 129 132 136 140 120 132 141 128 117 135 137 116 113 136
190 192 198 158 154 187 229 173 206 194 112 124 123 124 135 150 130 134 134 127 155 173 167 164 162 150 145 144 134 120 123 120 142 136 141 140 140 136 132 136 118 137 129 135
187 190 185 180 180 212 124 230 212 203 250 126 129 146 131 130 133 132 135 144 134 157 175 171 158 157 147 142 145 126 125 120 133 138 130 133 132 135 140 132 130 143 131 116
187 190 131 174 191 186 130 196 214 227 129 231 118 85 96 141 142 151 138 136 137 137 151 181 178 182 156 156 145 134 125 127 119 126 76 132 137 129 137 137 128 133 140 129
169 174 184 181 183 175 178 186 206 207 195 237 222 121 120 144 131 143 150 136 133 135 140 151 161 180 187 153 133 134 147 125 126 129 129 137 120 130 129 134 132 113 142 136
168 176 184 177 167 174 167 180 186 196 211 198 147 171 84 143 136 133 135 141 135 128 137 139 136 158 168 161 170 172 171 120 123 119 123 127 119 138 143 140 144 133 123 143
167 175 181 186 173 170 172 177 182 173 184 177 206 188 106 89 131 133 132 138 138 138 127 128 147 140 153 148 150 152 161 126 121 122 117 139 134 142 113 140 150 137 133 130
176 180 179 190 184 180 180 172 167 170 177 188 189 200 184 93 249 137 129 129 140 132 142 131 120 149 138 145 159 143 152 150 144 125 117 109 119 115 100 143 145 138 139 135
174 177 180 193 178 195 173 180 174 167 170 177 183 166 217 184 210 157 142 136 127 128 148 109 133 128 143 136 130 129 152 129 132 129 134 129 109 138 133 118 153 142 128 164
183 162 183 152 179 166 168 164 178 163 165 164 172 181 180 156 185 214 222 209 130 139 140 133 126 118 131 144 133 133 145 133 132 157 144 125 155 126 145 144 155 143 128 158
195 188 184 151 158 159 152 166 171 166 159 156 87 111 185 199 208 175 128 219 223 144 124 141 145 119 125 130 150 144 133 132 126 126 137 139 144 85 163 141 164 165 135 145
191 187 191 167 180 170 164 161 165 167 158 165 158 165 174 182 203 197 173 115 149 211 166 132 154 144 139 135 130 148 146 140 135 150 127 155 155 152 168 164 156 129 132 141
207 203 194 173 162 167 132 121 119 165 166 159 156 161 165 177 185 181 182 188 191 201 127 190 127 163 134 136 144 138 131 129 127 121 119 137 149 131 154 149 136 130 119 124
157 201 171 178 175 165 154 78 83 158 156 152 151 90 97 154 156 172 179 178 180 185 171 210 207 193 147 126 135 136 136 150 134 132 137 151 154 151 142 118 128 126 134 109
226 221 220 216 197 183 180 170 138 148 148 152 145 158 149 147 125 148 161 97 174 178 192 176 151 201 191 118 123 141 166 134 148 156 165 121 171 169 144 124 124 119 119 123
205 225 233 172 177 186 170 180 178 182 162 160 163 157 167 164 161 163 161 161 176 171 180 168 180 187 198 203 214 126 141 132 118 141 141 154 117 128 126 126 118 130 110 138
195 216 229 161 240 196 186 178 180 175 77 92 141 162 167 160 165 168 172 170 162 179 182 170 182 181 177 170 200 228 198 178 106 143 131 129 143 119 120 122 125 127 127 141
202 205 205 197 190 80 100 207 167 168 171 178 176 176 163 165 161 163 168 179 168 180 166 193 195 181 130 185 200 191 148 227 128 125 141 132 127 122 126 147 150 266 212 278
227 221 215 210 189 173 194 212 176 178 178 164 178 161 148 162 151 153 180 173 178 182 161 169 195 181 184 190 182 180 196 211 204 114 121 209 200 139 135 163 126 210 135 269
261 246 228 219 202 199 189 180 179 175 86 127 170 170 170 168 157 167 158 164 175 171 149 191 196 182 176 176 189 179 198 224 204 137 239 193 158 233 129 288 232 249 143 160
409 275 267 141 221 209 200 188 183 178 174 175 174 175 144 175 183 176 176 179 181 160 169 165 170 193 175 184 178 186 200 227 186 178 185 237 239 225 274 134 184 154 176 133

GFSCGP_2pvu_pres_021.txt.gz
Presure
103 142 124 107 137 111 138 140 152 139 137 131 133 144 141 141 138 137 237 237 223 208 188 179 201 194 153 204 176 157 127 118 155 147 144 135 122 106 119 131 129 126 143 90
111 152 157 149 150 130 113 127 123 141 131 132 127 131 143 135 131 134 155 228 227 219 217 201 196 186 178 204 173 140 129 134 147 123 142 131 131 126 118 129 126 124 132 139
128 170 119 177 180 146 148 140 113 134 133 135 122 130 131 131 139 138 134 144 205 200 198 199 181 184 207 181 153 141 129 121 123 142 122 131 118 112 100 126 124 138 129 105
176 116 140 144 221 177 197 201 113 127 115 125 145 133 126 131 126 139 136 140 198 195 190 229 226 212 193 171 159 168 125 130 142 122 120 128 120 127 94 135 136 124 143 137
191 218 206 143 135 127 211 220 137 115 124 121 138 134 129 124 132 124 132 136 159 219 227 227 206 192 181 144 123 143 126 112 147 112 144 124 133 108 134 128 128 142 127 135
190 210 201 201 210 206 140 194 142 170 195 106 139 132 130 133 127 128 126 150 136 192 195 175 186 189 186 148 158 132 130 134 101 113 153 148 131 138 126 123 132 142 114 122
196 203 203 202 159 160 202 200 148 205 211 84 96 125 126 126 145 145 128 129 134 145 187 178 171 180 173 145 148 128 126 128 123 132 143 143 145 138 121 133 140 131 122 135
198 192 195 197 194 187 198 195 192 122 151 108 155 183 134 126 127 138 150 133 133 133 160 173 171 163 159 144 143 142 120 127 126 124 114 131 140 141 137 133 131 135 135 122
206 200 201 191 198 194 209 186 195 138 202 205 136 82 114 117 127 132 137 146 136 153 141 169 166 164 160 147 138 137 113 120 128 121 130 140 129 131 135 135 131 131 122 121
200 197 196 195 124 194 176 192 191 181 215 190 229 163 168 106 129 137 130 131 145 135 130 145 175 177 165 154 143 141 154 125 127 123 136 127 131 133 112 128 139 111 124 128
204 194 197 197 193 171 174 169 182 185 194 208 220 251 203 117 115 132 136 141 140 147 135 135 141 153 167 171 183 181 157 139 127 127 128 126 133 128 97 133 145 143 127 126
202 199 195 197 197 195 184 178 172 175 191 208 204 232 231 198 156 136 132 137 132 125 132 134 138 144 160 160 171 180 172 159 142 129 131 119 130 128 129 125 136 145 152 149
201 200 194 203 196 186 98 154 95 111 176 190 199 191 209 219 216 192 132 109 130 140 141 135 133 133 142 146 166 167 170 173 170 171 126 123 126 120 130 136 130 126 154 145
210 190 194 198 195 173 183 174 165 174 169 173 181 209 190 199 208 245 166 157 128 151 136 141 135 131 129 135 149 162 146 166 166 162 164 125 129 117 134 108 100 144 133 120
214 190 196 197 196 177 182 180 161 165 166 159 176 179 211 199 187 203 245 196 167 108 137 140 141 134 145 135 133 140 158 153 160 159 150 158 128 120 129 102 109 118 148 157
223 206 205 198 198 172 177 184 174 162 166 79 93 178 188 188 209 188 187 195 237 201 166 140 125 134 137 150 147 148 138 146 129 132 130 129 132 147 157 150 154 151 140 159
224 218 202 211 198 192 180 177 182 173 167 159 153 169 174 183 185 196 201 186 196 219 207 179 158 121 122 130 156 146 142 128 148 144 140 131 124 138 128 130 131 142 139 144
219 227 206 207 205 200 176 181 187 185 174 170 165 86 84 179 173 182 176 200 198 211 164 166 217 125 137 138 130 138 125 127 132 131 136 148 143 141 148 127 139 136 162 154
234 234 215 217 220 184 160 180 186 188 161 172 162 161 169 174 179 162 173 183 194 200 198 110 207 211 200 217 205 137 142 148 128 121 133 133 132 117 111 128 107 134 155 150
248 235 236 210 212 222 195 186 190 131 159 158 163 163 165 166 170 161 164 166 170 173 173 185 185 125 200 209 214 140 195 138 226 141 179 142 128 140 147 123 154 154 139 148
197 249 240 223 209 80 185 176 176 151 150 159 158 161 163 162 110 97 91 109 99 147 166 164 181 173 166 156 145 125 192 118 182 212 151 139 139 130 133 178 182 146 159 158
202 225 255 244 218 227 206 187 161 153 151 152 154 158 150 108 167 167 169 166 162 167 153 156 169 170 170 177 170 182 183 187 167 126 124 128 220 133 135 177 170 209 122 141
198 194 276 256 247 214 216 190 146 114 87 139 155 155 139 151 149 158 159 155 136 163 163 160 163 163 166 159 168 173 180 184 147 165 82 137 113 215 179 134 136 168 230 154
211 203 250 248 172 166 211 223 177 168 161 172 161 159 165 158 153 153 158 156 154 161 111 167 171 157 167 177 174 179 176 157 189 193 132 189 201 191 185 161 126 226 106 146
219 246 211 200 185 154 125 184 165 174 175 167 165 160 157 155 158 164 163 156 160 166 164 172 174 166 162 171 166 172 172 175 205 182 146 190 187 136 163 218 186 177 185 130
231 218 219 223 201 236 235 230 217 197 82 124 180 175 168 161 161 160 157 160 165 164 166 175 175 176 170 163 162 177 179 187 176 189 190 153 194 118 172 153 149 192 242 202

GFSCGP_2pvu_pres_024.txt.gz
Presure
143 111 141 103 121 110 123 145 146 110 117 123 131 137 141 140 146 141 132 155 226 210 212 196 178 181 158 169 185 149 131 117 142 146 133 125 130 113 143 139 121 152 138 132
149 166 181 197 122 138 128 108 124 137 136 131 122 136 134 140 144 132 139 149 155 238 215 203 176 183 160 183 176 149 147 143 144 143 142 125 129 124 117 129 122 115 137 135
214 217 209 173 142 214 192 169 105 147 116 119 131 151 131 133 138 139 141 137 153 231 197 192 210 189 172 201 168 154 145 131 153 128 145 134 101 121 120 133 133 127 132 125
160 120 114 108 204 147 107 170 150 122 112 131 143 139 117 129 134 133 136 134 139 191 211 221 208 180 163 198 175 163 153 137 130 133 120 116 106 99 132 124 136 112 144 127
199 200 195 202 116 129 131 115 173 137 157 123 128 146 151 118 129 127 131 127 133 140 196 202 193 181 181 194 176 165 156 117 143 146 131 124 137 116 108 131 133 133 140 105
189 190 185 190 132 132 158 130 221 152 185 170 183 148 132 138 123 134 126 129 133 138 182 239 244 208 205 189 182 151 144 123 127 143 137 135 140 131 130 130 141 122 143 136
200 195 187 186 205 194 216 208 219 139 141 144 154 205 121 148 133 130 133 128 132 139 137 205 166 211 194 186 157 165 162 148 125 125 149 134 134 140 124 142 138 140 137 133
191 147 190 182 190 199 217 214 200 207 209 141 90 99 202 125 130 133 133 127 130 131 132 166 197 194 189 181 146 164 149 149 132 140 141 143 157 137 139 139 140 138 130 132
187 184 189 93 183 215 217 185 204 195 90 104 93 156 160 116 130 132 132 138 151 133 132 146 165 177 184 182 151 154 153 131 129 131 132 102 145 145 140 133 133 133 139 131
161 179 184 205 194 174 97 152 166 192 192 201 156 207 187 132 175 116 132 134 140 137 153 140 129 162 172 174 159 145 147 135 131 136 125 124 133 133 144 138 138 126 129 132
199 192 199 207 144 196 185 190 179 180 193 183 155 134 135 98 126 106 120 132 138 136 133 132 141 143 168 163 162 149 147 143 135 127 122 118 125 140 146 148 140 145 140 137
198 198 203 188 211 196 205 193 182 183 190 198 205 215 88 93 157 130 179 125 127 133 128 137 134 145 134 177 168 162 153 144 142 144 132 130 124 131 125 136 133 121 124 135
182 200 196 190 220 216 208 191 184 174 187 192 186 217 207 201 215 194 137 126 120 139 133 133 134 135 144 145 160 176 167 159 150 146 141 146 133 133 125 127 127 133 130 107
212 200 196 192 203 197 202 195 180 168 185 185 191 187 209 212 227 163 193 144 128 127 136 137 142 126 133 145 139 160 179 179 176 180 183 153 162 136 127 118 114 115 113 129
226 215 201 206 202 215 205 202 184 167 170 72 178 191 213 205 211 223 199 192 178 108 108 136 121 142 138 132 134 131 132 146 177 175 174 174 163 164 172 128 130 113 124 99
209 228 210 195 209 201 205 201 186 168 166 169 132 185 184 211 194 203 221 220 188 192 163 125 134 116 138 149 138 137 133 134 144 161 136 174 173 172 164 166 155 118 127 146
211 226 222 203 216 202 215 199 187 170 164 166 143 182 184 192 198 205 162 117 245 211 193 186 171 118 148 139 142 137 132 133 126 135 141 149 126 161 160 127 129 121 117 107
220 230 225 208 214 225 204 202 190 172 166 166 173 132 180 186 179 193 191 202 205 206 246 218 188 181 170 141 136 141 145 134 147 138 132 126 140 140 125 127 112 120 135 140
245 228 233 221 215 220 207 209 192 170 167 157 169 169 173 172 171 172 177 184 201 208 194 211 241 221 188 154 168 141 140 139 133 139 142 132 144 132 155 148 144 127 130 144
255 231 231 231 217 219 209 202 199 169 167 161 162 169 170 169 169 176 180 179 180 181 190 197 210 226 232 233 226 205 132 122 131 141 131 132 132 117 127 132 132 130 127 139
299 215 232 232 223 213 217 205 206 175 168 172 161 174 169 171 111 182 175 173 171 180 178 180 188 191 195 219 201 221 192 216 212 156 173 195 184 145 162 146 143 141 142 126
199 294 235 239 229 218 232 203 107 190 170 177 167 170 162 169 163 179 185 169 169 169 172 175 176 178 179 180 180 182 142 149 151 186 188 191 192 188 130 166 203 178 141 139
229 263 246 234 232 225 217 230 187 209 171 168 172 162 169 169 174 151 181 183 166 162 167 168 168 168 171 172 171 171 170 167 165 126 125 182 178 138 190 134 90 129 143 179
221 204 250 244 229 228 227 224 202 195 82 176 166 171 161 173 175 163 87 98 182 169 164 162 163 162 162 162 167 171 170 163 165 175 161 180 134 177 187 175 186 143 137 132
214 211 193 169 244 244 231 222 229 210 211 177 180 174 135 167 162 161 169 167 173 136 164 167 167 166 165 165 166 167 172 173 176 181 180 181 182 185 184 185 184 190 198 136
283 201 184 235 209 201 258 241 231 211 217 179 181 180 169 172 162 166 165 162 161 155 170 169 169 164 167 163 164 168 164 168 172 174 175 177 174 163 185 173 185 165 145 152

GFSCGP_2pvu_pres_027.txt.gz
Presure
148 124 98 139 143 104 78 99 107 146 127 110 144 140 141 142 143 146 143 149 149 162 224 226 196 189 169 153 179 162 119 141 151 140 109 117 123 135 132 130 150 144 131 140
139 147 183 150 110 166 118 147 127 130 140 139 122 124 132 139 145 145 139 144 143 151 225 207 190 191 193 181 179 164 133 142 145 150 130 125 116 129 134 111 133 132 125 133
137 138 141 164 198 202 203 160 173 125 123 135 143 135 123 133 141 146 137 136 143 151 176 206 198 176 191 169 179 169 148 132 146 146 144 120 129 117 135 130 116 127 122 118
109 139 150 134 138 124 141 151 178 151 110 102 148 144 138 131 137 140 139 139 138 143 152 204 188 168 194 171 182 172 156 124 120 141 118 140 136 126 128 122 135 117 125 132
115 125 197 121 141 130 209 197 199 154 208 208 143 121 109 142 127 139 136 138 134 134 146 193 234 222 191 167 119 177 162 155 122 150 139 142 125 110 110 132 133 129 137 104
186 165 180 158 173 128 121 172 205 135 202 209 192 107 125 174 134 126 137 131 134 132 132 150 200 207 202 176 177 180 168 158 134 143 115 134 127 114 114 139 128 144 132 142
178 188 191 141 186 201 195 159 139 155 128 141 155 132 189 130 137 136 131 132 133 135 132 140 183 197 211 176 199 179 172 159 131 128 142 127 142 131 148 119 131 142 138 141
183 192 186 172 208 199 198 193 195 195 132 141 204 169 127 131 127 128 134 127 131 129 134 142 142 174 207 188 197 175 175 166 149 140 125 124 123 139 140 141 134 135 134 121
199 187 182 194 196 211 200 181 187 200 220 207 193 203 202 147 158 198 135 138 129 134 130 132 137 145 232 205 192 176 169 156 148 134 134 82 130 137 147 137 143 140 150 145
195 202 196 199 195 194 193 147 182 188 199 201 175 119 99 129 142 118 114 136 141 132 128 135 132 137 158 193 195 190 172 153 175 141 156 148 130 116 144 140 146 145 141 132
172 192 196 189 190 114 183 193 174 191 191 186 202 163 175 106 112 155 145 125 131 137 136 144 133 140 141 161 179 182 153 143 165 169 160 131 148 116 125 159 138 132 120 135
206 197 166 184 188 195 183 186 174 197 194 200 207 132 199 197 213 209 197 151 158 130 132 137 139 134 138 153 164 163 178 152 152 163 134 119 132 111 122 126 134 134 142 138
170 196 199 196 193 195 190 178 181 165 191 201 207 204 194 206 252 194 199 167 145 115 133 133 139 137 135 138 157 170 167 163 146 150 142 139 134 131 131 128 130 120 128 130
208 194 188 196 65 171 170 180 206 176 188 187 193 198 194 195 202 203 93 134 167 132 148 125 127 139 135 138 136 137 171 166 162 152 145 138 140 144 129 134 125 119 113 112
218 214 197 185 186 186 196 109 204 172 180 178 187 195 196 198 214 89 179 129 116 118 138 171 126 122 133 134 141 143 143 143 178 171 163 157 148 156 177 149 158 169 116 115
209 215 213 207 199 197 203 205 191 198 183 182 183 190 195 197 195 223 87 208 204 195 183 176 138 119 136 135 139 140 135 136 154 178 179 181 181 182 184 181 145 139 133 171
214 228 220 214 211 203 198 198 185 199 181 176 176 185 196 197 194 190 216 191 210 207 194 181 155 161 123 136 135 139 140 137 134 134 135 145 142 145 162 181 178 177 167 159
220 223 217 217 76 202 189 195 183 208 185 181 176 181 193 199 190 190 184 211 194 249 201 190 181 176 174 161 120 133 119 143 140 138 139 129 128 137 148 130 149 151 146 152
232 217 218 221 221 150 128 205 192 205 189 185 178 177 188 195 190 181 190 182 208 208 224 262 179 134 175 172 164 133 131 123 132 140 143 134 137 134 134 137 150 142 138 135
224 231 220 202 231 229 95 215 205 197 190 186 179 177 180 188 184 179 179 184 200 201 197 201 212 213 185 149 179 172 127 167 140 124 138 139 136 134 148 149 136 132 134 151
219 235 228 221 205 236 223 226 203 196 194 188 185 149 90 187 109 181 178 170 183 201 199 192 201 166 167 203 247 250 204 161 129 184 178 161 162 138 139 135 136 145 139 143
219 220 236 226 221 205 206 226 201 204 204 194 188 180 176 172 171 184 182 177 176 179 188 190 194 202 207 203 203 202 197 217 255 246 189 194 204 126 149 124 125 133 134 174
217 220 223 237 228 214 213 206 171 207 211 195 189 184 174 179 172 185 180 172 174 82 175 180 176 187 188 192 202 198 198 200 198 196 196 181 184 192 192 193 192 142 137 183
244 209 225 230 108 240 228 221 172 197 206 201 189 186 178 174 171 176 180 180 170 165 168 173 178 179 177 187 185 184 181 181 181 184 188 188 187 186 187 175 189 183 182 190
256 194 229 225 227 233 145 240 241 210 211 203 191 186 179 176 172 175 172 90 179 168 176 174 173 173 176 173 177 179 179 180 181 180 179 176 173 172 172 159 175 178 183 167
284 255 205 231 220 227 274 254 243 228 129 208 195 187 179 180 177 169 174 172 171 118 170 169 165 174 172 173 173 172 173 174 174 174 170 168 169 172 177 174 175 179 176 179

GFSCGP_2pvu_pres_030.txt.gz
Presure
116 133 130 134 140 114 141 124 118 132 148 127 147 154 141 142 265 159 147 145 143 156 159 234 223 195 166 166 173 169 127 173 161 126 155 125 124 131 120 138 148 131 123 122
138 134 142 156 151 124 162 132 110 139 111 150 154 122 135 134 137 140 141 141 147 142 161 199 221 175 181 168 187 169 121 151 169 156 131 127 123 129 138 119 130 125 129 122
142 147 151 116 144 145 141 110 147 139 139 115 156 142 110 137 137 136 138 135 136 140 151 164 218 187 188 177 158 167 157 127 156 154 134 119 132 125 133 125 127 137 127 129
132 145 138 137 135 143 142 142 197 196 183 139 116 155 158 125 119 141 141 143 135 136 143 156 218 196 172 188 192 179 167 132 129 149 141 126 132 132 114 123 129 119 111 121
148 150 160 103 150 140 134 135 137 141 141 113 180 164 113 158 138 133 146 135 137 134 141 141 160 193 179 168 170 97 174 157 127 151 150 138 119 134 133 124 131 128 128 122
130 106 129 141 136 126 142 145 172 140 145 146 151 150 195 130 117 141 129 141 138 137 141 139 146 218 189 177 186 163 171 145 138 120 150 148 139 137 125 125 126 121 145 138
169 175 129 142 123 138 123 124 125 163 195 162 195 221 105 149 131 135 143 125 135 137 137 135 138 151 233 209 200 190 180 169 157 126 157 114 138 120 119 126 134 132 143 134
195 190 213 118 168 188 156 134 130 131 166 168 205 121 203 137 178 115 128 135 127 134 134 133 134 141 231 191 174 191 164 169 158 158 153 128 143 143 143 148 147 136 126 131
207 166 206 195 197 204 201 173 174 190 194 202 112 171 95 195 141 148 212 139 138 133 134 134 135 136 143 200 191 185 185 191 168 156 126 131 112 123 133 141 136 135 134 133
193 193 194 201 167 177 169 145 199 192 186 193 160 148 200 90 158 148 204 181 138 140 134 133 133 138 138 147 191 195 169 196 166 172 147 138 145 137 129 138 143 138 147 139
202 202 197 197 194 182 182 186 182 181 193 186 187 188 204 166 181 114 206 170 127 137 143 134 135 134 134 140 157 200 191 185 170 176 150 135 126 147 109 121 152 139 155 138
212 204 205 210 193 195 192 183 182 197 190 185 189 189 188 201 214 201 214 104 151 119 119 138 137 132 134 139 145 197 191 190 181 170 152 167 132 147 154 140 140 127 153 138
205 97 213 219 216 202 185 202 190 192 187 187 180 197 202 209 103 227 209 166 142 148 125 127 136 140 149 129 145 167 175 184 176 169 151 159 160 146 133 127 135 140 128 131
88 195 83 194 115 195 181 195 188 185 175 183 190 197 186 212 201 199 122 124 209 207 137 121 125 130 136 140 143 139 152 169 173 160 152 152 158 134 129 133 130 112 128 125
238 221 202 118 182 114 175 183 177 87 174 172 182 191 191 186 206 175 96 96 173 140 200 162 133 123 139 130 148 149 144 139 171 173 173 163 151 155 142 138 138 140 135 134
127 233 116 210 189 192 197 190 177 64 183 177 176 185 192 192 202 202 199 203 207 219 203 198 152 152 126 185 139 125 134 142 146 147 180 173 166 160 151 145 143 144 146 149
224 202 236 216 202 185 196 203 93 179 184 183 175 176 186 200 194 200 198 199 200 144 219 200 194 184 147 178 157 127 126 133 135 143 143 144 161 170 173 175 177 180 153 181
229 220 192 219 214 207 190 178 199 186 171 164 168 176 192 204 196 200 185 199 198 250 207 113 129 161 117 130 170 176 124 130 134 142 142 140 139 143 142 114 143 146 147 153
188 233 103 201 219 212 105 189 177 191 179 166 172 189 202 198 196 194 199 208 191 220 201 197 189 129 127 170 173 179 135 146 123 121 139 138 136 135 136 134 131 136 143 147
237 86 211 237 195 223 206 200 138 163 177 178 178 190 192 196 192 189 203 194 201 188 215 225 189 200 188 184 183 174 173 175 128 129 126 130 135 140 146 139 136 142 142 141
221 228 215 213 217 205 222 211 208 200 182 183 188 197 201 201 197 183 127 185 190 201 190 209 219 203 278 214 186 183 147 126 156 177 161 134 133 131 133 134 143 144 141 140
200 215 229 223 202 204 197 161 213 215 205 190 189 187 190 194 193 190 184 184 182 185 194 190 201 205 207 219 247 190 185 183 186 181 161 157 134 135 140 131 129 141 133 134
212 204 213 238 225 221 245 209 222 217 214 199 192 186 188 190 192 186 188 204 180 179 186 189 190 198 200 200 206 215 219 193 189 188 188 187 183 182 178 119 133 143 231 221
227 229 198 218 242 239 234 229 222 224 217 201 188 188 180 186 187 188 186 191 198 171 174 181 185 183 194 198 199 197 207 211 213 209 217 223 223 219 216 214 210 203 195 185
223 219 211 196 208 246 245 234 225 227 223 207 193 191 85 178 187 186 186 192 189 184 172 172 150 179 178 179 182 190 204 210 205 201 203 203 198 201 196 199 139 189 187 189
263 217 221 197 211 210 253 255 233 208 232 219 203 191 180 179 188 185 187 187 187 182 183 178 177 177 174 174 177 175 182 180 183 189 201 199 196 194 190 188 185 187 144 181

GFSCGP_2pvu_pres_033.txt.gz
Presure
132 136 140 135 135 125 115 135 125 152 146 149 125 154 133 132 136 154 132 155 144 146 146 162 242 220 183 173 146 178 135 188 204 149 111 133 135 117 132 144 133 124 128 146
123 131 137 132 132 132 123 138 107 108 136 127 118 140 126 139 133 150 152 139 147 137 146 156 203 203 183 172 152 181 123 177 165 149 142 138 122 118 125 141 128 128 126 124
91 84 137 137 119 134 140 145 127 122 129 145 123 150 164 122 133 220 141 144 157 136 137 146 157 202 183 169 173 143 153 139 170 103 130 125 137 131 119 133 134 136 128 165
107 149 143 122 133 142 101 109 113 116 101 144 128 114 145 123 138 132 134 135 141 117 138 142 148 179 188 181 176 144 177 123 165 145 109 139 132 124 137 128 114 139 117 126
103 153 154 156 150 140 137 140 139 145 123 128 154 138 109 143 135 155 127 134 139 150 141 131 140 153 194 182 185 156 153 166 125 92 148 126 118 128 128 121 125 112 128 130
168 92 167 152 131 148 135 146 144 140 142 141 119 115 194 156 144 131 150 119 134 137 148 139 143 142 163 193 182 197 152 176 114 146 118 144 126 131 132 124 134 131 133 126
183 137 137 165 111 149 133 145 140 146 149 96 149 152 125 104 147 193 116 126 118 142 138 143 139 141 144 198 189 176 193 173 172 125 127 148 149 139 124 115 125 131 136 147
118 194 186 179 182 140 167 151 110 157 150 143 143 154 150 154 150 188 118 132 134 123 140 134 134 135 142 153 199 189 199 153 171 163 126 154 125 145 139 127 130 131 134 135
208 176 133 135 198 157 193 90 120 139 141 138 133 95 132 136 215 114 129 123 121 184 127 136 135 136 139 141 159 196 191 173 171 166 150 122 163 127 137 130 139 141 131 134
202 200 207 196 187 187 190 118 185 117 135 125 115 174 141 149 146 204 209 211 129 121 148 133 138 139 138 138 142 161 168 173 185 178 163 125 162 137 120 140 135 135 136 139
216 224 204 220 223 197 188 193 186 175 215 202 196 169 130 150 184 145 207 202 207 186 139 147 140 139 140 141 141 143 164 184 181 187 186 167 126 114 111 141 135 138 139 143
210 215 217 205 131 210 222 206 208 215 163 200 198 96 192 189 196 130 81 167 194 156 132 139 149 146 134 135 139 143 157 196 184 190 185 175 168 124 170 134 144 147 127 150
217 199 207 215 218 213 229 204 196 167 192 175 161 167 165 203 206 202 201 92 117 110 169 135 140 141 145 144 132 139 138 154 195 186 191 177 171 146 130 167 124 127 153 134
252 218 202 215 206 179 210 196 199 207 199 191 178 186 189 172 200 199 188 206 120 112 123 132 182 121 129 134 143 138 134 142 150 198 192 176 171 152 150 135 142 121 126 133
163 246 205 194 161 96 87 196 202 192 180 180 186 189 189 191 196 194 194 198 218 227 130 153 139 203 122 141 123 137 162 146 142 150 178 178 166 154 163 165 162 135 131 127
200 184 238 203 194 129 198 195 191 194 93 183 183 181 189 193 191 191 102 191 215 246 219 206 164 199 204 123 134 133 134 139 150 145 149 183 174 173 162 159 156 157 140 141
235 199 147 220 200 196 202 187 165 78 189 190 183 182 194 196 195 189 192 196 205 215 214 205 117 109 131 172 131 133 126 137 131 144 135 140 146 149 175 171 169 163 158 155
170 229 196 226 219 205 141 182 195 195 190 191 161 192 195 196 199 193 190 198 196 151 150 210 110 155 203 189 174 144 145 131 134 136 133 132 136 146 145 145 154 158 163 169
237 237 206 208 218 167 114 187 181 171 112 112 103 193 96 205 196 189 163 187 198 188 205 206 140 103 197 188 179 184 178 163 133 136 132 135 136 137 139 140 146 147 122 145
202 194 229 216 84 219 210 92 104 153 168 138 195 165 197 199 191 170 182 174 191 186 198 199 200 178 115 113 190 180 124 134 156 169 168 135 133 138 139 145 145 140 141 143
209 179 199 199 122 211 223 218 204 192 140 139 204 204 186 136 183 187 181 166 189 165 198 194 200 198 198 212 157 194 176 128 125 120 154 170 132 124 122 137 142 142 145 146
221 185 217 237 216 202 133 130 215 213 162 151 197 202 209 199 178 183 171 175 188 196 195 197 196 195 237 194 204 193 190 186 163 122 159 165 150 156 164 170 157 134 140 126
216 205 208 235 232 187 207 200 237 234 221 207 191 201 200 194 183 94 170 178 192 191 186 158 182 194 191 220 222 190 199 194 92 178 96 174 117 171 132 158 136 170 142 135
275 231 201 224 242 178 222 222 202 223 229 220 201 189 179 172 190 186 175 180 191 184 181 189 195 191 199 185 209 216 218 195 202 203 195 113 188 189 187 186 186 186 154 187
287 241 218 203 216 241 205 233 223 207 237 229 219 198 181 169 170 177 176 178 191 198 190 175 177 189 192 198 193 199 203 205 210 232 237 218 198 195 194 192 193 194 198 218
331 268 239 89 215 231 236 239 237 220 202 233 223 209 117 191 184 170 167 181 191 198 194 195 179 172 176 186 196 187 190 196 199 202 202 207 216 215 212 224 221 224 222 221

GFSCGP_2pvu_pres_036.txt.gz
Presure
132 129 136 143 120 116 145 134 128 139 147 131 147 127 136 141 139 148 146 153 145 139 146 164 171 221 193 183 185 163 169 176 180 141 136 134 131 122 133 135 131 135 149 135
133 115 125 131 138 123 118 122 125 141 153 140 128 124 130 129 132 139 160 170 144 149 138 156 166 239 197 182 148 175 131 214 175 146 148 141 127 132 140 149 127 126 125 143
86 128 134 144 134 132 139 123 126 129 148 147 132 125 118 127 127 134 151 143 143 148 146 143 159 164 192 179 156 178 141 192 182 151 150 143 112 113 127 129 131 126 146 137
141 86 135 138 133 141 141 147 132 106 109 123 113 139 129 151 108 125 144 139 140 145 146 145 144 165 190 192 170 155 163 148 174 159 151 123 117 131 133 127 137 134 128 131
128 136 137 82 96 139 143 150 143 104 107 103 156 145 117 119 123 164 161 176 142 139 137 129 142 145 165 195 181 160 175 130 173 166 150 130 149 131 127 122 119 133 111 137
144 92 144 119 107 129 149 142 101 129 149 149 127 140 113 119 129 128 116 165 126 133 144 142 134 140 146 164 189 183 150 173 128 161 148 153 150 136 132 129 120 131 132 134
141 157 129 88 127 134 134 154 90 131 139 134 116 140 118 105 109 173 165 185 140 147 138 135 147 141 134 155 180 188 195 162 166 132 141 153 111 144 125 122 118 132 125 130
131 144 171 144 88 156 133 147 155 141 148 133 156 141 138 156 138 143 207 124 130 126 134 131 139 137 145 142 161 199 175 184 182 155 134 131 151 137 136 130 115 105 101 129
227 177 130 172 135 184 136 154 146 151 156 139 110 153 153 152 128 128 109 145 166 165 145 139 140 140 135 135 142 158 193 178 179 182 165 117 149 151 151 140 136 106 124 142
227 220 196 131 191 161 183 130 155 137 151 148 83 123 137 133 141 142 146 150 143 120 108 123 142 136 140 138 135 144 165 197 187 175 182 169 125 143 149 150 106 126 132 133
154 210 214 211 202 176 196 193 154 156 165 172 156 161 106 82 135 140 125 124 145 160 220 165 124 131 133 134 139 142 144 183 191 199 179 178 138 123 121 135 148 135 125 135
237 223 210 176 83 211 205 203 211 122 191 189 123 119 138 124 133 101 105 145 178 110 203 169 209 132 128 139 132 141 141 142 191 192 184 178 177 170 120 134 137 120 140 137
259 233 191 200 198 90 210 211 192 151 196 173 171 206 112 203 152 90 99 135 142 166 135 181 214 139 136 143 144 131 128 138 139 192 191 188 182 176 175 153 127 113 157 158
272 238 214 214 164 149 214 201 210 204 175 184 181 189 187 168 128 130 125 125 159 142 209 208 199 171 125 136 138 131 131 133 137 134 196 188 187 181 180 164 129 123 141 145
255 268 226 115 215 206 174 177 212 219 184 203 199 198 201 210 190 210 200 200 198 138 191 207 114 131 209 188 137 139 137 139 135 133 136 182 182 190 175 164 157 150 145 127
185 258 248 216 204 207 71 94 205 172 212 197 199 199 208 200 200 201 199 163 200 199 177 200 113 110 193 201 202 136 121 130 140 136 133 140 196 189 168 172 162 160 160 165
240 244 252 232 214 198 202 205 201 195 181 189 84 178 200 198 200 178 168 181 190 204 191 189 201 152 132 134 107 197 152 121 134 136 143 141 133 185 167 176 186 172 171 150
239 235 238 246 229 208 200 148 199 194 140 193 200 206 203 197 199 192 190 196 197 206 195 185 207 209 200 128 134 170 198 187 143 131 131 137 142 142 142 143 167 180 176 118
249 231 232 242 239 222 199 199 200 187 191 192 190 197 207 201 192 123 190 195 194 199 194 185 205 204 213 203 186 198 152 155 190 141 126 134 136 144 140 139 142 149 164 168
276 230 228 236 85 86 213 196 197 191 187 171 188 192 194 199 199 192 190 188 193 200 198 192 173 201 200 214 206 197 119 120 122 180 183 151 133 135 145 142 142 138 143 145
272 218 227 235 168 237 230 212 171 203 97 191 198 200 198 190 189 89 189 189 193 194 192 188 182 206 202 162 206 160 200 127 149 168 154 167 171 142 136 133 135 141 141 142
279 249 231 233 196 231 230 178 208 206 196 198 187 205 200 128 171 118 174 187 186 184 185 179 184 187 151 200 193 201 173 186 187 192 144 176 133 153 141 146 165 157 128 125
296 233 223 229 225 214 215 232 232 209 188 194 178 143 201 206 198 179 184 180 180 103 113 188 172 188 186 192 195 193 192 208 187 105 108 169 183 175 123 122 126 131 167 173
340 255 222 229 228 217 193 239 250 237 192 107 193 196 101 109 147 192 186 182 182 175 180 186 182 174 197 179 187 193 195 194 215 199 190 192 188 181 179 179 179 139 175 171
328 256 224 225 228 226 218 165 211 247 234 214 200 162 183 196 176 187 183 177 189 172 174 186 190 189 201 195 190 192 191 230 199 194 213 200 193 193 191 154 182 186 187 186
323 330 257 223 194 235 226 220 159 213 213 225 212 198 191 181 183 183 184 178 180 186 169 175 170 170 190 186 189 183 189 191 209 220 214 192 192 198 195 192 191 192 193 193

GFSCGP_2pvu_pres_039.txt.gz
Presure
140 124 124 143 136 137 152 133 125 131 135 132 139 136 141 137 134 137 142 145 147 139 146 138 174 230 195 184 198 170 125 219 145 133 137 135 131 125 134 148 165 134 122 166
135 112 138 134 124 131 130 139 134 128 132 135 136 135 152 133 131 140 142 149 185 134 141 135 140 201 200 185 189 172 163 231 219 148 138 141 139 137 144 120 122 119 141 131
135 133 136 93 143 121 126 122 146 127 124 129 146 129 131 127 134 142 141 147 155 146 149 140 134 176 194 207 161 172 164 210 214 149 129 142 131 120 142 130 123 128 146 124
142 115 141 117 135 131 138 146 137 125 112 131 126 124 146 128 117 133 144 134 155 141 143 150 139 152 185 223 174 145 164 173 220 148 141 141 126 121 114 126 134 154 130 133
126 150 152 140 146 138 113 148 131 131 125 132 143 139 136 132 121 150 118 129 161 136 135 144 133 139 167 195 213 156 171 153 218 182 149 122 143 125 133 128 112 129 103 140
67 113 141 136 126 146 153 147 153 147 106 117 139 121 105 131 146 144 150 140 130 131 140 146 139 127 139 168 206 185 153 165 163 163 169 124 127 140 126 120 122 125 121 130
165 114 116 128 118 143 150 139 145 144 139 135 127 119 147 115 108 149 164 126 128 133 140 143 139 146 130 145 167 198 176 154 162 166 160 137 110 151 119 125 126 117 133 124
162 147 136 97 153 98 127 131 163 132 91 110 141 126 119 133 122 121 140 143 136 130 119 129 138 141 146 139 149 167 222 185 167 166 145 158 151 126 119 115 127 118 120 110
207 168 187 112 147 114 152 103 149 145 152 102 107 70 133 150 123 122 104 142 147 166 131 146 155 142 143 143 140 151 169 207 190 172 161 154 133 151 138 112 130 128 118 112
218 166 205 96 188 129 103 90 100 154 141 142 127 129 134 128 139 147 127 131 134 125 159 169 141 139 126 148 144 135 151 176 195 186 162 165 152 141 147 148 146 141 136 111
263 222 126 224 147 186 176 134 97 145 151 155 138 145 162 158 151 142 137 133 129 108 134 129 164 157 127 136 143 141 140 139 173 204 184 176 175 161 97 134 151 127 145 128
290 254 212 107 172 200 137 184 92 140 160 128 148 83 89 142 95 91 139 145 145 130 138 133 103 131 162 124 132 136 131 134 156 166 204 184 161 174 84 162 121 135 153 150
174 262 230 212 154 78 207 149 169 182 181 176 181 172 75 149 143 125 132 142 150 134 116 120 154 211 225 167 134 127 139 132 131 131 156 191 185 181 171 162 163 152 128 143
294 277 259 232 220 234 231 205 85 157 133 175 154 115 149 110 118 146 126 114 150 90 146 133 135 132 149 213 172 173 135 143 134 127 132 145 177 208 190 179 174 166 154 149
132 295 251 245 228 218 214 214 187 120 93 185 173 173 119 101 101 118 192 191 180 137 137 114 141 103 150 157 210 204 131 146 146 139 131 133 129 164 199 190 182 182 171 162
321 304 243 264 228 215 199 210 210 96 99 175 186 193 194 203 133 205 200 173 123 145 131 119 90 127 206 165 211 203 199 141 136 128 139 139 153 130 135 192 188 187 182 171
284 299 236 79 135 217 210 199 213 208 126 157 94 196 194 195 196 174 171 187 136 121 127 184 170 196 132 175 125 193 189 194 151 135 137 141 139 130 134 183 183 192 187 167
334 244 241 235 196 228 219 201 157 167 201 198 197 194 164 208 180 191 188 188 177 210 190 199 195 196 186 198 131 121 182 111 200 151 123 130 138 141 146 138 138 182 190 179
214 293 257 232 241 248 210 214 204 193 201 89 155 208 189 204 210 201 196 204 209 199 197 197 183 159 198 188 102 104 162 116 108 111 117 181 122 126 133 156 135 163 186 132
362 277 260 170 239 253 237 220 212 83 190 183 198 208 208 208 210 215 207 206 203 191 193 192 170 155 197 197 184 194 200 201 130 133 136 137 188 169 134 128 130 146 149 143
381 287 262 234 206 128 245 162 213 208 203 192 163 202 205 204 204 210 206 206 196 191 185 184 177 189 195 191 194 210 205 199 200 200 137 138 169 180 149 137 138 141 140 136
386 285 266 234 234 239 252 229 212 206 201 204 202 206 206 202 203 202 154 148 188 184 178 177 187 188 185 191 183 196 205 200 195 196 195 192 148 116 126 179 150 137 148 147
336 197 238 212 83 140 90 125 216 212 199 203 205 209 206 201 190 188 182 179 182 180 176 176 181 181 183 187 190 181 199 196 204 209 171 194 190 188 132 129 126 165 160 151
335 299 264 250 227 71 235 247 226 186 205 99 128 203 187 196 194 186 179 178 171 177 180 178 180 184 185 187 185 182 195 202 200 195 213 202 198 191 185 162 179 177 168 161
323 336 274 260 232 227 228 236 249 233 134 202 194 155 200 162 190 189 138 169 166 172 117 181 179 186 186 181 183 186 186 200 198 194 193 212 201 190 191 188 188 174 180 177
334 321 269 260 248 226 225 228 151 212 221 93 128 137 190 186 161 130 121 179 189 193 143 185 141 185 190 182 179 178 181 197 200 196 194 195 192 205 201 189 186 181 183 177

GFSCGP_2pvu_pres_042.txt.gz
Presure
124 133 133 141 129 153 93 82 141 149 149 148 152 142 145 142 139 139 141 137 143 148 148 141 146 150 192 173 158 175 127 204 173 142 128 125 132 123 136 140 136 127 155 133
137 127 132 130 136 132 130 134 138 136 141 142 141 140 144 133 137 134 135 143 136 177 144 142 140 142 223 189 166 178 132 207 202 132 138 132 117 133 148 120 121 154 127 129
122 109 97 135 113 144 108 132 147 136 136 132 136 135 138 131 129 130 139 134 154 159 151 139 142 142 186 211 171 187 166 209 230 138 137 136 130 126 142 127 121 125 143 119
134 130 118 89 105 135 124 110 130 139 122 131 126 127 121 120 144 134 136 128 139 148 148 153 143 136 149 203 204 191 168 183 220 152 135 132 119 118 124 125 133 130 119 126
149 142 131 119 129 129 98 141 147 119 111 141 141 126 125 129 133 137 141 133 149 134 133 150 147 148 138 162 196 158 182 165 224 207 141 139 117 120 114 127 125 130 109 125
140 155 146 128 134 131 81 152 130 122 131 131 145 144 128 128 138 129 127 121 142 120 147 142 147 138 135 138 187 197 159 165 168 223 161 141 127 104 120 133 127 120 123 116
98 101 90 119 97 122 92 112 107 141 115 131 128 120 125 131 116 125 132 137 149 166 135 185 136 144 134 131 138 185 192 157 164 170 208 160 136 113 140 126 125 130 127 118
153 122 149 146 123 157 124 89 143 118 134 145 133 139 133 134 138 126 122 144 151 162 171 134 146 141 144 145 137 147 181 211 164 164 163 165 176 152 126 137 117 123 128 134
223 156 131 97 159 142 97 68 123 131 128 95 85 145 136 146 113 104 103 125 126 155 162 121 130 126 147 137 151 143 151 176 211 183 170 160 137 156 159 151 154 116 123 128
316 220 144 150 77 116 149 159 153 161 142 131 117 101 119 111 110 133 114 135 129 140 149 143 128 127 139 142 133 142 146 135 179 231 171 180 162 159 144 142 153 136 137 140
306 293 214 206 146 114 112 117 148 132 104 149 139 107 93 109 125 90 127 123 126 137 128 134 164 173 135 139 143 127 128 136 136 152 200 169 166 168 162 154 139 121 142 151
315 319 144 219 193 136 160 173 87 89 132 146 125 119 115 98 105 132 145 142 131 123 108 138 126 150 155 139 159 180 135 134 127 132 175 173 163 164 158 170 161 154 148 125
308 296 308 262 223 194 117 163 173 154 141 151 145 88 143 127 141 136 166 135 133 136 142 124 132 125 121 115 128 120 130 133 135 133 134 132 181 199 178 172 153 164 161 158
494 364 307 166 255 222 240 154 160 139 136 129 126 108 119 141 132 146 94 98 152 132 116 135 140 141 134 134 147 210 221 148 124 132 139 133 133 130 181 184 174 184 176 159
446 481 301 277 264 254 228 197 203 180 92 163 122 129 141 129 135 97 146 94 149 145 144 142 149 147 141 130 116 140 222 215 175 150 143 141 133 128 136 129 184 179 187 167
461 458 159 275 269 257 237 212 230 225 174 103 169 155 139 151 126 142 150 157 120 126 131 140 96 95 121 96 145 112 142 162 193 206 134 141 143 135 133 132 133 180 200 179
480 400 324 273 273 255 248 229 204 228 213 167 94 168 179 163 153 153 160 140 166 124 158 128 127 138 160 96 117 140 142 144 202 212 168 176 136 134 136 130 132 134 134 176
381 369 384 270 277 263 257 239 219 215 226 185 161 89 167 161 170 179 157 159 153 140 170 79 91 196 192 135 121 125 122 132 181 212 181 210 152 136 134 139 141 135 152 138
365 363 347 117 249 259 251 251 227 208 222 210 194 195 91 159 183 147 159 148 172 183 189 194 146 194 191 132 143 134 121 159 188 131 159 133 136 152 164 125 130 132 142 138
368 357 350 97 269 265 235 248 226 214 202 187 137 137 203 195 136 179 189 179 186 189 193 199 185 170 179 218 132 129 135 191 202 105 200 110 110 196 162 120 146 121 120 129
361 344 318 289 267 265 252 251 242 170 164 203 185 202 209 202 196 149 193 190 186 185 188 180 170 184 179 199 208 195 189 195 195 196 104 168 109 144 115 116 144 177 166 145
340 378 342 254 251 250 245 246 244 224 207 201 183 219 213 205 199 192 192 193 185 194 193 190 194 205 208 202 198 196 182 168 194 173 194 204 202 205 201 148 132 133 177 160
333 251 355 92 253 257 248 240 249 227 210 200 207 215 214 207 202 194 196 188 195 189 107 191 183 202 200 195 196 192 177 170 171 197 193 189 197 201 204 202 197 179 168 141
311 327 302 285 197 260 247 241 250 229 208 202 89 190 185 206 204 197 188 206 197 159 193 191 200 202 197 193 190 184 179 174 193 193 197 219 204 203 196 203 200 195 194 191
334 348 293 280 250 264 243 235 245 236 213 205 204 210 201 199 192 181 190 194 175 169 133 187 199 197 196 189 185 185 181 188 188 193 195 189 193 212 203 210 199 198 193 190
305 283 292 259 208 257 81 145 236 244 87 134 205 120 208 179 189 188 180 180 155 186 171 203 195 195 191 128 124 178 177 186 186 188 189 189 194 167 197 204 206 205 201 195

GFSCGP_2pvu_pres_045.txt.gz
Presure
133 110 141 143 159 164 159 164 161 162 158 161 170 165 162 165 149 152 144 148 146 150 156 141 149 156 194 182 160 170 178 219 149 137 129 134 128 135 161 127 127 128 126 125
128 127 144 143 126 136 148 97 82 152 161 115 150 149 148 146 142 145 143 140 143 143 148 164 150 150 207 186 173 178 166 217 162 136 128 126 135 148 123 120 147 123 136 137
132 126 134 137 101 142 138 96 150 133 154 159 157 150 152 144 149 138 137 137 140 135 164 146 150 149 158 183 188 189 165 208 240 136 141 133 127 143 126 122 130 150 123 125
97 138 134 134 127 141 134 131 143 150 144 141 141 141 147 154 136 134 128 139 137 135 162 158 158 146 149 165 217 169 170 175 243 154 137 135 131 133 129 135 137 126 126 135
143 147 139 97 117 143 143 82 149 132 139 141 130 126 131 137 127 126 117 139 135 136 127 147 147 153 144 151 166 188 181 169 230 153 140 141 130 128 131 128 133 134 115 129
153 129 127 133 140 141 99 104 135 132 129 137 135 130 126 129 124 130 125 134 133 133 143 139 151 147 135 145 152 199 166 170 172 224 152 133 140 133 124 130 128 131 120 115
163 155 149 87 94 150 136 112 135 154 118 88 125 133 139 127 128 128 141 138 134 124 148 128 158 144 148 136 143 153 187 187 167 169 219 137 141 141 126 140 131 125 126 126
293 128 94 146 90 109 127 153 143 141 132 136 104 109 109 132 134 137 127 131 133 128 164 135 145 137 140 151 137 136 161 178 163 168 170 201 159 139 134 143 132 121 120 126
299 306 172 158 85 126 133 152 129 144 81 119 125 149 151 114 130 135 130 120 133 133 158 135 162 158 150 134 146 140 143 159 183 182 166 165 169 180 159 157 151 112 118 137
308 209 257 178 128 107 107 110 101 141 140 128 118 132 126 162 143 119 116 138 127 119 145 160 127 130 142 169 145 141 141 143 140 180 185 186 168 168 171 160 173 150 154 133
362 306 245 89 92 139 82 135 92 139 121 126 103 99 143 162 108 127 113 140 130 132 126 153 150 151 153 140 138 134 136 137 142 135 162 191 192 181 169 161 162 137 126 130
350 298 302 295 244 198 182 163 145 133 142 132 100 88 158 147 149 145 153 112 118 122 132 136 114 162 159 163 126 140 135 142 134 139 142 138 175 187 182 168 169 162 152 154
357 310 272 297 309 215 192 183 88 140 87 103 145 119 109 135 103 155 101 136 115 105 149 150 144 138 126 122 173 131 156 147 169 140 128 133 129 138 159 178 167 164 170 165
317 362 387 293 304 184 232 218 132 115 123 144 146 137 126 152 99 108 99 145 124 148 137 127 134 116 145 146 124 124 119 119 147 140 146 136 142 129 134 133 166 159 183 178
298 358 168 399 290 309 289 223 178 100 140 81 143 155 125 150 116 100 137 152 123 95 115 126 116 142 148 116 136 139 139 141 161 123 148 132 145 150 138 134 132 135 137 178
356 371 389 419 440 173 81 254 223 90 88 135 148 111 118 140 176 88 162 131 125 159 151 107 131 130 135 137 141 148 135 100 131 137 221 213 160 133 137 142 138 131 136 141
407 461 457 483 388 301 313 281 248 245 79 142 136 98 140 147 120 93 157 142 155 147 148 145 129 148 152 147 114 134 100 141 148 139 160 182 126 208 153 148 139 146 132 134
423 426 238 480 463 471 310 297 256 227 208 181 159 156 137 113 140 139 126 152 136 144 150 128 132 148 150 155 103 100 128 119 140 147 135 140 138 198 212 165 165 135 134 141
420 436 448 400 422 418 131 298 268 237 210 185 96 96 97 112 107 148 147 98 89 95 109 110 103 158 148 142 143 124 131 117 102 107 128 118 135 145 182 142 155 161 151 146
86 237 112 390 418 371 311 299 272 240 206 202 174 167 91 91 88 132 90 151 149 148 133 101 139 143 150 164 108 114 154 147 154 149 138 127 117 164 142 196 147 192 192 146
350 359 349 379 358 180 362 290 275 245 220 202 146 141 179 176 156 117 106 98 140 168 154 152 128 122 168 142 176 180 121 122 202 174 176 198 134 139 168 170 199 206 127 138
325 346 349 368 147 368 217 283 268 254 226 209 189 156 205 188 183 178 175 170 103 127 171 149 146 174 177 174 174 171 206 200 188 194 206 199 191 173 139 145 196 152 145 199
322 314 334 346 288 294 328 279 273 254 232 211 194 111 202 206 143 191 183 178 175 107 182 146 176 129 136 156 190 203 200 184 179 182 207 192 194 197 195 193 198 198 203 198
297 299 319 344 283 128 301 278 274 204 236 199 206 212 216 209 204 201 195 189 184 184 184 174 155 166 183 189 189 194 190 179 174 192 207 198 194 183 174 170 191 198 215 202
223 285 298 426 293 222 301 273 264 246 233 217 208 211 142 188 206 197 199 195 182 210 201 189 191 187 183 188 192 195 190 189 213 200 198 195 188 185 187 165 183 200 197 195
267 272 279 299 339 277 310 261 255 243 138 220 213 213 94 204 208 206 193 197 194 149 184 205 204 191 192 193 188 178 196 193 208 198 194 195 178 182 170 169 190 198 200 208

GFSCGP_2pvu_pres_048.txt.gz
Presure
125 130 140 146 185 182 187 185 194 194 146 143 253 135 218 205 194 180 196 158 161 158 160 158 151 167 198 184 178 167 150 132 135 126 119 145 152 136 140 136 136 131 136 135
133 128 133 135 138 176 150 184 186 127 181 177 177 185 239 239 172 174 166 155 151 150 154 152 147 160 200 195 187 171 181 224 130 128 128 126 140 161 132 135 131 142 149 126
140 114 137 127 127 139 154 92 183 162 171 144 155 171 199 168 174 166 153 151 151 149 144 164 147 152 168 178 204 182 178 204 137 135 108 132 109 127 123 169 132 126 135 140
146 142 143 140 133 130 92 144 155 158 163 163 158 159 157 151 153 144 146 148 145 142 146 163 157 147 158 169 205 162 173 192 160 136 133 133 136 117 128 119 138 128 107 122
153 146 149 150 142 138 134 93 146 155 101 155 152 153 152 147 147 137 145 135 141 142 139 160 157 150 150 159 170 211 189 189 238 120 139 132 133 142 125 139 127 123 119 140
157 154 153 99 139 145 139 113 137 134 147 138 144 144 149 142 153 150 137 133 144 140 135 149 142 155 150 151 161 203 197 173 200 206 134 137 134 109 135 111 139 128 124 126
166 148 154 157 149 157 156 134 129 127 125 138 137 133 143 139 138 148 133 129 139 140 141 151 150 167 140 146 148 164 194 158 177 211 203 138 136 133 122 115 130 112 117 118
235 238 162 161 113 100 139 138 148 137 126 141 127 119 137 142 137 135 132 139 136 141 143 139 141 133 173 147 138 145 162 194 179 171 198 177 143 143 133 130 96 111 127 130
225 232 256 89 103 160 159 114 110 135 93 84 111 133 127 148 140 128 132 133 140 137 133 135 129 142 155 147 142 145 143 149 191 176 170 185 213 153 143 141 128 113 132 119
199 263 225 271 191 120 97 125 128 131 109 114 130 139 108 139 137 149 135 138 138 138 141 136 161 142 151 134 169 143 148 144 145 177 183 176 174 176 173 164 156 148 150 143
377 381 333 267 100 169 140 173 153 153 125 134 138 102 155 105 102 144 137 134 146 135 130 119 148 146 135 152 142 171 141 141 162 134 144 189 208 169 169 170 169 164 160 145
348 364 354 98 99 102 102 143 172 137 146 132 96 105 148 125 128 148 108 139 141 155 129 126 134 157 151 139 128 140 138 146 141 139 135 138 141 159 181 189 174 164 171 163
340 338 358 354 373 310 245 301 130 109 148 144 147 128 125 146 144 133 160 139 116 151 138 140 138 129 147 172 135 152 174 164 133 141 141 140 141 140 139 164 188 189 180 170
336 292 339 360 348 361 305 89 282 80 111 161 120 101 133 117 124 147 133 166 111 115 141 150 141 136 120 118 130 137 154 160 163 151 199 143 129 137 133 138 140 115 191 185
332 330 334 145 347 348 354 241 124 105 86 95 114 143 114 125 132 165 167 153 166 135 130 122 128 138 159 134 148 157 144 136 132 121 119 155 215 180 135 147 135 135 135 138
341 365 346 335 346 106 355 119 107 102 191 113 147 101 139 143 113 111 191 103 137 104 105 141 137 145 114 125 118 157 129 118 135 142 139 143 170 216 128 137 155 152 136 135
365 363 355 346 340 331 347 368 319 293 228 180 157 144 105 104 111 115 125 102 106 170 150 134 149 133 135 149 143 141 127 134 143 142 125 116 128 142 195 193 180 157 140 141
368 366 360 355 342 308 367 340 181 310 258 89 141 131 80 150 114 170 143 103 108 109 121 127 147 135 135 143 156 138 125 143 143 139 144 135 145 137 141 166 161 203 185 151
414 384 388 100 363 374 180 367 370 168 294 89 143 161 153 112 135 146 161 113 113 123 124 131 129 120 148 107 108 111 155 125 103 102 140 150 137 129 143 141 131 132 154 142
449 417 184 441 483 489 561 374 387 321 328 223 156 131 134 147 142 165 136 166 117 121 106 126 109 146 154 161 135 133 133 140 129 157 157 128 107 117 140 119 120 135 162 101
360 365 379 374 428 452 455 401 371 334 332 253 133 195 165 116 139 166 121 157 114 122 138 160 140 123 116 148 135 134 151 113 149 137 106 132 160 142 164 135 127 135 138 138
324 342 370 199 328 276 371 350 462 371 318 258 188 197 132 141 110 109 129 121 162 101 123 126 129 139 110 100 129 138 139 142 140 140 131 184 181 131 157 169 198 127 125 150
334 308 294 318 222 320 349 387 390 345 315 263 230 103 105 101 82 80 100 98 96 91 154 153 146 128 131 133 141 137 94 137 140 127 158 167 163 198 201 210 204 199 194 185
340 289 270 283 302 212 377 364 370 213 306 264 174 162 195 197 125 159 167 165 113 99 97 133 161 146 118 160 149 100 141 149 155 159 177 174 183 210 196 149 201 197 195 193
296 275 292 283 288 294 358 177 359 306 296 265 163 213 202 108 198 191 189 181 172 175 168 144 157 93 157 127 114 166 145 171 146 173 148 155 172 130 194 185 206 190 198 195
274 265 273 278 273 300 328 328 96 286 284 260 229 217 181 205 107 121 195 193 191 187 180 174 171 169 170 168 163 169 141 120 160 146 158 178 198 190 182 180 205 200 197 202

GFSCGP_2pvu_pres_051.txt.gz
Presure
130 127 133 185 195 178 163 178 157 142 148 149 100 108 155 120 102 138 167 144 171 156 173 137 158 208 203 159 182 190 128 125 130 124 126 159 159 151 148 136 132 140 134 138
138 122 130 131 133 176 191 170 167 157 135 139 118 116 155 116 168 180 206 174 167 153 160 148 152 205 199 192 181 181 153 127 130 126 128 154 165 135 138 160 128 134 146 136
135 141 139 133 130 133 156 192 195 197 175 177 117 154 198 146 189 244 110 192 158 155 152 148 148 152 176 197 167 187 191 136 139 132 131 142 160 129 123 135 128 128 138 141
145 152 99 141 133 132 134 141 143 191 184 158 188 190 182 185 220 238 189 160 160 158 147 152 163 147 168 171 188 196 187 200 128 133 124 133 113 129 127 159 135 135 125 122
142 149 150 151 145 138 127 137 137 144 181 184 177 173 170 171 213 223 177 166 157 150 147 163 135 145 160 162 185 163 190 201 142 126 134 127 146 121 113 122 123 137 126 148
139 151 148 153 153 148 143 136 134 88 91 153 165 165 164 165 153 103 172 150 143 145 147 157 160 154 146 159 179 206 193 170 236 127 128 134 137 146 130 134 138 127 129 131
80 151 105 147 151 153 156 145 138 124 131 157 106 158 158 158 168 156 151 143 134 133 144 144 163 149 152 152 160 163 191 189 230 195 139 136 135 132 125 138 134 127 131 123
236 190 153 102 140 148 146 151 145 136 124 131 120 109 150 145 162 149 149 142 145 134 145 136 165 145 173 147 150 158 166 187 178 239 167 135 132 138 133 131 123 114 131 125
220 226 235 164 136 157 149 149 86 132 131 125 132 150 96 164 159 152 150 143 146 136 148 142 149 147 145 164 153 147 152 161 191 206 224 177 147 140 140 144 128 123 130 138
242 225 235 103 237 144 169 127 156 155 143 118 123 138 135 96 153 154 148 154 144 131 138 145 142 147 140 149 137 143 144 157 155 208 185 210 197 165 153 143 138 141 140 130
260 249 162 221 239 236 219 166 150 156 148 141 122 131 129 148 143 122 137 136 143 138 138 151 129 136 149 131 167 132 157 144 144 150 189 179 168 195 205 179 173 168 162 159
265 265 268 256 102 233 248 246 103 138 109 145 79 96 105 101 127 150 142 143 135 139 133 138 143 126 147 152 135 154 136 181 147 142 144 150 203 198 179 176 172 173 171 178
321 329 280 101 280 248 265 102 110 150 167 138 150 141 110 136 118 165 147 147 136 148 144 139 138 138 132 144 172 136 136 144 147 145 137 141 143 144 148 152 182 183 187 174
298 308 309 314 263 309 98 96 190 234 152 111 135 126 126 132 130 86 149 143 163 139 141 147 127 140 131 141 127 126 148 160 173 166 139 141 151 142 138 140 141 140 142 166
290 295 301 309 297 261 366 406 244 93 205 101 158 153 91 85 152 158 170 160 115 128 144 161 135 125 129 132 140 152 128 165 148 152 145 141 158 133 132 136 140 135 135 133
285 293 282 290 302 299 321 117 381 237 218 248 98 140 107 167 159 156 145 117 130 140 145 161 132 127 137 129 137 118 147 134 154 150 182 132 118 141 128 126 124 123 127 137
313 305 306 291 303 293 117 283 176 379 278 122 153 129 146 145 139 137 153 154 153 154 138 154 121 144 136 148 130 139 142 145 151 136 121 122 149 141 148 148 151 152 202 191
383 368 320 294 300 314 328 218 224 226 367 237 93 119 136 151 145 129 158 130 131 155 137 119 158 142 127 129 138 157 123 123 139 103 134 132 143 120 118 140 142 141 142 153
410 393 382 372 348 342 114 340 334 366 389 374 251 108 102 114 110 141 165 137 147 143 167 155 148 115 166 135 123 152 141 137 143 140 132 148 134 134 142 144 134 131 140 132
400 455 386 375 387 380 375 352 332 107 379 391 263 245 284 145 151 153 148 152 170 189 152 120 152 161 122 141 170 117 148 139 142 126 134 145 115 141 137 146 117 142 130 120
337 362 402 412 399 407 406 389 398 390 403 373 239 232 132 150 119 162 177 172 119 139 113 112 119 135 137 156 145 140 138 151 111 152 127 147 121 150 151 123 109 136 144 140
323 330 338 85 192 74 436 82 420 416 386 370 88 177 231 101 97 173 103 124 121 124 140 122 122 153 129 149 139 146 144 138 152 160 133 137 146 148 151 142 155 160 181 154
287 302 301 318 316 358 327 129 438 431 383 87 135 124 92 88 136 136 129 125 143 130 140 140 106 158 155 111 136 138 133 140 141 144 143 141 109 142 142 135 123 162 151 124
277 293 149 115 306 354 327 337 408 412 412 183 133 317 296 173 167 82 178 123 143 127 108 143 141 155 116 114 173 123 137 101 119 99 110 138 108 132 129 135 134 150 177 174
274 269 278 279 298 174 212 324 327 277 337 235 458 267 200 252 175 189 126 88 126 131 120 94 95 113 134 87 127 131 108 106 118 133 131 127 129 133 138 137 155 157 169 136
269 263 227 291 316 318 339 387 312 313 377 337 356 346 269 204 101 166 167 194 183 176 106 130 96 106 106 117 107 90 119 118 141 93 141 149 134 153 151 160 162 170 169 168

GFSCGP_2pvu_pres_054.txt.gz
Presure
129 129 131 196 213 173 157 141 140 132 112 145 131 138 122 141 158 101 124 134 153 162 188 159 147 160 197 165 186 130 119 129 126 134 137 147 147 134 131 130 129 135 134 132
137 137 133 132 134 195 204 171 160 146 128 133 139 122 110 129 127 103 135 143 157 168 188 161 152 155 223 203 187 170 131 126 124 131 127 157 161 144 149 135 131 146 155 149
139 144 141 129 130 133 158 194 196 186 162 146 119 109 96 110 111 138 113 155 157 231 194 157 150 146 238 203 171 177 190 128 131 127 127 132 170 139 138 137 142 134 144 146
146 148 146 144 135 133 134 138 170 200 204 157 132 142 144 137 110 126 115 147 207 255 172 157 157 150 171 179 183 179 201 173 130 131 132 141 131 135 123 140 132 120 121 120
145 147 153 137 145 140 129 135 135 148 194 186 171 165 140 141 117 168 120 151 260 195 157 159 154 153 149 175 173 190 174 218 142 132 128 128 140 125 123 130 127 136 123 126
155 145 150 140 153 143 146 126 133 135 147 178 179 185 188 209 187 125 147 163 205 184 166 154 153 181 144 159 173 202 183 178 230 137 131 138 129 140 138 109 134 140 134 143
153 151 158 151 151 114 146 149 140 129 130 112 165 180 180 184 181 167 117 115 185 175 161 156 139 168 152 148 164 173 199 188 193 210 137 132 135 130 138 142 136 124 125 115
231 163 156 157 158 158 150 155 153 129 128 128 119 145 171 175 173 174 157 112 144 168 152 152 145 154 174 145 149 167 201 191 170 244 149 124 135 137 138 134 129 114 114 127
256 228 244 153 160 163 161 171 144 151 140 124 124 89 82 180 175 134 176 165 161 152 143 146 141 151 160 153 142 155 165 172 191 178 195 152 138 134 135 135 136 139 96 126
233 248 249 86 162 166 179 157 154 161 147 127 117 128 134 113 173 168 171 161 161 149 134 129 141 147 145 156 154 143 150 160 168 231 235 192 164 145 141 139 140 135 140 136
244 233 230 254 235 228 197 168 171 164 162 120 125 119 115 134 171 142 164 163 175 149 164 176 140 134 147 150 143 151 145 150 160 166 203 223 200 188 180 173 162 155 150 152
261 267 255 83 251 247 219 228 177 121 152 150 85 103 102 132 115 119 162 131 144 143 139 147 137 135 136 143 171 135 139 142 147 158 161 160 221 214 176 191 190 177 179 177
255 260 260 258 264 254 209 253 239 193 173 151 127 136 138 121 128 121 110 165 154 151 144 139 157 140 176 141 127 162 140 131 173 144 151 154 160 158 157 207 216 203 180 182
257 259 262 261 263 268 257 168 96 239 205 177 111 148 125 137 142 127 131 140 160 154 143 147 136 134 140 136 153 150 155 157 145 158 162 143 144 144 144 146 146 149 151 151
287 290 257 258 260 269 268 113 261 222 239 238 194 155 153 91 153 145 146 126 114 133 156 144 141 130 200 131 144 149 133 155 134 135 171 148 140 137 136 142 137 130 133 135
305 299 296 303 255 261 276 265 267 258 269 250 194 170 148 96 98 102 121 131 133 161 149 152 132 136 135 141 122 149 137 149 155 148 158 140 138 140 136 132 133 160 167 128
304 297 296 306 303 308 324 260 260 269 134 275 203 217 179 122 101 119 130 130 151 150 153 140 135 138 149 139 150 147 127 127 143 139 131 155 161 156 180 126 145 144 134 130
448 305 295 291 293 298 312 316 322 326 306 277 250 202 136 200 156 142 145 149 130 142 134 157 150 132 133 129 136 270 132 136 139 127 125 143 162 127 132 143 142 144 143 141
367 457 394 300 300 296 299 297 297 315 333 290 235 84 150 151 185 147 151 134 149 132 113 125 118 132 133 118 117 126 127 144 129 138 145 159 124 138 141 141 144 128 143 142
342 383 457 401 367 181 258 294 295 311 321 131 103 330 96 197 110 191 159 154 132 156 152 137 130 144 143 145 154 132 126 139 116 142 151 141 113 106 136 135 139 128 144 147
332 346 375 412 281 407 320 299 311 256 243 209 293 354 105 109 96 102 142 160 131 131 136 144 128 138 153 152 132 146 124 139 147 119 135 125 142 124 138 117 146 158 143 131
294 300 308 318 325 270 436 424 390 317 326 189 306 332 203 388 165 121 203 157 160 162 167 144 135 159 159 151 126 144 152 150 141 147 126 140 148 133 137 159 110 151 148 128
278 285 276 299 315 334 147 331 89 424 499 134 133 131 336 365 92 90 184 213 117 168 147 160 143 140 110 133 128 135 145 152 159 129 132 143 141 101 157 128 128 143 145 149
269 268 278 289 287 312 308 336 129 221 101 184 543 391 104 185 379 157 153 247 182 126 162 154 147 134 134 133 155 163 155 159 166 154 127 143 114 155 157 109 117 146 140 138
258 265 265 288 287 182 314 317 332 371 425 484 448 83 210 332 292 175 113 110 107 128 161 148 169 132 169 155 169 134 148 156 133 131 121 149 115 102 144 142 126 140 140 125
260 269 280 291 289 124 230 273 306 320 327 393 223 252 422 99 315 250 248 249 115 143 134 139 154 137 171 116 129 128 128 133 147 126 118 138 111 144 103 148 130 125 125 126

GFSCGP_2pvu_pres_057.txt.gz
Presure
125 127 133 203 216 140 152 158 135 141 154 140 133 144 121 123 111 115 122 142 129 126 149 156 174 145 132 180 223 119 123 122 117 121 139 142 143 141 134 128 138 142 134 127
133 127 131 132 139 213 224 173 167 149 141 133 126 144 118 120 123 141 133 135 114 125 157 164 167 156 147 181 172 179 131 119 118 127 122 137 154 149 133 133 133 126 151 140
137 136 138 127 131 132 162 211 201 177 145 139 141 131 126 124 122 131 110 113 139 174 135 171 247 155 153 181 219 186 177 132 127 131 131 121 160 163 149 126 140 138 140 148
140 146 140 140 134 133 131 144 186 206 149 225 139 128 124 131 122 142 139 164 162 158 141 176 259 151 158 146 188 152 169 198 137 123 129 127 137 174 143 152 131 117 124 127
149 152 146 136 140 139 134 138 141 177 188 133 133 138 124 107 110 115 121 155 172 142 148 165 204 154 158 147 199 171 177 169 207 140 132 107 125 161 138 130 134 138 123 135
155 150 151 150 149 142 145 139 134 142 167 169 164 186 197 116 120 131 144 132 131 121 149 156 216 154 157 158 170 198 177 172 206 192 134 127 133 128 136 138 125 136 140 137
162 159 150 145 159 157 126 149 140 135 132 145 145 180 183 177 131 145 153 158 128 140 169 163 181 163 150 142 145 178 206 187 166 225 177 132 134 131 109 137 138 139 128 127
156 157 161 151 136 152 152 159 150 139 130 137 156 151 176 189 149 141 143 144 160 146 133 205 166 159 136 171 141 159 213 185 182 173 210 148 129 133 135 137 135 127 128 120
250 221 166 159 161 153 161 153 150 150 127 132 122 141 160 171 197 200 174 141 145 121 152 181 161 152 134 149 162 137 158 215 200 162 228 206 151 129 133 135 133 133 108 140
247 239 245 209 174 172 174 148 111 150 151 104 129 129 134 149 166 204 181 163 170 170 111 131 165 154 138 136 156 148 148 157 197 199 226 234 162 149 139 139 140 137 136 136
240 235 240 247 236 182 178 176 165 105 137 142 108 80 133 133 146 170 168 169 156 155 126 157 162 152 140 139 143 160 140 146 151 174 184 248 213 171 160 154 153 156 154 157
270 258 240 240 238 239 203 77 184 172 160 146 142 126 121 131 101 128 97 175 168 165 140 153 176 160 152 144 146 154 144 138 144 165 163 191 181 210 197 185 183 182 179 172
257 269 264 258 261 240 241 218 221 188 179 155 147 135 136 130 142 109 142 179 143 157 154 153 155 181 140 150 152 142 149 151 136 145 184 157 178 193 209 173 200 198 194 195
241 252 263 254 270 274 239 249 216 258 229 190 122 157 140 137 133 138 140 111 175 162 149 149 168 161 160 149 144 156 139 152 145 140 142 143 146 151 156 168 187 178 154 153
282 251 265 255 264 276 276 268 216 259 267 243 180 149 124 94 103 140 100 137 140 171 163 169 150 189 162 130 127 146 150 148 134 140 157 144 147 136 136 142 142 141 136 131
273 292 279 262 70 264 273 279 277 237 248 229 236 164 162 158 128 135 141 130 135 122 122 156 158 152 141 161 144 149 140 142 150 148 138 166 142 140 139 135 144 139 133 138
424 326 289 290 296 273 263 268 274 270 268 253 260 183 201 177 151 145 88 137 122 125 129 159 154 141 143 141 150 157 141 138 130 146 142 132 134 175 135 132 134 128 129 126
369 456 383 319 278 298 313 281 263 269 266 282 280 232 99 108 160 135 145 127 132 135 141 98 155 141 139 133 139 134 139 151 140 130 145 148 144 150 151 132 141 144 127 139
343 361 422 437 310 315 295 298 308 222 267 269 172 171 256 194 151 177 148 146 146 133 127 139 114 139 143 126 144 131 140 165 129 168 150 138 136 131 151 153 144 127 125 144
322 364 395 409 426 313 301 303 308 306 298 264 280 88 103 156 221 207 149 138 150 152 139 134 162 148 150 136 145 101 131 144 147 159 141 163 141 138 142 151 124 122 141 135
288 303 320 344 420 449 86 303 311 315 182 303 277 285 204 128 125 218 208 158 153 140 154 145 159 157 130 129 124 116 118 132 171 158 128 137 134 137 146 127 116 140 141 139
289 287 293 321 147 85 77 383 306 315 306 330 313 290 277 289 73 102 196 144 105 125 137 124 142 153 118 126 129 135 156 135 167 162 135 147 128 142 146 107 116 114 139 128
256 280 281 293 316 299 347 342 400 451 311 313 319 332 312 273 173 257 97 242 132 132 130 138 133 153 138 102 143 136 143 124 131 134 135 122 130 142 136 124 144 115 135 144
265 273 263 284 323 303 313 89 209 357 388 420 320 183 138 345 150 103 140 163 149 145 145 152 158 142 151 163 154 147 164 148 147 134 141 125 142 122 147 118 142 131 141 132
263 265 277 283 295 229 312 315 322 88 356 375 409 381 206 358 324 96 191 137 172 215 157 134 158 126 125 151 146 119 132 143 146 127 130 131 127 135 140 114 142 148 150 157
260 264 269 274 288 290 281 291 300 313 158 339 369 402 500 396 164 153 91 207 302 151 107 176 170 164 135 140 137 123 137 150 157 148 149 122 153 147 155 145 97 116 161 141

GFSCGP_2pvu_pres_060.txt.gz
Presure
147 182 196 222 189 141 127 130 147 129 128 124 115 131 120 123 117 132 144 150 138 132 181 137 144 144 170 145 160 222 122 120 119 128 139 134 134 139 130 128 126 149 142 131
125 127 144 186 195 205 182 150 123 142 141 131 125 125 137 131 125 142 144 115 161 142 140 143 150 180 172 150 155 225 169 124 118 126 124 127 137 141 133 131 125 152 151 135
136 130 131 125 162 190 223 211 149 137 135 123 128 142 140 125 123 139 113 126 130 147 139 141 147 166 178 158 149 235 181 173 114 123 129 128 138 150 139 139 119 116 123 130
140 144 130 131 126 131 157 192 215 218 141 133 131 143 120 140 124 124 108 135 160 138 143 136 142 166 188 188 146 237 186 210 174 131 129 129 125 160 156 135 134 125 140 138
149 141 141 134 135 130 132 142 181 170 150 143 164 149 130 142 131 127 128 136 116 121 128 178 163 156 182 174 158 143 195 167 201 175 147 135 135 131 169 121 137 122 135 122
140 149 149 141 139 135 133 131 135 158 180 175 178 137 140 120 132 139 137 135 149 159 136 134 142 163 182 173 157 141 192 174 180 197 144 130 129 127 132 158 129 128 123 128
141 154 144 147 149 143 141 140 133 136 147 161 174 117 140 137 133 141 138 131 129 159 134 129 136 166 201 145 144 152 165 197 155 202 192 157 141 131 137 126 135 128 125 122
162 156 160 158 153 148 140 141 138 129 136 149 172 169 170 187 149 98 107 158 122 111 180 134 160 173 173 156 144 150 145 171 202 153 227 191 152 141 117 139 120 110 117 123
157 161 159 154 152 149 157 149 141 144 131 131 152 157 157 146 187 138 100 126 123 127 115 192 162 175 187 147 152 160 136 159 210 192 180 222 172 153 139 141 139 133 134 123
243 169 159 165 161 156 162 154 151 142 144 127 106 124 107 146 168 191 143 138 116 135 138 119 141 162 162 153 141 168 147 141 154 202 182 196 220 171 155 143 142 140 134 123
219 235 243 167 158 158 158 164 158 154 149 139 126 135 146 142 165 168 180 211 183 151 159 149 152 122 143 168 140 161 152 145 150 153 185 195 233 212 161 152 151 150 146 160
262 264 228 233 230 170 166 149 167 85 154 151 108 132 133 140 133 156 174 206 222 105 158 148 121 154 124 171 151 144 153 144 150 148 158 174 239 228 168 165 158 165 162 176
266 265 251 224 242 244 194 185 178 163 157 141 134 147 135 135 140 136 153 166 208 172 164 170 176 157 155 153 143 142 161 152 137 142 147 166 154 221 233 194 183 198 191 163
256 260 262 270 252 240 243 226 220 188 172 161 144 151 156 142 119 118 136 140 181 189 175 164 169 161 117 163 147 136 153 154 141 139 147 161 152 149 148 192 200 193 182 184
282 257 259 259 275 267 239 242 248 214 197 185 148 150 139 132 129 121 133 141 123 154 186 152 173 173 138 176 149 135 149 152 148 145 135 144 147 144 147 151 147 146 144 137
289 285 264 257 263 267 279 252 242 245 258 131 72 174 113 103 141 137 115 131 135 132 124 169 170 170 176 202 142 135 155 145 146 155 135 136 149 145 144 138 136 135 133 128
318 269 293 279 263 271 274 268 229 233 240 255 241 80 153 152 150 116 144 133 131 132 133 133 185 180 173 180 159 140 128 148 143 137 150 151 144 157 146 137 134 132 151 132
343 354 367 277 293 249 249 267 275 277 278 244 250 233 145 90 103 148 141 147 131 134 126 134 135 173 172 171 135 154 141 155 135 193 138 136 141 164 140 143 139 129 133 178
318 343 405 393 381 280 293 301 272 275 280 286 271 245 238 144 230 170 145 105 106 140 107 133 140 141 176 173 157 194 163 154 148 134 150 154 138 142 151 150 152 131 128 136
294 301 324 345 374 428 464 292 308 299 261 277 285 278 244 242 238 221 111 133 144 150 144 140 131 132 168 180 160 139 150 154 137 157 139 144 157 134 135 147 146 150 141 142
284 280 291 302 321 365 100 346 325 304 323 275 278 277 269 135 153 225 225 114 107 150 150 141 142 139 141 131 172 168 145 146 152 155 151 156 155 161 151 127 147 146 142 143
275 283 296 284 298 313 348 383 460 331 329 318 165 222 205 178 214 270 180 228 183 124 130 150 146 142 151 137 144 163 145 140 144 143 179 153 139 164 139 133 139 152 135 121
269 261 261 275 294 323 313 114 128 447 343 331 287 319 270 286 288 85 263 240 217 133 126 155 151 146 136 136 148 165 155 151 151 143 174 193 173 182 165 153 137 124 122 114
258 262 259 264 278 300 312 290 346 366 416 444 327 307 325 275 248 253 241 253 147 254 143 159 155 117 147 146 136 165 153 140 145 181 162 148 205 139 145 137 140 138 148 112
262 254 263 265 280 198 302 302 310 332 349 368 421 340 339 165 286 278 285 256 169 162 257 142 146 151 153 146 144 90 160 140 128 122 141 137 174 137 146 135 129 142 137 111
254 259 253 257 273 283 282 144 268 91 306 324 352 378 434 331 265 326 282 290 264 97 166 165 162 145 146 158 169 152 144 165 160 160 148 158 209 129 157 137 118 136 139 148

GFSCGP_2pvu_pres_063.txt.gz
Presure
187 196 219 143 149 130 150 135 145 139 122 139 119 133 126 134 141 112 132 120 141 125 157 135 162 150 156 161 160 166 167 116 120 130 128 148 144 140 128 133 142 157 137 133
145 178 192 194 222 141 150 139 132 122 143 126 125 129 126 123 134 125 137 137 137 134 133 169 154 149 162 165 186 159 163 122 121 119 124 135 143 145 133 131 132 122 126 142
123 127 170 189 190 197 197 134 112 133 123 131 134 122 140 133 126 131 113 137 148 142 135 157 138 147 165 169 183 152 168 123 121 122 123 131 156 155 148 111 130 139 136 127
138 126 121 156 182 183 184 188 198 131 152 125 151 126 123 125 127 131 132 123 148 134 139 154 141 178 150 167 193 151 159 208 207 118 120 125 135 155 143 146 126 134 126 119
137 141 131 126 128 155 172 186 205 147 127 153 144 129 125 129 130 132 100 136 149 132 142 139 133 142 141 169 181 143 150 203 160 200 122 129 127 144 127 126 125 133 120 128
142 139 136 137 133 127 129 157 183 192 141 170 136 137 137 134 133 135 130 133 121 111 170 147 133 145 147 154 178 158 144 194 176 159 191 134 131 123 133 114 130 129 119 118
140 145 140 140 138 136 128 130 134 166 180 183 205 215 137 138 143 139 146 134 141 142 112 140 136 165 150 161 185 157 148 175 186 176 180 193 124 126 132 133 136 134 126 128
152 147 147 145 138 142 140 132 131 124 153 171 182 157 149 138 140 148 133 134 138 141 131 155 119 136 139 170 190 158 155 158 165 170 186 167 174 147 133 135 129 133 120 122
166 158 156 148 146 142 148 143 140 135 126 147 163 176 184 152 159 145 180 138 147 110 145 126 131 155 142 160 176 153 145 145 164 208 197 195 191 173 154 135 133 128 131 120
193 169 166 160 136 152 138 146 145 142 105 129 130 153 172 184 182 167 193 143 146 139 145 110 139 174 137 167 191 152 151 175 151 212 197 187 211 179 173 159 127 126 141 133
212 186 168 171 167 165 140 144 143 143 147 136 122 122 145 165 173 165 171 92 127 121 117 129 107 125 160 159 181 144 151 151 142 139 216 184 189 162 194 180 152 144 133 139
247 224 204 177 168 166 171 166 154 146 143 145 143 136 132 140 160 165 163 152 176 113 221 143 116 131 123 148 157 161 148 156 152 142 175 201 182 197 220 200 161 150 151 151
231 258 217 229 206 203 176 166 171 158 160 148 149 145 138 130 136 156 161 158 162 178 124 164 175 135 137 117 141 126 147 144 155 146 144 168 194 208 230 217 171 165 162 166
232 235 253 232 216 229 205 186 171 159 167 159 154 89 152 136 131 135 146 162 162 146 182 186 201 183 123 161 151 160 177 143 159 148 150 149 164 175 238 239 223 183 183 190
270 258 223 241 262 250 219 238 202 176 164 160 163 155 149 145 136 135 133 139 146 167 163 176 189 191 173 167 142 161 164 149 144 152 147 146 155 167 160 159 160 177 199 167
281 279 269 222 232 260 262 215 224 242 200 177 163 125 158 150 143 139 117 134 139 143 132 111 189 197 176 177 149 127 150 154 141 153 147 142 155 154 150 152 153 145 142 135
266 265 299 275 259 237 235 268 261 222 235 244 193 180 167 107 153 143 144 141 135 122 141 142 150 188 195 172 181 139 134 155 147 150 136 143 143 155 151 148 142 141 143 133
280 258 267 287 299 275 277 266 267 277 269 150 166 238 125 164 166 151 148 142 146 141 134 130 147 142 163 188 204 188 134 162 145 155 141 144 145 146 150 158 143 138 141 135
334 341 337 266 266 286 301 288 283 268 281 275 246 237 255 254 185 182 117 149 142 145 147 139 134 143 149 139 183 184 171 187 187 152 150 143 155 143 147 151 141 140 137 140
302 309 323 329 338 328 274 253 299 293 287 281 284 249 103 252 270 132 200 113 139 135 74 131 145 137 138 140 144 190 185 195 180 143 149 148 164 157 156 150 150 143 130 135
282 292 287 299 303 316 316 329 325 282 292 302 280 281 285 183 259 262 194 150 101 120 134 153 138 133 131 141 146 144 185 163 173 187 142 145 145 142 139 159 152 148 148 137
282 270 271 280 286 301 294 314 335 379 298 284 309 80 100 103 83 255 197 268 235 141 132 127 132 118 158 148 136 142 183 182 183 150 160 148 153 156 145 143 156 157 155 147
271 278 262 272 269 274 281 299 326 303 118 409 460 312 331 279 200 243 221 259 258 156 131 131 158 128 153 128 151 137 141 196 188 160 150 161 148 148 165 150 143 140 149 152
273 269 269 265 265 268 270 283 319 328 335 365 395 449 390 333 272 119 214 221 257 152 142 132 153 115 110 159 152 145 132 143 196 177 182 171 170 161 151 165 195 145 142 135
262 280 276 263 266 268 260 278 277 306 323 337 352 392 437 473 260 255 213 229 253 267 264 144 149 159 126 151 155 151 152 128 140 167 167 172 178 184 158 149 160 141 138 135
253 257 268 278 262 258 269 97 273 273 293 310 318 336 186 361 448 102 306 268 90 257 259 268 158 151 158 163 139 156 160 143 137 129 103 146 142 138 132 194 137 157 146 143

GFSCGP_2pvu_pres_066.txt.gz
Presure
207 228 149 151 138 146 139 130 130 130 123 126 129 118 104 136 136 137 136 133 124 148 146 159 142 168 163 163 173 114 140 122 133 134 135 140 129 132 140 131 131 134 130 129
181 204 221 152 150 150 137 132 138 131 132 123 143 128 130 126 107 137 135 131 120 135 140 134 150 160 163 156 178 175 162 121 122 127 138 133 142 133 132 127 125 127 125 121
144 175 203 209 192 144 142 132 137 136 128 148 127 133 131 131 128 129 133 143 142 139 141 132 144 147 143 159 176 179 160 138 127 127 136 134 138 134 151 119 131 136 126 119
125 123 163 194 205 202 141 145 137 135 144 131 142 118 132 131 140 137 142 136 132 140 121 148 134 144 153 153 168 179 155 162 120 126 131 135 131 145 121 119 132 127 120 127
136 133 120 157 174 194 205 197 178 139 155 141 126 132 134 131 136 135 140 139 134 140 140 149 139 155 128 135 150 174 158 161 195 194 126 131 134 119 122 105 109 111 131 128
144 141 136 129 119 165 186 194 182 145 135 165 162 135 129 144 145 126 141 133 130 140 143 142 141 139 131 139 161 170 153 153 236 206 156 136 133 128 146 118 119 127 124 124
144 135 137 144 129 121 159 167 186 189 159 227 150 147 159 139 147 133 132 135 131 128 142 131 120 123 151 141 163 163 179 153 175 197 181 157 166 126 126 134 136 133 131 132
147 148 140 140 139 141 128 120 163 170 180 175 140 222 147 134 133 161 131 131 135 138 149 127 120 150 128 161 141 136 179 156 156 171 147 166 124 135 126 124 131 136 133 118
155 158 144 148 145 142 139 135 124 155 162 172 180 181 194 213 154 133 135 134 131 114 142 145 149 118 155 134 163 140 171 159 152 161 167 191 161 192 175 122 137 134 129 133
170 169 161 149 151 146 148 140 139 131 123 156 165 173 178 151 147 209 146 140 141 126 135 148 105 119 155 140 152 152 166 150 149 147 158 166 182 200 198 165 129 115 135 138
193 177 172 167 163 153 150 147 145 143 132 125 131 163 163 175 183 189 177 196 142 119 144 150 142 127 131 130 164 168 154 158 156 149 148 161 210 179 184 201 167 110 133 132
207 203 183 178 174 160 164 155 153 146 146 135 130 123 128 137 167 177 100 185 150 145 144 199 109 145 136 153 149 171 164 190 154 157 142 147 164 194 194 171 186 192 150 144
235 216 204 198 182 176 165 155 163 152 149 147 139 129 130 131 132 134 167 177 181 185 126 162 146 149 125 116 127 165 142 187 139 151 146 147 170 170 191 179 219 211 154 145
237 237 223 212 200 192 178 168 166 159 156 147 146 144 134 133 135 120 134 148 177 177 166 169 161 111 124 139 170 125 140 163 160 153 161 154 157 168 173 189 214 222 157 164
273 237 239 233 218 211 199 178 180 175 170 163 140 141 139 134 119 136 136 137 136 166 158 134 167 122 182 145 124 142 150 137 141 162 145 159 151 166 177 182 224 238 214 176
279 289 243 238 244 225 220 207 212 191 189 182 175 157 141 141 136 138 142 135 139 134 140 166 168 114 112 156 159 159 137 136 145 160 155 153 150 141 170 181 198 247 237 198
252 271 288 275 244 246 253 224 222 207 210 132 182 168 168 122 147 109 140 141 145 138 136 134 152 168 142 106 166 110 150 133 143 140 167 150 149 146 152 159 159 161 163 157
257 249 260 280 282 276 244 249 238 222 228 210 206 72 178 156 156 151 147 145 143 128 118 132 138 135 152 165 147 163 200 215 167 146 133 158 159 151 145 161 156 163 152 147
255 262 266 254 265 279 288 280 263 250 244 258 108 128 206 198 183 141 153 113 149 147 121 141 136 143 142 144 145 153 224 210 126 170 158 130 153 156 150 145 141 152 151 149
306 263 249 252 262 262 272 278 295 291 246 244 261 279 235 234 202 200 156 160 141 149 149 148 146 137 145 142 131 142 180 212 185 161 179 165 155 158 148 150 142 152 144 145
296 302 307 310 324 288 269 266 272 277 293 310 283 247 266 272 224 222 223 195 163 145 127 137 142 144 149 151 144 142 141 158 179 187 175 187 164 158 150 147 144 145 164 146
294 298 294 304 313 309 303 312 306 306 268 276 298 325 245 247 285 275 177 243 188 157 149 114 127 151 134 142 133 143 144 139 204 146 198 190 184 176 157 146 156 151 142 150
289 287 280 291 292 291 290 292 294 302 316 328 322 302 300 314 234 251 288 155 231 249 153 148 130 132 111 116 144 153 160 136 132 142 151 176 177 192 162 155 152 158 154 159
255 271 271 269 282 279 279 278 277 293 297 267 330 345 353 363 323 324 132 282 277 240 235 144 143 142 115 143 161 124 157 151 134 126 135 187 198 198 161 155 145 144 150 151
284 269 260 264 275 277 277 278 276 278 285 286 299 318 347 365 382 259 363 201 106 298 103 96 152 146 154 119 130 109 160 118 151 113 124 137 136 209 169 176 155 142 148 154
279 275 289 335 266 270 282 283 274 280 278 282 280 279 316 329 217 368 89 425 342 287 298 261 249 224 152 151 145 142 116 155 150 160 147 132 142 152 196 164 186 149 150 143

GFSCGP_2pvu_pres_069.txt.gz
Presure
214 148 184 143 152 151 136 132 138 130 131 137 138 134 142 131 117 146 147 137 119 133 161 143 140 149 160 150 162 112 114 124 136 139 144 149 139 130 131 135 131 132 129 131
178 211 179 184 133 136 140 133 129 131 132 130 134 132 133 136 147 133 144 136 133 123 157 136 141 148 152 149 155 126 180 113 121 136 158 142 159 146 128 135 126 126 124 123
154 183 215 231 150 159 153 141 140 140 134 132 132 129 137 140 132 140 104 138 137 117 140 152 137 148 141 152 146 147 179 117 120 127 137 153 136 140 128 135 127 128 125 126
136 155 173 211 231 175 144 150 141 155 143 140 132 132 135 132 140 101 134 139 141 131 121 144 129 138 151 144 146 138 166 156 131 186 136 137 145 147 115 131 132 128 122 131
126 127 156 169 205 147 204 146 140 149 138 137 141 130 141 132 135 140 135 139 126 140 129 119 150 137 145 139 153 149 144 175 160 122 124 135 136 138 139 109 118 120 120 128
139 131 124 149 171 196 181 156 149 147 139 141 136 141 137 130 139 143 143 138 150 145 131 142 147 126 135 155 135 139 150 171 158 195 203 129 138 129 148 125 131 134 128 134
149 139 139 131 123 168 179 176 153 190 149 142 142 156 139 153 139 131 137 138 124 131 135 144 151 132 143 135 140 141 153 164 165 162 173 188 133 133 140 131 144 143 142 133
153 148 127 132 136 125 160 171 196 168 141 150 145 146 146 151 140 147 104 127 139 139 127 133 149 129 134 125 151 145 147 159 179 155 173 170 159 168 125 121 126 131 142 130
168 153 149 141 128 136 130 119 163 183 202 144 155 170 152 154 144 137 135 152 133 133 133 138 123 150 120 137 139 155 148 150 165 151 163 170 170 179 127 132 124 126 134 137
183 168 146 150 146 142 137 134 130 153 166 183 196 149 180 149 151 144 153 160 147 155 119 134 128 147 124 163 143 155 136 152 146 176 154 163 168 171 163 177 117 133 121 136
241 185 174 159 149 148 136 139 137 136 159 162 166 173 175 158 153 199 147 156 154 148 129 134 142 140 143 148 136 131 130 163 162 169 156 157 165 178 192 184 164 133 131 141
272 206 182 181 162 152 147 136 134 138 133 153 161 90 165 172 182 180 144 147 223 156 228 150 138 147 136 151 122 138 153 146 157 164 152 150 163 170 189 203 162 186 143 144
273 268 204 191 180 166 156 148 141 131 132 102 134 132 134 128 145 171 175 184 188 198 105 161 147 143 127 144 153 158 134 137 151 164 162 164 146 157 172 203 174 164 207 163
273 260 251 202 200 183 175 158 153 141 139 115 134 116 138 138 140 130 132 158 176 186 169 197 150 152 124 148 136 133 123 125 132 152 191 157 165 156 173 207 201 175 190 213
277 262 254 238 199 201 191 178 175 149 145 141 138 127 111 139 140 141 136 131 132 165 178 185 183 180 149 137 124 115 151 126 130 126 181 160 150 158 161 168 189 193 195 217
287 296 257 251 229 199 198 198 191 178 172 156 141 142 141 138 122 144 142 140 135 134 134 166 160 126 187 158 133 195 113 130 149 130 184 131 152 161 154 158 184 186 188 225
261 284 295 257 251 220 204 198 208 197 191 178 162 150 141 144 112 141 146 145 142 135 134 135 133 156 180 163 186 190 123 131 125 180 170 149 130 148 159 154 168 197 189 215
252 260 277 292 264 253 240 209 204 204 207 196 189 177 149 149 148 145 142 115 149 145 139 133 134 129 127 166 157 129 122 171 207 199 161 143 144 167 161 154 146 193 180 192
257 252 257 264 281 293 249 254 241 213 207 207 212 199 183 170 150 150 148 146 146 149 133 142 137 128 109 138 115 179 123 148 187 163 130 153 150 149 148 159 154 154 160 166
256 271 260 255 261 267 278 301 287 254 252 216 211 210 210 203 174 166 155 145 141 100 147 143 142 143 143 137 127 143 156 144 187 112 158 151 143 147 127 165 157 150 152 168
263 255 258 267 273 268 263 266 280 299 310 247 247 229 221 214 206 199 158 171 165 136 128 132 144 139 145 133 144 146 137 142 158 184 184 152 163 133 161 129 162 153 151 152
296 296 290 276 261 255 263 275 273 270 277 294 311 299 261 245 230 182 211 196 189 147 166 144 140 148 134 146 141 135 143 139 137 144 186 187 213 178 158 164 150 160 152 150
288 289 291 291 300 302 302 300 267 269 270 275 279 287 303 308 282 260 250 236 224 207 201 131 144 153 145 152 136 128 144 146 147 153 135 159 225 183 155 171 159 161 158 155
284 281 283 286 292 295 293 299 296 316 318 320 277 272 280 285 297 307 299 263 248 127 236 188 202 162 155 146 136 136 153 154 147 138 138 125 174 221 183 167 163 162 147 158
254 262 271 283 284 281 280 284 291 287 295 299 304 305 310 318 290 286 209 153 258 267 236 229 233 212 146 150 144 144 158 157 159 132 150 132 134 146 163 197 186 168 159 152
280 283 296 276 268 277 282 279 279 288 293 289 288 297 298 304 302 308 329 336 293 306 295 112 255 237 232 175 187 157 158 153 143 158 127 137 152 142 151 198 193 195 168 152

GFSCGP_2pvu_pres_072.txt.gz
Presure
180 224 199 145 176 101 123 133 135 134 135 110 140 146 118 149 160 150 133 125 121 121 156 134 148 146 156 148 113 111 122 130 136 141 127 155 136 144 134 133 134 134 132 129
161 191 228 197 153 145 151 145 140 126 135 136 136 120 142 139 144 126 124 119 124 120 149 141 141 142 145 151 154 111 116 139 130 179 153 156 127 133 141 135 131 129 127 138
146 168 203 232 195 163 141 138 137 137 129 132 135 146 143 136 131 138 123 137 129 139 137 136 141 151 141 142 150 110 117 117 121 132 136 139 123 151 130 140 133 127 135 142
148 148 167 207 227 194 148 137 137 136 139 128 140 149 146 145 143 116 130 147 145 129 119 133 147 143 141 143 140 152 150 117 121 123 133 135 155 120 111 117 122 134 127 134
129 143 151 168 209 208 196 182 164 155 143 132 126 152 144 146 137 144 142 137 138 136 137 130 134 142 150 139 142 148 142 150 160 138 159 135 134 145 123 124 165 133 138 137
138 128 138 154 173 168 151 194 181 153 150 140 136 139 138 140 144 140 136 142 130 134 137 140 130 137 128 145 138 156 153 143 156 174 136 119 131 133 127 132 118 134 143 138
142 140 132 134 156 171 174 152 195 183 145 139 142 141 146 134 138 138 139 138 135 128 134 139 143 146 125 139 145 149 142 154 156 171 153 185 135 131 137 131 127 140 136 141
206 148 139 123 133 149 168 176 217 198 148 140 162 163 130 139 149 140 146 129 135 140 138 148 144 125 157 142 135 148 145 154 154 154 177 163 176 159 129 135 134 126 133 114
247 209 149 138 128 130 148 169 183 196 154 194 178 146 153 154 134 137 150 141 133 149 140 143 142 144 148 128 144 138 135 165 145 157 172 149 173 173 182 125 126 117 133 139
196 252 182 151 134 133 147 146 170 178 203 163 200 151 146 149 152 149 145 138 140 131 114 133 136 132 153 146 125 123 158 141 154 154 160 162 148 167 172 186 128 141 125 137
245 247 276 159 150 137 138 130 156 167 176 157 219 214 150 154 151 176 144 144 155 133 147 144 132 121 150 115 116 121 166 148 162 136 159 161 160 160 166 183 167 137 136 124
253 259 263 299 187 146 133 141 137 131 116 129 176 162 151 155 213 154 150 148 152 150 137 134 142 148 146 139 154 138 169 148 128 148 147 169 156 147 163 179 193 193 154 137
292 291 298 285 214 167 136 129 127 133 138 127 164 120 179 191 163 151 149 147 156 145 158 147 153 129 134 133 137 136 162 131 144 129 153 158 165 160 146 167 188 194 183 191
278 272 284 269 282 227 165 147 134 136 134 149 155 146 107 157 179 200 214 172 169 178 147 152 192 200 150 157 132 155 141 135 133 128 145 145 161 171 167 144 160 210 189 179
270 268 263 264 289 267 210 161 153 136 139 141 141 140 142 143 146 131 179 188 193 186 152 178 155 142 154 154 211 145 140 141 149 133 142 148 168 174 158 162 149 192 215 179
270 260 266 274 266 284 264 207 165 149 150 135 136 134 163 144 143 141 137 130 156 177 185 187 187 152 139 200 165 204 150 154 154 161 136 130 131 150 172 169 154 164 183 198
253 253 265 285 272 269 270 227 207 177 158 147 141 138 135 139 145 144 143 141 138 129 162 159 178 186 187 189 121 185 142 154 132 119 156 126 129 166 135 156 162 162 167 181
255 255 267 267 279 275 272 261 229 211 185 164 144 147 142 137 142 143 145 145 140 141 136 129 116 135 149 181 120 188 193 185 128 122 165 120 131 137 169 132 152 167 160 184
254 251 254 262 272 279 280 271 259 224 209 205 179 169 144 139 146 142 141 143 143 142 147 141 136 131 133 130 129 181 186 188 121 195 186 119 137 162 160 172 137 159 161 168
253 250 248 253 258 268 281 287 274 262 241 210 208 201 183 166 151 146 144 146 146 142 141 141 143 138 135 139 140 142 126 107 125 190 187 131 114 151 155 180 149 139 170 157
257 251 245 248 252 261 263 277 293 277 260 243 223 208 204 194 184 156 133 151 145 148 143 145 145 143 143 135 133 140 139 137 146 177 152 124 119 180 168 163 158 149 158 169
268 258 248 249 253 251 261 266 271 287 297 276 260 238 227 207 200 202 187 165 165 155 140 150 149 148 143 145 147 141 142 144 144 146 130 179 126 166 154 164 158 137 122 143
276 275 275 285 262 248 252 266 260 262 274 286 290 297 261 224 226 208 203 197 194 175 176 95 154 155 155 148 138 146 149 127 123 145 122 144 164 172 148 178 121 151 148 151
294 307 314 289 285 284 287 267 262 270 269 267 271 275 287 298 261 235 216 210 207 204 195 178 163 153 151 151 148 149 139 140 149 137 134 129 140 150 169 198 166 138 142 154
272 273 285 298 300 305 308 309 306 295 283 264 271 273 274 274 275 284 297 273 242 156 211 211 209 201 131 154 145 143 148 141 150 146 150 142 152 118 147 149 161 190 162 174
280 294 273 262 271 303 303 303 307 308 307 308 313 320 305 273 277 282 280 279 289 292 260 252 231 213 211 204 197 157 144 140 150 153 129 148 133 135 150 148 146 165 233 169

GFSCGP_2pvu_pres_075.txt.gz
Presure
173 195 236 138 148 150 137 129 122 109 125 131 133 115 107 126 124 152 182 147 141 138 131 142 137 150 149 119 159 111 168 159 158 126 131 137 142 135 134 129 130 129 134 142
144 180 213 228 117 156 148 143 141 132 134 146 135 134 114 144 134 141 173 143 131 133 135 138 133 140 141 147 119 114 122 136 152 138 141 148 132 129 123 130 130 125 141 139
152 149 148 219 212 174 135 129 143 132 140 134 135 138 138 135 124 150 168 144 120 129 127 142 140 135 140 150 140 116 121 118 131 142 184 150 148 141 121 131 138 115 134 118
128 152 145 184 222 221 173 112 141 143 133 134 137 143 143 136 142 143 159 137 120 129 127 134 128 142 138 140 136 135 111 130 115 123 129 172 169 124 132 124 124 135 130 120
131 127 152 148 179 217 77 102 153 142 147 108 141 131 141 140 135 121 155 125 130 131 127 131 145 144 138 138 141 148 140 154 122 120 126 164 135 154 141 117 128 167 138 131
153 132 127 153 150 177 225 216 179 170 136 144 140 148 134 136 134 146 141 133 130 148 123 135 124 140 133 142 141 143 149 136 143 151 155 133 133 133 136 133 134 135 155 121
210 139 132 133 154 152 173 220 203 177 171 159 154 155 150 129 141 142 142 142 131 149 147 137 131 137 127 138 141 139 145 145 141 158 155 145 121 125 132 136 151 135 148 130
226 217 145 134 137 153 150 174 218 194 175 164 145 134 133 142 124 135 143 147 146 144 143 142 139 122 127 134 136 143 142 143 148 141 153 165 147 160 127 128 133 124 132 136
251 251 204 146 134 132 143 154 174 143 226 176 164 151 141 144 148 129 150 146 143 137 136 146 134 139 146 125 140 137 136 147 139 152 147 150 168 149 166 133 159 128 125 133
219 220 255 209 136 134 128 139 113 175 208 222 197 173 154 151 151 129 134 139 130 145 136 132 139 146 142 145 146 135 136 135 142 149 143 148 150 160 154 162 168 153 113 138
247 256 261 226 197 135 134 128 149 157 173 199 195 198 111 159 150 147 145 131 141 145 125 130 136 143 138 151 132 148 143 139 145 142 149 142 156 149 158 156 164 178 177 142
241 218 239 153 198 212 140 134 118 152 153 171 187 210 198 185 170 156 142 113 155 134 135 141 140 132 108 146 150 156 161 121 130 153 157 145 145 148 167 156 156 170 198 182
245 240 238 180 260 252 217 142 140 128 150 138 169 187 152 165 198 169 154 160 136 156 146 143 149 141 123 130 125 133 146 118 136 147 159 137 139 156 168 161 149 154 188 182
210 240 242 247 247 196 246 193 142 134 134 131 165 141 174 189 216 222 190 188 156 146 137 153 143 143 120 152 148 140 140 116 144 127 147 147 131 138 158 155 163 144 155 188
239 240 239 249 246 242 241 250 156 127 139 143 158 118 173 180 182 183 169 226 208 156 162 153 154 144 145 127 144 146 142 153 136 132 135 133 142 148 139 147 162 162 145 142
243 239 238 236 231 226 229 238 244 204 145 96 135 120 128 96 155 171 188 169 217 225 152 150 151 153 152 157 156 147 115 123 157 118 132 131 147 139 140 141 161 171 166 157
307 312 296 239 236 238 242 246 246 249 208 154 142 123 157 147 154 159 135 176 190 165 158 174 148 146 149 149 151 153 150 138 125 154 155 143 140 140 133 138 158 166 180 163
293 293 293 271 267 278 279 291 261 284 305 208 143 97 142 134 141 145 142 130 143 183 181 188 199 217 182 147 173 143 159 147 149 172 231 184 150 151 131 130 137 139 161 162
280 280 274 274 272 260 257 263 273 264 285 275 274 142 135 142 144 135 143 146 142 130 127 173 180 191 199 204 202 197 192 189 185 187 169 187 196 123 127 152 131 140 142 143
269 268 265 263 264 263 260 250 255 265 256 275 274 275 158 90 140 150 145 150 149 145 142 132 127 127 176 181 189 191 191 186 186 187 178 109 200 109 140 128 132 137 148 127
262 261 259 259 259 261 260 252 253 254 254 262 271 277 232 199 163 141 145 146 147 123 143 145 144 135 129 127 133 173 177 179 183 186 185 186 139 128 133 133 149 201 138 155
269 266 260 254 254 255 252 255 259 259 263 263 261 274 279 258 196 165 160 148 155 149 144 136 143 143 142 133 138 136 111 130 140 178 179 179 157 125 134 195 118 199 142 166
275 271 269 268 252 257 252 254 258 263 270 279 275 273 272 279 261 212 200 139 152 97 154 150 148 146 144 144 141 134 142 141 138 138 139 150 116 178 176 186 127 125 144 150
304 304 283 272 274 264 250 257 257 257 258 263 271 283 289 290 284 273 225 209 200 178 175 155 154 151 149 147 144 136 144 146 144 137 143 143 131 145 122 169 189 121 172 197
308 294 301 314 295 280 269 263 258 257 251 254 258 265 270 279 293 294 283 261 214 209 205 187 163 176 157 152 152 145 145 146 146 149 134 148 136 128 141 151 154 115 167 114
364 310 291 286 288 298 314 312 289 275 263 256 252 254 258 265 272 283 297 299 283 260 213 211 216 210 202 187 165 155 151 150 146 148 148 150 151 136 144 130 140 130 170 184

GFSCGP_2pvu_pres_078.txt.gz
Presure
135 149 169 175 177 136 146 135 131 134 138 120 120 128 120 153 128 133 137 126 127 135 136 135 137 146 140 147 159 112 150 163 142 137 139 128 137 127 131 121 132 124 124 148
147 142 157 179 150 144 159 141 140 123 130 130 125 133 139 138 134 116 118 136 136 137 139 137 147 147 148 141 127 137 111 141 154 135 216 166 150 139 120 122 148 132 118 132
149 148 143 175 175 230 184 148 141 142 106 140 99 134 137 131 116 120 129 154 140 149 141 145 136 147 137 149 140 125 116 123 154 127 136 157 144 120 123 121 130 147 118 131
135 153 154 143 170 185 234 134 144 134 129 108 126 125 132 140 115 139 120 158 139 128 130 128 139 144 130 138 150 139 127 138 117 118 129 131 180 161 146 127 136 128 146 120
124 136 152 153 146 169 101 191 157 138 148 140 138 134 145 113 136 132 125 154 138 146 127 125 124 129 139 142 138 139 145 139 126 120 123 125 132 138 165 138 145 131 140 119
162 127 131 153 144 128 177 213 183 144 140 141 149 140 137 135 135 124 140 148 145 158 118 131 123 127 135 143 137 139 143 150 139 145 138 121 124 143 134 144 156 157 132 126
201 168 126 133 155 161 146 190 179 180 158 151 144 142 140 142 135 114 181 136 140 147 119 128 126 123 138 130 137 135 136 147 149 140 142 165 144 121 127 134 133 170 148 127
162 150 203 133 136 157 150 148 197 208 99 172 156 157 151 140 138 164 161 227 131 154 126 123 154 117 116 122 138 128 136 141 142 150 148 155 157 149 143 130 159 130 130 123
233 155 196 203 138 137 134 180 148 198 132 179 182 97 141 144 137 153 130 133 145 120 143 115 124 142 142 124 124 140 132 136 150 142 145 147 148 151 164 151 160 138 189 182
216 218 226 185 208 139 149 142 156 147 192 224 191 147 114 144 140 141 156 133 142 145 107 131 114 139 130 140 137 131 126 141 139 142 137 146 147 156 148 156 149 159 161 179
206 204 211 226 234 205 135 134 157 148 150 173 209 231 185 166 148 115 149 147 136 138 138 130 143 119 154 164 136 144 137 131 143 136 142 146 139 146 156 149 151 158 154 119
207 206 209 201 220 228 208 138 136 137 155 149 89 185 90 178 175 147 141 129 150 146 144 138 136 103 155 165 159 130 130 144 141 142 131 136 152 146 140 145 144 169 153 152
230 208 211 206 206 223 233 150 157 139 137 145 154 169 184 108 88 178 173 143 132 145 128 137 130 133 129 123 157 227 133 149 139 149 147 135 145 152 146 154 154 162 159 151
225 203 213 218 207 222 238 223 223 164 109 111 151 118 153 182 217 216 140 165 149 120 150 132 131 138 138 135 121 134 122 142 159 165 120 119 132 163 144 143 139 149 149 154
237 231 202 217 218 226 217 218 242 233 191 141 151 122 160 161 175 193 227 222 169 158 120 153 144 142 139 135 133 131 118 138 123 153 116 125 137 325 135 127 157 156 159 161
241 241 240 234 206 205 202 213 209 238 256 208 209 144 118 137 149 181 185 205 230 195 171 166 147 138 150 150 142 110 131 141 158 150 113 142 105 131 140 137 147 139 139 149
236 236 242 241 243 215 208 204 244 240 234 190 187 161 125 115 130 156 169 175 196 204 223 151 173 150 149 150 153 152 157 134 161 128 162 144 129 131 136 129 135 135 151 136
254 236 237 235 242 249 238 237 238 235 230 241 251 252 151 137 113 137 143 159 171 182 201 221 219 179 150 154 157 153 146 144 160 120 140 116 151 134 124 133 131 143 146 139
294 301 237 235 237 243 243 241 241 236 234 238 237 250 257 135 106 123 142 138 148 176 178 187 197 217 153 220 161 151 152 137 156 158 124 134 121 150 148 147 125 148 133 136
309 296 298 290 242 237 235 232 235 203 238 210 217 212 251 101 132 95 148 138 92 141 163 175 184 189 197 203 220 160 158 143 145 138 148 151 151 124 152 154 127 145 132 133
275 286 288 293 303 313 299 261 242 242 243 244 242 247 250 241 250 248 145 148 151 147 134 130 174 181 181 190 199 205 196 156 159 224 222 146 152 156 150 182 178 161 209 132
272 277 274 282 285 288 301 282 274 266 249 233 234 238 246 249 142 249 248 191 154 146 154 140 138 134 160 182 180 191 196 197 200 203 213 217 195 160 198 191 194 179 166 129
268 266 273 263 274 279 289 273 257 261 261 267 275 269 274 287 283 286 272 303 195 158 154 146 147 142 144 132 125 132 181 184 191 194 196 202 206 203 196 187 144 188 193 135
311 318 268 271 274 271 275 277 266 265 255 251 170 260 266 270 264 272 285 296 279 183 153 160 142 142 143 143 148 145 137 128 126 132 122 160 196 196 194 120 186 175 187 144
301 333 342 315 276 277 274 269 266 264 274 255 247 243 248 253 258 260 268 276 286 278 282 222 136 158 149 147 148 162 157 149 147 143 143 138 139 140 178 179 180 181 166 186
287 312 313 386 310 313 280 281 265 262 263 263 265 261 253 248 249 250 252 260 265 274 281 261 261 166 158 157 152 150 145 141 146 151 151 144 138 143 128 136 140 155 167 177

GFSCGP_2pvu_pres_081.txt.gz
Presure
172 145 183 165 171 158 137 132 119 124 138 121 124 129 129 126 119 118 131 135 131 132 131 148 138 137 137 144 148 154 152 119 128 163 211 167 156 120 159 123 154 121 138 161
149 156 146 154 169 167 161 150 133 140 120 138 114 124 130 130 155 177 136 119 121 127 129 134 147 144 142 140 140 145 112 147 126 129 135 141 145 125 121 121 125 140 123 146
143 152 141 150 151 162 164 159 154 141 119 132 129 118 128 119 119 147 140 117 132 142 137 138 137 146 136 140 146 141 141 124 138 117 126 131 179 137 144 140 120 148 118 131
124 138 153 140 145 148 158 111 160 161 148 141 122 124 130 117 134 132 131 122 149 129 148 143 141 132 137 133 135 149 153 138 152 126 122 130 157 181 144 164 132 129 161 122
175 122 144 148 147 146 147 161 172 168 146 136 137 114 112 133 132 145 118 135 127 150 171 142 137 132 132 131 144 138 138 152 124 144 131 124 128 128 127 132 133 166 124 121
145 172 126 154 151 146 148 159 123 160 176 170 129 127 110 103 131 133 110 142 147 157 135 145 131 122 125 133 130 139 136 139 142 140 136 149 154 140 124 123 154 146 129 126
183 144 167 132 157 148 154 149 159 179 212 152 161 148 148 141 120 128 129 265 142 144 140 152 130 121 123 125 129 132 141 133 138 141 146 149 157 159 152 141 151 132 127 118
181 182 144 176 133 145 140 157 148 166 170 228 174 125 146 124 136 134 120 125 120 130 143 140 144 120 133 127 127 126 133 138 133 141 135 143 150 152 149 159 153 151 156 140
215 153 204 155 178 134 133 137 162 101 91 179 226 180 138 142 146 140 133 117 134 187 144 143 155 127 132 122 122 125 125 134 143 129 141 138 139 148 156 148 161 144 157 157
220 232 184 162 153 181 176 131 97 156 152 172 196 213 170 134 117 144 146 128 142 138 137 155 139 130 129 132 138 136 137 125 133 134 135 134 142 136 144 141 150 146 141 155
215 217 229 208 163 180 142 186 92 159 153 148 172 77 148 157 128 142 147 134 143 136 167 127 144 123 140 152 124 132 143 134 128 127 131 141 133 138 141 141 139 138 147 161
214 216 218 80 226 161 144 152 186 130 67 162 154 119 103 154 169 163 159 151 144 131 174 181 116 131 151 136 113 131 153 136 105 165 134 132 146 132 137 143 147 138 138 149
201 220 211 222 222 223 220 149 172 188 141 140 166 166 179 217 177 174 171 112 159 144 126 127 128 133 107 142 129 125 157 162 175 159 143 137 140 149 138 139 147 140 145 146
225 212 214 207 213 216 219 213 172 162 200 153 142 140 122 156 220 179 180 173 159 163 145 145 136 131 137 120 126 144 147 126 108 122 140 172 187 147 125 135 148 149 201 141
213 231 216 223 212 207 216 222 223 197 136 175 149 126 138 85 84 94 96 90 171 132 132 146 145 139 122 133 145 127 119 176 161 139 130 163 170 125 125 131 163 161 157 137
242 226 232 209 213 213 210 197 209 211 221 194 162 143 153 83 105 152 198 208 183 175 172 146 156 153 142 139 142 139 157 136 145 142 148 136 146 155 119 126 158 128 142 148
240 247 236 214 223 209 207 206 201 210 213 219 227 236 209 115 127 150 155 159 197 210 197 180 154 151 127 143 131 133 124 132 123 111 107 138 128 134 147 139 131 130 141 137
240 243 245 237 228 198 202 196 203 210 207 206 208 215 235 247 133 133 80 148 151 157 204 219 214 179 146 121 144 145 141 143 126 150 119 127 116 122 133 121 116 133 143 142
240 240 235 244 245 240 202 209 201 195 205 207 208 213 219 237 241 149 136 141 147 153 162 169 202 149 190 166 156 148 148 151 121 148 121 122 149 125 112 139 135 151 143 127
311 262 241 235 240 244 246 243 189 211 196 211 219 211 212 225 244 128 103 128 115 137 154 160 177 188 205 232 193 168 161 159 154 155 154 133 123 131 157 166 161 159 165 125
315 304 307 269 243 238 240 245 244 239 239 227 223 220 222 184 180 235 245 196 118 141 138 139 156 166 177 189 208 231 203 158 169 161 157 152 142 128 135 127 130 150 125 135
277 291 309 299 304 289 245 238 241 246 246 241 237 241 232 196 213 218 240 242 149 217 144 144 151 148 161 176 179 193 214 222 203 184 174 158 165 139 145 133 140 149 148 143
266 269 273 288 297 305 306 282 246 238 236 245 245 241 248 244 242 238 244 237 106 141 107 143 156 139 144 152 161 168 180 195 208 219 215 209 187 169 186 152 147 132 130 135
315 310 276 270 280 290 303 295 303 299 262 245 242 244 245 249 178 248 253 251 244 239 244 116 151 124 144 131 140 151 158 174 182 190 197 203 212 171 213 164 155 156 160 187
285 317 311 308 306 278 281 292 296 294 296 289 279 253 246 244 243 245 245 255 254 244 248 235 224 263 173 130 136 135 134 152 160 179 184 187 192 194 196 203 207 212 213 210
250 278 288 310 303 340 340 284 281 288 284 299 295 291 281 285 284 275 272 255 250 250 253 241 239 259 264 222 147 147 145 146 138 143 153 179 185 184 189 184 194 198 196 195

GFSCGP_2pvu_pres_084.txt.gz
Presure
138 155 165 159 140 139 140 136 138 136 141 121 124 129 132 133 163 124 146 133 131 127 134 129 144 130 141 135 148 145 134 127 126 128 134 135 144 117 123 119 126 129 155 168
177 141 149 161 178 144 136 142 139 135 112 123 123 126 128 136 128 150 137 132 132 127 126 124 132 136 144 142 143 143 141 115 123 125 135 152 132 162 165 121 171 128 134 152
153 171 148 149 159 172 163 140 142 126 118 125 140 122 131 103 146 113 119 119 122 122 125 126 128 134 132 139 135 149 141 139 137 131 124 125 122 130 147 133 136 110 136 152
152 139 156 143 145 157 158 163 123 148 141 126 120 122 118 129 127 158 155 168 130 127 131 144 131 138 138 130 137 136 136 149 146 122 145 149 161 125 147 130 143 127 138 173
165 132 152 156 145 162 160 183 161 158 146 140 140 116 128 123 129 105 120 145 151 116 138 128 141 135 136 139 139 141 146 135 141 143 129 133 159 155 146 164 164 143 127 124
142 177 134 114 153 161 172 178 182 166 136 157 152 152 131 118 137 140 120 123 130 146 130 153 138 139 136 135 135 129 134 145 137 143 142 147 148 108 157 144 153 155 120 141
173 167 145 140 123 150 146 154 157 162 165 160 153 151 117 132 109 111 118 124 131 120 125 130 141 141 128 128 129 132 136 135 140 127 137 137 143 150 143 155 160 152 159 155
188 189 156 148 134 127 152 142 148 154 156 160 164 135 128 135 117 130 116 129 142 137 144 141 128 152 141 126 126 126 128 134 139 142 129 135 137 139 139 151 149 151 151 156
168 184 151 159 147 150 126 144 158 152 154 155 164 106 162 159 158 132 106 144 146 119 123 134 133 137 144 135 125 128 131 126 134 138 141 131 134 140 135 137 143 112 149 155
218 209 190 190 166 152 152 129 120 157 148 150 163 156 140 168 164 162 132 135 140 144 134 127 134 139 140 161 132 129 129 139 132 133 139 135 134 132 134 144 138 144 141 128
209 174 191 190 165 161 152 143 145 144 153 153 144 158 159 160 167 148 165 133 121 139 130 132 145 154 125 140 157 126 130 130 135 136 134 146 127 139 134 139 142 139 137 143
207 205 212 221 203 148 184 185 141 164 127 84 152 91 86 150 170 169 168 121 155 94 139 127 129 136 149 130 107 148 128 125 133 134 167 173 128 134 132 139 136 148 143 140
217 220 203 202 217 188 75 198 188 148 163 126 127 152 146 156 170 161 126 138 162 150 138 111 140 135 134 156 145 134 138 152 151 136 155 152 131 156 148 141 153 141 145 141
245 203 223 206 207 222 230 221 157 180 170 157 145 135 152 89 136 166 121 194 178 138 109 142 117 125 120 151 144 129 149 118 127 145 156 171 188 159 138 135 145 169 134 154
240 241 207 219 206 206 219 224 222 173 164 213 147 146 124 157 149 152 167 96 209 176 151 147 147 140 134 139 156 103 138 138 145 144 153 131 120 135 136 174 138 145 134 142
223 240 240 204 203 216 204 223 220 214 222 160 155 136 161 141 126 153 150 159 219 193 172 168 163 157 132 122 132 133 139 100 138 145 141 132 155 126 126 147 176 158 136 144
259 224 232 240 206 196 218 217 209 226 229 233 217 141 145 148 127 128 143 87 157 206 132 176 122 163 146 140 134 138 140 146 147 143 144 153 124 144 152 169 160 147 133 170
247 256 253 227 233 211 204 218 220 216 224 233 236 225 188 137 190 151 99 92 127 121 204 197 169 146 108 155 152 140 141 125 135 117 131 131 133 149 153 138 141 139 167 123
243 244 250 249 221 230 234 222 204 132 212 225 229 231 230 223 170 197 145 126 137 94 152 132 221 175 179 171 157 132 149 152 121 145 146 136 143 153 125 132 143 137 145 123
247 244 244 246 246 221 222 238 222 201 209 216 215 223 219 219 230 223 134 136 153 134 165 158 158 204 210 198 145 168 157 140 159 152 145 136 153 121 124 123 123 119 130 131
309 301 245 241 245 247 244 231 224 219 215 215 222 212 209 216 224 223 234 220 143 133 138 134 175 156 182 177 211 196 174 165 152 126 147 126 145 127 109 131 123 125 132 128
284 300 309 307 246 235 246 244 245 246 229 218 220 216 215 211 223 221 214 90 123 176 193 155 122 140 152 161 172 202 210 232 180 172 164 157 159 136 156 148 149 125 155 131
293 283 281 291 318 290 246 233 236 249 249 251 238 219 215 221 214 209 215 81 225 107 226 230 171 166 120 137 152 165 160 173 209 230 203 180 162 163 160 157 126 162 156 131
299 300 311 335 291 289 302 316 253 241 244 251 251 255 247 212 230 228 207 208 212 219 217 199 226 143 166 128 139 141 152 153 161 171 203 222 204 185 172 169 164 167 169 177
281 265 288 290 291 301 304 279 288 312 285 254 247 246 254 256 251 210 214 238 225 207 164 226 226 224 166 144 115 124 133 149 154 154 160 170 197 224 210 195 187 183 173 167
270 259 275 269 281 291 280 306 334 283 282 303 319 276 258 253 254 254 246 243 229 202 199 207 232 233 145 241 226 252 139 124 143 139 156 154 160 170 188 201 218 215 209 199

GFSCGP_2pvu_pres_087.txt.gz
Presure
135 149 147 145 135 132 138 134 124 134 146 117 123 126 131 129 115 132 127 125 135 127 141 133 125 144 137 142 145 143 140 120 157 130 130 154 165 136 129 141 127 151 165 141
137 135 151 150 153 141 133 132 135 125 115 116 139 126 125 122 130 125 149 143 134 130 125 130 130 134 125 144 140 112 147 140 134 156 171 124 173 135 142 144 124 141 151 152
135 150 140 150 155 153 145 137 137 136 118 132 123 112 131 129 123 142 130 159 141 136 137 129 130 132 141 130 142 134 126 145 146 121 140 159 163 148 122 166 128 127 153 154
135 126 148 138 151 157 149 145 142 139 136 138 124 142 126 124 133 115 114 134 146 129 131 124 128 128 134 141 142 133 142 123 140 128 135 144 150 163 156 156 162 122 130 138
157 140 118 151 140 161 169 155 149 144 146 135 118 134 125 126 120 134 147 136 159 151 120 124 133 143 140 140 141 144 139 136 135 138 142 143 148 150 157 153 163 152 128 126
157 136 135 122 172 142 174 168 161 143 141 141 130 141 117 131 122 132 142 149 143 162 150 128 127 138 130 147 138 142 134 132 140 133 139 141 140 151 150 157 149 153 163 136
161 150 146 150 148 166 144 146 159 166 154 148 147 141 130 126 124 130 124 120 123 121 153 135 138 130 132 144 142 133 129 135 132 137 133 138 142 141 144 149 156 154 149 162
158 156 150 131 154 142 126 167 143 149 168 167 162 121 145 132 125 126 130 123 123 125 124 125 128 126 149 124 144 138 137 133 131 139 140 114 135 143 141 142 148 146 153 154
194 183 158 146 142 172 118 150 172 142 151 156 136 161 115 145 129 133 130 130 138 144 126 131 134 126 134 134 138 157 137 131 133 132 137 138 140 111 140 142 142 143 146 155
213 192 192 157 148 152 169 113 147 147 143 157 158 166 173 122 146 157 150 122 109 118 118 127 130 137 143 126 123 140 149 138 134 139 126 134 141 140 136 113 140 142 150 137
194 211 189 194 161 157 161 164 119 127 147 162 166 169 176 165 166 161 159 116 153 110 114 128 120 127 131 136 135 141 140 147 147 139 136 129 129 143 147 141 146 140 145 150
79 141 90 198 196 191 172 152 157 134 124 147 148 149 170 160 161 104 167 118 146 154 116 124 129 141 135 122 131 138 128 130 138 156 133 141 147 150 168 132 133 143 161 163
228 209 84 186 203 198 194 166 169 146 133 113 123 110 141 151 123 171 140 128 167 166 158 147 131 127 124 125 127 135 142 166 154 126 146 150 128 132 142 158 146 143 145 145
237 222 212 216 212 208 160 184 192 171 152 149 117 124 107 144 147 151 154 131 163 118 165 164 118 133 148 112 134 131 153 154 152 179 176 150 142 158 168 124 161 166 137 169
240 229 209 213 212 213 215 186 167 189 178 156 119 136 132 117 95 149 150 112 161 160 160 125 167 120 131 110 141 123 134 134 137 138 150 123 156 138 134 162 169 133 139 156
242 237 227 222 211 202 214 220 229 169 187 186 150 137 134 135 125 142 147 102 154 159 96 166 168 131 169 127 129 131 129 106 109 137 146 156 139 149 121 136 122 130 148 156
229 240 235 227 229 208 213 215 215 144 175 161 190 181 150 141 154 83 131 141 94 151 158 163 149 145 172 162 144 151 132 129 140 137 136 158 131 137 125 148 125 159 156 161
258 223 237 240 241 240 213 213 206 210 220 232 171 144 161 173 162 115 151 133 131 146 159 156 161 173 140 180 171 131 140 137 125 141 142 136 103 126 146 125 155 166 137 135
248 254 219 217 234 243 245 205 155 204 212 212 216 233 142 143 167 176 177 165 154 127 149 95 97 158 123 167 202 179 137 150 148 125 140 127 139 138 150 126 173 121 156 160
241 244 256 250 212 227 237 239 227 200 217 218 212 210 233 234 144 154 169 183 161 147 137 131 145 158 100 130 171 236 186 172 126 153 161 134 145 147 154 136 143 128 146 162
252 239 235 239 247 252 225 230 237 242 213 205 218 218 214 212 230 228 213 154 162 139 139 125 142 142 150 164 158 160 230 195 177 169 164 164 162 141 156 159 158 150 159 162
300 305 256 239 239 241 246 213 228 241 241 246 186 208 206 218 217 211 229 229 222 193 146 153 166 113 137 142 147 198 162 208 206 176 174 161 142 142 142 137 146 157 142 142
303 295 295 310 291 241 237 243 250 225 222 257 233 237 203 204 202 218 219 224 233 129 229 207 200 152 134 138 131 152 159 154 153 215 194 166 173 173 170 171 166 138 166 139
290 288 325 332 311 300 300 243 242 245 249 248 241 237 226 225 222 210 210 220 226 227 211 241 231 216 163 159 176 180 140 147 164 185 150 153 195 188 179 178 174 170 169 169
269 274 283 284 290 310 315 306 268 243 235 240 249 252 257 233 229 223 218 214 170 229 229 172 155 153 224 215 158 150 152 185 140 143 153 172 179 159 207 201 197 180 172 173
251 259 265 260 271 281 277 292 310 314 311 259 247 236 249 258 232 238 247 234 207 122 180 223 224 225 230 117 236 224 209 188 169 137 147 134 147 152 164 161 172 204 203 197

GFSCGP_2pvu_pres_090.txt.gz
Presure
136 150 142 136 132 124 126 129 130 125 116 115 122 130 133 125 129 133 134 166 140 132 135 141 125 131 138 141 127 148 152 140 139 154 174 157 131 144 130 132 163 160 167 137
133 156 151 147 133 136 134 118 132 128 115 119 129 121 131 133 138 128 125 135 140 133 132 124 133 131 129 134 118 132 140 148 141 137 134 165 138 129 147 133 139 166 158 141
137 140 142 155 146 135 137 129 140 135 124 121 130 129 126 127 129 132 137 127 145 147 140 143 136 127 131 139 133 136 139 138 133 123 142 157 137 157 160 135 129 129 140 154
129 132 141 163 149 146 134 132 134 133 138 127 123 132 141 125 127 132 130 141 133 132 161 132 133 125 133 132 138 144 139 121 136 143 139 148 157 155 158 139 160 154 135 170
141 125 133 139 141 149 150 148 135 135 132 137 123 130 142 122 127 127 131 136 127 121 158 131 131 125 135 140 148 136 144 138 137 139 143 141 150 147 154 153 162 150 162 138
142 145 128 132 171 137 145 151 146 144 136 139 138 122 116 133 126 131 119 131 123 143 130 148 145 127 135 140 132 136 136 136 132 142 139 142 139 143 147 156 149 129 141 160
163 140 153 130 121 168 138 134 146 150 146 142 141 139 117 134 115 139 134 125 125 123 149 133 155 156 124 130 128 137 135 131 132 137 138 136 139 142 133 147 145 158 152 147
163 152 142 160 131 121 141 135 138 140 145 147 139 142 141 140 117 128 130 118 114 111 143 137 135 159 117 126 140 125 135 144 137 135 132 135 129 142 139 135 140 149 155 151
226 148 151 149 133 137 119 157 141 137 149 152 149 146 149 147 136 124 125 114 127 133 140 131 124 122 125 131 126 126 144 131 140 142 130 132 138 142 140 139 137 142 142 152
225 210 162 160 149 162 133 125 127 153 151 148 153 156 152 147 144 147 127 128 130 136 122 122 127 123 128 131 128 135 138 133 135 150 150 126 127 126 136 132 133 148 140 117
118 223 214 182 167 160 163 129 142 149 104 146 142 144 164 130 142 152 147 145 140 129 129 130 131 127 126 129 133 132 124 137 137 136 144 143 136 143 131 132 134 123 133 168
229 212 222 201 193 161 154 158 126 148 142 127 150 140 143 158 162 119 160 119 117 120 125 137 116 139 139 115 131 128 134 140 131 138 135 133 136 126 155 132 133 125 172 159
220 170 89 221 216 145 199 144 153 151 158 119 136 169 172 145 142 152 166 155 159 160 123 124 143 122 120 119 120 131 132 128 139 125 139 152 143 157 130 138 171 147 129 159
237 234 211 154 215 219 185 180 151 151 144 153 127 123 163 122 153 145 151 154 153 159 107 148 139 123 138 133 128 128 132 135 136 141 133 144 143 126 168 160 143 141 124 158
236 233 190 175 117 213 223 203 182 148 148 144 140 158 123 130 156 166 147 144 151 159 132 171 169 165 131 156 122 138 132 130 142 142 144 132 119 163 147 152 151 140 149 169
239 234 237 235 218 216 221 218 211 183 143 149 149 140 158 150 119 84 142 144 146 104 105 174 170 168 131 135 165 165 116 121 112 139 136 141 143 145 135 125 151 166 135 152
251 238 233 241 239 229 214 220 219 218 188 172 121 152 146 159 151 122 109 135 161 146 145 151 155 158 161 169 137 125 162 120 129 148 141 134 124 125 148 128 148 155 143 143
253 247 223 234 243 242 232 218 213 219 217 204 172 166 155 97 152 155 138 109 134 86 120 98 147 152 155 156 162 167 173 156 145 164 145 135 126 117 111 144 155 119 153 142
239 251 251 249 224 242 240 233 217 209 215 217 216 166 191 178 160 155 136 159 132 131 131 143 142 146 156 153 159 165 168 172 124 139 174 151 127 142 149 138 112 116 149 147
236 243 250 255 257 225 234 242 230 225 207 213 212 215 217 160 187 180 176 161 156 133 145 114 130 138 145 153 153 153 154 164 170 142 184 179 133 122 130 149 149 151 153 150
240 237 239 249 254 255 230 224 241 242 224 211 213 215 213 206 214 176 182 157 178 160 165 164 147 132 148 106 149 152 148 151 156 161 172 192 176 182 155 147 156 146 161 135
323 274 242 239 242 247 252 238 218 242 244 224 191 172 208 207 214 221 197 189 166 174 166 187 167 140 134 116 128 139 148 152 156 135 123 152 165 146 188 160 180 149 170 170
294 309 311 295 244 238 240 247 251 250 235 241 232 225 226 210 204 213 220 218 208 146 166 193 162 180 181 146 149 112 113 157 135 150 152 153 154 154 154 112 172 195 183 148
294 296 300 312 307 306 249 239 239 249 254 214 250 264 249 239 225 211 207 210 210 211 222 232 157 204 159 157 179 186 149 131 133 162 162 153 151 154 144 170 150 138 198 192
268 274 282 292 296 304 332 303 248 239 245 248 250 222 226 252 249 240 211 211 204 204 213 215 215 226 237 198 154 157 174 203 174 146 152 143 139 157 153 151 152 170 146 183
245 255 256 264 273 286 284 289 307 314 295 235 236 248 242 246 247 256 255 243 232 215 213 213 212 128 222 225 238 234 225 94 158 156 168 153 143 145 132 155 141 152 142 168

GFSCGP_2pvu_pres_093.txt.gz
Presure
148 141 141 142 135 129 127 132 122 124 120 130 119 123 138 134 118 132 129 151 140 138 138 136 129 135 135 141 140 120 137 146 121 115 156 166 143 169 129 141 165 132 130 148
138 151 143 143 142 137 129 121 124 132 118 101 121 131 168 132 125 132 127 130 160 140 135 134 132 131 138 128 139 115 133 137 139 143 157 137 137 170 152 130 135 159 160 151
134 147 156 145 143 133 134 135 127 138 124 127 123 126 124 131 133 140 128 126 127 145 151 141 132 125 131 140 137 126 139 134 120 139 147 147 157 150 151 145 167 135 144 167
127 122 146 156 148 143 135 136 134 134 128 125 132 119 131 139 125 127 115 126 130 142 140 159 132 129 131 140 144 138 143 135 137 135 140 149 144 151 159 152 161 158 143 193
149 130 124 146 143 154 146 143 130 138 124 117 125 115 113 119 122 123 119 128 129 135 134 124 163 122 127 133 137 140 143 135 141 136 135 139 141 144 152 147 141 152 146 136
137 151 141 123 143 154 152 143 145 137 138 137 124 113 137 133 125 128 123 127 126 137 134 127 142 134 125 135 137 133 130 145 137 138 137 134 136 127 141 146 151 153 135 148
153 137 140 126 157 143 150 137 142 143 146 144 124 138 148 142 129 129 137 131 128 131 127 127 132 142 132 142 137 131 137 144 143 139 138 130 137 132 129 137 139 142 141 147
173 154 142 149 131 146 126 154 135 140 141 145 146 144 139 126 132 118 123 127 125 110 126 133 122 137 143 157 125 148 140 157 138 141 126 140 133 135 140 136 134 139 131 147
220 171 156 150 138 134 131 126 147 140 136 152 149 148 148 147 143 134 124 131 128 132 131 127 129 134 145 141 133 129 130 124 136 147 133 139 135 138 129 128 146 139 128 169
227 217 174 155 152 145 139 104 130 141 144 137 144 149 152 150 150 147 136 143 120 136 116 121 121 145 143 135 132 131 131 133 134 138 146 141 145 140 138 135 122 131 110 160
230 215 221 171 156 147 149 131 126 145 138 147 141 140 145 154 154 155 152 127 131 123 128 122 126 133 140 124 123 132 125 135 139 128 141 141 142 126 123 130 143 131 119 140
251 223 245 222 176 155 86 143 129 134 124 124 139 141 141 135 142 150 155 157 149 129 127 124 124 125 147 126 132 126 129 125 131 120 138 149 141 128 126 137 137 122 147 133
252 249 207 245 230 174 156 142 150 134 132 120 120 165 140 143 140 143 147 151 155 155 150 145 129 129 123 134 127 133 125 120 127 135 134 136 130 133 130 145 150 131 132 127
255 249 210 211 224 188 181 150 140 119 155 133 133 139 141 164 155 145 141 140 149 159 165 162 133 139 128 113 134 113 120 119 126 134 132 130 137 140 142 142 125 154 169 145
250 254 248 234 247 222 176 176 148 140 146 155 154 137 142 136 142 160 162 143 141 142 153 162 168 165 120 129 123 129 141 120 132 132 129 135 132 143 133 131 144 148 136 160
262 258 253 248 242 249 221 221 186 154 143 143 151 155 134 137 145 135 143 164 164 161 144 144 151 160 165 123 120 163 152 128 119 134 123 141 141 127 144 125 142 139 149 138
246 258 254 253 237 207 246 218 223 205 159 144 143 146 154 154 144 154 136 131 151 170 167 166 148 148 152 161 139 160 127 168 165 150 159 125 144 135 127 126 135 151 121 137
241 251 255 252 251 211 200 243 218 219 211 183 164 150 148 152 154 142 158 138 134 146 153 174 171 170 138 151 160 163 165 172 174 168 128 132 149 126 135 150 135 118 142 131
243 240 254 247 251 250 242 198 216 216 218 221 149 183 166 161 149 142 155 144 156 132 138 142 146 155 171 175 154 150 154 163 153 170 159 172 178 159 167 144 124 125 116 129
244 242 240 251 247 247 247 249 242 194 209 216 222 223 182 178 178 153 150 160 151 139 153 127 139 143 145 125 173 158 145 171 166 153 156 155 156 169 172 120 134 143 147 153
236 244 239 243 257 256 245 242 242 240 181 201 207 213 216 220 194 179 164 152 111 158 159 154 162 127 129 136 135 143 149 149 148 146 161 166 97 161 132 158 136 157 136 178
248 238 241 246 245 252 262 255 242 236 238 240 236 225 208 209 217 212 199 187 162 133 145 157 153 145 140 153 124 126 136 149 150 147 152 147 159 142 151 155 165 157 150 165
310 321 245 239 243 243 248 253 259 241 233 236 237 238 241 229 213 212 217 212 195 139 178 158 157 161 89 122 151 136 137 146 141 134 147 152 150 152 148 154 152 154 130 160
304 308 308 311 304 246 235 235 240 254 255 257 230 221 230 241 241 230 215 210 213 214 210 202 172 186 189 182 165 143 98 162 153 108 139 142 147 151 154 149 153 155 158 145
276 279 289 295 304 315 319 289 246 234 238 244 249 254 258 224 234 241 239 231 215 209 212 209 214 216 169 180 194 194 188 181 160 169 155 127 143 125 139 134 144 134 155 158
244 255 264 271 277 284 292 301 312 318 269 244 238 246 254 251 254 248 234 193 248 240 225 211 209 212 215 222 212 167 171 183 188 189 182 183 174 169 144 145 150 140 131 126

GFSCGP_2pvu_pres_096.txt.gz
Presure
149 148 142 144 138 139 132 132 127 126 138 126 125 137 150 125 133 157 133 139 140 145 134 135 139 133 131 130 117 129 132 139 150 152 127 162 157 188 168 163 141 169 158 158
139 144 150 144 143 138 136 126 133 129 120 141 127 143 134 145 136 132 122 146 148 139 139 130 134 135 132 132 137 115 132 119 138 147 148 157 159 158 140 162 133 158 167 170
130 157 137 151 147 142 137 131 131 131 124 128 124 121 117 137 130 131 131 124 133 158 133 126 135 132 139 136 137 138 137 132 117 135 146 148 150 150 151 150 152 153 192 152
131 127 157 137 154 148 143 136 126 138 133 119 126 123 124 129 141 127 127 132 133 127 141 155 154 125 139 145 137 141 135 116 135 131 124 121 142 143 142 144 154 153 137 175
126 137 128 147 153 157 143 135 138 125 125 140 107 129 118 125 129 127 130 124 129 132 140 140 129 130 125 133 141 138 135 141 132 134 133 133 132 131 135 138 132 136 153 150
133 152 131 135 151 155 151 147 144 141 136 132 139 125 127 114 116 131 125 129 122 124 129 137 123 142 122 158 135 128 139 134 135 129 132 131 130 123 139 117 140 137 157 137
150 135 150 136 129 152 143 146 142 142 137 138 129 138 117 137 125 123 124 132 121 122 128 139 124 140 132 149 150 137 140 139 137 135 128 127 131 135 131 130 132 132 136 166
214 149 135 156 144 146 130 149 140 141 141 137 129 142 132 122 116 122 126 127 128 131 132 133 128 132 140 122 140 161 132 129 157 142 138 137 126 135 130 141 127 134 127 143
211 182 152 142 162 136 133 141 101 132 143 148 145 137 104 100 138 119 124 133 119 135 132 131 132 127 135 131 132 149 159 131 127 128 142 150 148 122 132 131 127 118 114 162
221 185 181 151 145 151 153 155 132 149 149 147 148 145 103 152 149 133 129 123 126 129 127 119 125 132 126 129 131 148 141 125 119 137 137 140 142 132 129 133 130 116 126 140
308 207 216 171 146 150 159 130 152 135 143 147 152 145 149 147 128 147 134 134 125 124 118 126 131 135 120 121 135 147 138 129 126 129 138 145 145 143 127 131 130 138 124 143
262 276 204 217 151 153 140 130 130 140 132 135 136 152 153 140 148 158 155 148 127 131 129 129 129 133 139 125 128 135 141 128 127 132 130 135 120 147 124 121 121 133 116 145
258 297 270 205 223 150 157 135 144 129 130 147 130 155 150 157 144 148 152 158 157 151 149 127 132 126 136 123 125 129 122 125 130 116 135 123 151 132 143 127 130 134 119 150
260 258 280 250 205 200 151 151 141 143 134 136 136 131 147 141 148 152 149 148 156 157 153 153 133 127 131 126 121 133 128 138 133 123 118 116 131 143 127 133 139 134 124 142
259 255 287 262 251 206 211 157 151 150 146 88 142 139 155 132 114 152 154 152 143 146 153 153 154 152 136 132 132 125 127 131 136 105 124 125 136 121 132 135 143 134 117 138
255 254 260 279 257 243 214 222 164 151 140 143 148 142 164 141 130 94 155 143 148 148 148 149 152 152 150 150 157 161 131 121 109 133 128 141 109 135 120 127 142 135 139 119
249 253 254 220 168 203 224 216 223 169 150 144 151 146 145 143 169 138 134 137 142 157 165 159 142 144 148 163 161 162 155 143 134 131 117 122 150 123 142 147 126 139 108 144
247 254 245 257 268 256 248 209 216 221 174 156 149 147 147 149 145 159 140 141 134 134 158 168 168 160 145 144 150 146 150 154 160 123 117 123 138 167 161 150 159 148 142 138
251 251 243 248 265 255 255 246 207 214 222 184 162 152 150 142 148 151 144 139 135 133 122 145 146 144 148 161 160 156 163 156 148 150 153 155 117 154 159 166 168 166 157 158
253 246 242 240 253 263 254 251 248 208 216 223 220 176 160 155 144 144 152 154 154 164 137 157 134 147 143 146 148 146 160 165 171 169 166 158 161 158 161 136 119 156 168 164
307 245 241 237 240 260 255 248 248 247 231 200 223 222 196 170 162 158 155 154 154 148 154 158 149 147 136 146 146 149 150 144 152 154 167 165 169 163 156 160 166 177 153 165
318 271 242 242 240 239 252 260 249 249 248 239 198 219 222 220 162 172 160 160 154 158 145 118 150 108 144 143 132 131 151 148 144 131 151 152 147 166 178 160 174 153 155 143
323 326 261 244 245 242 241 243 265 255 249 250 248 236 206 219 218 219 211 189 181 171 163 170 167 163 145 142 133 142 149 128 119 134 163 152 154 153 157 161 186 155 158 162
302 305 322 262 239 238 242 244 242 253 257 249 248 248 243 207 219 223 211 214 214 213 198 189 168 95 165 160 145 148 159 138 139 150 131 132 118 142 152 153 153 151 159 147
277 288 302 312 307 248 239 235 241 245 240 250 255 249 247 247 250 218 191 214 212 212 214 214 209 199 193 156 190 192 159 147 165 160 160 148 139 148 135 129 150 153 157 153
251 260 266 275 285 298 312 297 243 240 245 250 243 243 251 258 250 245 246 246 239 225 205 206 206 210 211 212 214 213 211 201 188 171 154 157 157 153 164 157 114 149 155 146

GFSCGP_2pvu_pres_102.txt.gz
Presure
157 144 137 127 132 132 144 145 162 155 129 132 131 142 127 132 121 136 131 141 122 133 129 136 134 138 130 122 115 122 140 144 146 149 140 140 147 153 141 146 223 164 170 164
145 152 140 135 137 128 121 135 141 153 131 133 130 141 143 123 133 126 136 132 143 135 132 137 136 137 140 134 133 124 133 134 124 142 171 161 151 145 147 145 146 148 176 170
143 143 155 140 130 136 135 127 123 177 153 147 139 130 142 134 156 133 137 136 133 139 136 129 137 134 125 146 137 136 143 130 135 128 139 136 158 142 156 166 132 142 163 168
125 137 151 151 135 126 135 130 126 143 140 144 135 155 143 162 154 125 142 127 137 146 138 131 125 130 132 130 142 136 135 137 133 138 136 128 141 137 141 166 131 152 139 171
144 126 125 149 145 138 120 112 135 152 154 137 142 151 172 174 161 165 173 146 148 144 145 131 130 133 124 143 148 140 139 134 133 136 139 136 134 134 142 146 158 137 128 143
139 124 128 128 151 145 134 120 135 140 166 155 144 156 163 183 130 144 124 152 150 159 146 136 158 137 126 126 132 135 139 139 132 132 131 130 142 131 133 152 143 141 134 140
147 134 116 122 134 146 140 125 121 132 137 125 157 144 152 124 130 141 136 133 125 128 133 136 141 140 153 126 125 129 128 141 141 134 131 131 128 120 149 138 128 141 120 135
257 141 132 125 128 126 128 133 133 145 132 139 126 163 133 129 129 131 128 128 126 126 128 129 132 132 140 139 131 140 140 150 126 148 152 147 132 126 124 151 128 124 145 128
249 185 144 138 127 130 119 139 140 147 143 145 164 118 126 138 123 126 121 124 148 129 130 126 123 128 131 120 133 145 134 143 161 138 139 127 127 130 140 118 143 143 132 123
239 245 148 153 136 108 142 126 130 148 147 152 145 131 133 132 135 118 123 116 130 121 125 130 127 123 126 145 123 149 127 142 141 142 127 127 134 138 137 139 125 131 134 122
229 238 244 146 142 133 128 125 139 149 137 150 148 137 134 138 132 138 126 108 120 127 113 122 130 124 125 119 125 111 130 118 137 147 126 129 127 128 121 125 138 123 121 133
233 232 237 207 149 147 140 128 126 126 131 133 146 150 141 136 133 140 134 136 133 129 119 121 116 133 126 123 131 135 135 112 120 143 128 119 124 125 138 124 119 139 118 132
227 227 232 225 209 156 136 141 136 131 119 128 145 158 146 93 133 154 145 129 129 132 123 120 120 121 124 152 136 132 125 133 127 127 143 130 117 129 119 143 127 119 128 122
223 226 223 230 235 213 152 149 141 141 129 140 128 139 137 138 139 150 149 131 124 141 135 124 131 125 133 135 129 131 120 128 133 131 136 127 126 137 135 133 122 137 122 127
247 221 221 238 232 231 203 159 153 146 137 138 133 124 131 155 158 147 153 145 151 130 135 119 133 125 131 126 120 134 130 116 136 118 131 131 125 126 135 131 124 115 133 139
246 237 214 229 234 230 225 176 169 152 148 154 156 134 126 122 131 136 136 136 112 143 149 136 118 125 118 133 129 131 123 131 111 132 125 111 132 119 127 136 136 123 136 133
247 250 220 219 222 228 227 254 214 171 159 149 148 137 149 96 127 125 119 156 111 155 160 156 129 124 125 121 129 126 127 124 122 121 116 138 129 121 117 124 135 118 129 127
248 238 245 240 250 240 246 228 264 198 171 171 167 162 139 133 138 134 120 152 143 168 135 134 142 142 134 137 135 134 128 120 129 127 130 141 132 125 135 127 129 144 131 130
236 237 237 232 233 244 258 244 236 258 209 232 173 162 137 146 157 145 146 151 146 182 114 160 138 152 171 136 166 163 134 138 135 136 141 135 140 132 131 129 135 135 142 123
249 233 232 232 225 232 239 249 246 259 95 205 257 207 164 156 141 155 142 168 132 131 138 146 166 141 152 157 168 134 150 141 148 144 151 145 163 153 155 138 140 140 149 110
296 234 231 219 222 229 229 238 261 271 264 233 209 221 180 172 152 150 143 149 139 163 163 159 135 143 175 148 142 163 161 141 151 152 157 146 155 154 162 168 155 157 164 154
295 276 232 235 230 217 231 236 228 250 258 251 233 233 208 192 178 169 160 152 150 149 161 151 141 148 150 127 135 138 147 149 153 163 157 162 151 163 159 169 177 172 173 169
288 286 256 239 231 249 253 243 234 252 254 253 249 266 259 211 216 187 168 163 163 147 158 150 145 153 153 148 137 133 131 130 133 135 148 149 151 154 145 142 165 164 158 143
288 285 286 258 235 231 225 238 256 239 233 249 277 254 269 269 219 213 215 183 170 169 163 161 159 154 160 160 161 158 146 126 125 128 134 141 147 139 148 152 138 136 151 153
326 343 302 287 292 269 237 238 225 238 245 252 251 260 249 264 285 263 209 210 211 195 177 174 169 164 163 162 165 165 157 157 150 141 153 154 135 137 138 139 145 150 156 153
259 271 301 314 317 315 321 325 304 248 246 246 246 246 253 256 247 265 289 253 208 202 205 214 211 183 177 171 169 166 153 159 171 160 158 161 163 159 152 150 152 150 142 150

GFSCGP_2pvu_pres_105.txt.gz
Presure
161 149 134 128 139 124 139 126 137 122 145 134 130 135 124 149 145 133 131 132 137 128 138 138 139 136 140 130 133 120 141 149 168 141 164 148 171 150 177 154 222 115 199 184
132 154 143 138 131 122 139 140 123 124 131 121 145 133 156 142 143 136 130 139 139 134 134 141 141 133 136 133 132 140 136 143 133 146 138 159 152 132 151 159 151 165 197 156
125 168 157 146 136 125 127 140 143 128 128 112 137 143 132 141 131 134 135 132 135 141 134 138 139 131 127 141 134 127 135 123 135 131 133 133 148 158 140 138 143 150 171 141
131 131 144 150 140 134 129 133 143 148 126 127 131 132 141 141 146 138 127 133 132 134 143 129 135 133 138 132 135 139 142 135 136 140 136 127 141 150 136 141 150 140 151 168
146 130 128 157 146 136 137 133 152 158 129 135 142 170 157 130 144 132 136 139 137 132 130 138 128 132 127 145 145 140 139 137 132 127 132 135 144 134 139 154 141 147 144 150
238 139 133 145 157 142 138 132 127 111 125 135 150 140 157 158 145 137 126 127 139 126 144 139 131 133 124 123 134 133 133 147 139 133 130 128 127 142 135 148 151 133 149 137
244 187 125 132 156 150 143 138 137 128 134 171 140 138 173 173 152 151 141 132 154 141 140 140 132 127 152 128 121 129 131 127 132 139 150 136 128 128 140 132 104 133 129 137
244 239 146 126 128 132 149 143 130 117 125 139 136 142 168 175 143 149 142 161 171 152 146 169 163 146 144 154 132 130 120 134 159 142 133 122 137 134 135 135 124 141 130 164
239 241 143 142 121 163 150 148 142 126 132 137 116 123 170 139 154 177 171 133 142 154 151 144 131 127 138 135 141 136 143 143 154 137 127 133 131 137 141 144 137 140 155 105
235 241 222 147 139 125 163 143 147 139 139 129 132 136 122 164 130 182 155 155 147 147 130 120 136 125 125 158 129 130 138 124 144 138 131 128 121 124 125 129 130 134 123 126
227 237 245 152 143 139 140 117 147 148 144 132 141 115 164 147 156 140 131 125 125 117 114 132 123 129 122 129 124 120 125 150 137 141 142 126 119 121 128 127 123 132 144 123
230 233 241 236 145 146 136 129 108 151 145 144 157 164 130 125 123 132 136 115 120 123 120 123 109 123 119 122 121 133 117 119 132 123 132 136 113 119 125 118 140 123 126 133
234 225 230 233 209 140 142 157 127 143 121 129 156 145 161 162 157 123 103 131 127 119 119 110 111 120 128 109 133 149 142 120 131 127 123 137 135 131 117 118 122 130 134 118
234 222 229 227 240 196 143 152 136 133 153 144 128 134 151 146 137 135 130 122 130 127 127 117 121 115 135 118 118 195 123 128 127 126 136 127 118 135 137 123 121 130 124 122
233 225 221 228 236 230 186 143 149 143 134 139 139 136 149 133 131 160 147 137 140 129 117 121 128 128 135 133 138 129 132 126 139 131 120 132 134 121 126 127 132 132 138 134
250 233 220 224 230 235 86 178 143 146 148 166 156 143 130 126 125 120 129 151 144 141 133 140 124 120 121 127 132 131 144 126 141 136 125 117 131 126 116 124 131 122 132 141
251 251 242 221 220 231 225 220 169 149 141 156 171 150 142 135 125 118 132 118 140 144 142 134 120 123 131 140 137 138 134 145 129 132 122 131 138 138 126 117 123 130 118 120
239 250 247 256 214 222 234 240 209 171 150 156 148 142 152 154 140 130 126 129 136 138 149 166 142 130 120 125 130 133 124 137 128 129 137 135 134 118 123 130 124 128 137 116
260 243 249 236 252 217 221 228 231 208 173 157 156 154 153 145 140 136 128 127 133 132 143 152 144 147 170 142 133 131 118 137 132 129 137 137 143 144 133 126 133 134 134 125
275 241 245 252 248 234 104 221 229 228 224 117 169 160 151 144 148 88 102 157 137 124 138 138 159 130 192 163 131 145 141 141 146 154 131 133 136 140 134 148 149 138 144 134
325 282 252 238 250 244 232 224 218 222 225 224 166 175 158 102 133 117 146 152 147 146 159 107 121 158 131 146 150 173 139 151 149 142 150 151 135 142 144 140 145 150 147 142
293 298 258 234 240 237 239 227 208 219 230 225 225 221 237 169 164 162 165 142 148 157 142 125 149 136 165 122 160 167 176 147 137 176 136 147 139 133 144 162 137 136 138 142
287 282 276 229 221 229 233 236 237 221 218 219 230 244 210 199 177 193 174 207 169 149 148 169 162 157 171 158 149 134 133 152 203 142 160 153 135 139 139 150 160 147 143 144
244 284 289 240 222 231 239 241 237 245 241 234 240 230 229 218 221 204 196 212 169 180 173 169 166 156 151 126 133 130 150 121 177 127 140 163 144 145 159 154 155 162 153 138
325 321 278 270 232 229 226 235 236 241 239 238 247 247 269 243 228 223 211 224 217 184 181 181 170 166 162 155 147 104 144 173 144 131 131 137 130 155 149 138 148 134 134 145
262 290 354 297 269 233 232 231 233 232 232 239 244 248 256 249 250 256 244 250 239 233 213 221 223 192 181 175 170 169 168 171 171 166 99 153 136 155 133 137 159 164 163 128

GFSCGP_2pvu_pres_108.txt.gz
Presure
143 142 161 133 134 163 142 146 137 124 128 150 135 115 139 133 143 137 123 128 128 132 141 125 136 139 132 125 135 137 136 139 167 148 148 166 151 170 169 129 117 163 147 145
121 147 143 160 135 130 152 141 148 126 131 136 122 144 138 127 129 141 129 136 123 135 138 137 129 138 133 136 128 133 126 130 126 134 144 154 144 164 160 159 133 125 127 149
136 151 160 159 139 137 138 120 144 151 132 138 138 125 157 145 143 143 131 128 140 137 134 138 139 134 141 131 144 134 144 128 139 132 142 143 146 149 159 154 151 154 130 114
312 139 124 150 164 139 134 125 147 150 133 116 116 133 119 132 142 152 134 137 130 136 143 130 137 140 134 129 137 131 132 132 128 135 142 153 132 131 156 154 148 154 150 168
325 212 151 129 151 142 138 167 125 143 154 143 132 152 149 152 149 152 143 136 139 134 138 147 126 132 133 141 140 135 134 129 131 129 127 130 127 156 131 133 148 150 141 152
297 268 137 114 144 151 160 139 157 130 149 149 134 133 140 136 167 169 139 136 136 138 135 139 141 131 133 137 140 130 136 137 143 128 132 131 127 123 145 135 147 143 148 147
270 247 212 144 135 153 147 137 136 130 144 142 142 119 143 143 126 146 124 143 136 138 143 131 141 138 134 127 124 125 128 128 131 149 128 133 140 136 126 132 139 146 143 144
259 238 238 125 140 160 144 143 141 137 135 118 138 142 138 146 129 145 150 140 135 125 139 132 145 139 125 134 130 126 127 122 136 146 138 134 142 142 138 132 130 131 152 150
252 232 247 163 141 140 159 151 112 135 136 138 129 138 134 140 136 149 147 178 131 133 134 140 146 140 132 157 155 133 126 140 142 127 129 132 133 128 135 132 133 126 124 126
258 236 248 259 147 107 138 161 153 134 125 136 119 138 134 163 137 132 165 144 146 126 138 156 148 142 126 142 137 138 129 134 154 125 136 127 132 125 132 133 125 131 134 131
258 239 250 261 183 144 125 137 153 144 140 145 138 134 119 141 158 164 143 180 160 149 150 158 151 154 125 136 142 128 131 125 136 136 130 135 130 131 121 134 127 139 123 134
253 243 250 233 221 180 145 131 132 155 149 141 142 153 148 96 156 162 158 149 185 149 134 156 132 128 125 131 134 144 133 148 119 135 125 145 135 134 123 126 120 119 129 145
251 239 240 243 239 206 145 131 158 154 107 118 144 148 141 104 121 114 123 171 183 135 118 171 124 116 116 134 121 125 138 129 118 122 139 124 125 120 143 131 125 119 129 118
272 238 242 237 242 213 176 143 147 146 96 116 156 141 164 162 130 134 154 155 178 131 126 115 118 119 120 120 109 126 131 130 134 125 120 131 126 129 127 119 137 133 138 124
266 247 242 240 241 229 190 172 146 123 157 139 122 139 106 133 157 143 147 135 121 109 118 125 126 126 122 140 121 124 126 130 117 136 159 126 131 128 132 134 126 129 121 125
266 273 245 235 234 234 217 179 150 147 142 142 137 138 110 132 119 120 98 120 140 129 123 125 130 126 129 112 127 131 130 128 139 140 128 129 144 149 139 120 132 134 126 123
256 269 275 237 231 219 238 212 172 156 148 152 149 145 136 143 112 123 122 132 143 148 145 138 127 125 126 126 128 128 164 126 133 124 133 132 126 130 127 126 125 125 133 125
246 256 266 244 238 233 237 227 196 166 152 146 148 149 146 149 130 138 113 120 145 135 137 139 144 129 126 126 121 129 130 160 130 161 133 142 144 138 145 127 125 138 125 136
261 247 259 243 241 242 232 244 107 190 99 85 165 141 145 153 157 145 140 153 123 119 125 119 141 144 142 138 111 148 127 133 124 126 123 132 166 136 139 136 135 135 113 127
241 258 242 249 238 239 232 233 247 220 182 170 160 152 149 145 154 147 154 141 136 135 111 130 126 119 153 125 148 144 131 145 140 137 134 136 121 138 134 141 132 145 135 141
282 252 250 236 244 247 234 226 233 219 229 193 170 166 156 153 150 162 142 145 145 139 140 142 108 133 122 142 153 133 149 146 140 140 141 137 138 141 141 136 139 135 147 139
288 340 322 250 236 248 231 230 221 229 240 249 208 175 166 158 162 160 148 155 158 148 154 138 157 129 141 133 116 110 153 147 158 132 141 132 135 133 155 151 129 144 144 148
304 282 260 296 372 240 235 253 227 218 229 237 245 211 178 167 83 96 152 155 158 165 170 154 146 151 128 147 164 119 123 169 142 145 154 158 177 161 150 169 128 129 152 143
276 288 259 268 330 276 246 229 236 237 244 221 232 235 245 124 157 155 89 167 164 163 167 162 163 161 136 165 176 166 154 147 129 129 147 165 141 140 148 141 145 154 144 171
278 282 264 263 295 299 242 241 234 237 241 243 248 224 226 235 213 178 173 170 170 169 170 171 165 165 165 173 161 151 160 170 176 105 171 161 124 140 127 165 152 201 177 149
256 273 335 296 285 288 252 247 245 243 246 247 244 245 225 228 231 234 213 185 180 175 170 162 177 165 161 177 168 180 176 163 178 194 183 166 166 160 151 164 194 128 157 150

GFSCGP_2pvu_pres_111.txt.gz
Presure
121 143 158 161 149 132 136 130 139 137 133 159 143 159 139 142 137 144 140 146 141 120 132 129 132 134 127 135 128 129 126 142 135 170 163 158 158 176 161 115 107 183 178 172
153 144 127 145 156 139 149 138 137 147 137 135 140 152 158 140 121 150 141 147 130 131 133 130 127 131 136 127 131 131 124 132 134 126 156 149 141 170 143 140 140 139 174 199
198 176 137 122 149 137 141 148 141 139 142 138 133 163 163 146 139 136 128 133 134 139 143 133 132 136 138 135 144 137 139 142 144 149 129 151 126 149 159 158 142 142 142 160
83 212 140 155 141 143 141 156 149 139 147 138 141 131 140 125 139 114 140 141 131 141 140 134 133 131 137 132 137 133 134 131 133 133 137 126 140 131 120 146 156 152 141 143
236 204 146 189 138 142 176 154 155 144 143 132 147 135 147 152 156 155 129 151 140 133 143 148 135 135 131 138 132 136 133 134 135 128 128 123 153 145 154 140 137 145 142 141
290 165 324 240 163 132 162 145 115 152 131 112 148 119 114 119 134 142 157 146 136 141 137 143 134 130 116 141 141 136 143 145 137 134 133 135 129 144 150 144 144 141 145 143
277 294 268 272 153 164 132 167 145 127 153 139 144 141 151 141 114 128 136 137 148 139 143 141 140 139 128 133 141 128 130 135 153 141 131 129 133 133 128 133 136 140 153 148
289 341 321 336 217 208 146 165 161 110 138 140 138 136 147 152 146 148 129 157 163 127 138 136 143 142 130 133 124 125 126 127 151 139 137 140 137 131 133 127 127 124 123 131
319 321 318 321 307 194 168 139 152 145 137 111 149 141 113 141 137 146 149 164 153 159 123 134 139 140 148 131 131 128 133 130 122 131 143 134 133 126 127 126 139 115 128 126
287 303 306 311 301 240 146 131 155 166 139 160 120 145 141 135 135 137 148 147 132 151 145 126 132 140 135 144 133 159 141 133 155 147 126 144 139 129 128 126 128 126 137 130
279 279 309 305 82 192 239 146 153 167 146 161 151 132 148 143 152 155 126 128 138 148 140 134 133 131 129 145 146 133 149 140 134 151 146 141 135 134 134 129 126 139 132 125
271 276 312 297 95 224 240 146 172 133 149 168 153 105 162 117 125 127 136 155 154 138 130 150 172 126 133 145 144 123 150 145 127 138 122 139 135 149 141 138 117 123 128 121
265 274 290 298 267 221 242 148 142 144 145 109 149 144 129 143 150 152 135 153 146 136 153 139 123 135 130 147 158 127 140 128 152 140 122 133 147 131 139 118 144 137 132 126
247 279 274 294 247 226 241 242 144 107 118 136 146 158 156 141 122 159 161 155 144 139 139 140 148 134 143 140 152 113 133 129 122 119 122 122 126 126 132 137 132 121 119 139
252 266 283 276 244 225 249 229 180 144 155 132 149 125 117 150 141 125 138 152 141 142 145 146 167 160 141 156 146 125 124 114 120 130 126 126 136 135 122 134 135 135 135 131
271 255 279 280 248 226 238 236 201 144 136 96 108 140 134 141 132 150 108 125 110 148 104 158 186 143 147 126 128 125 126 127 124 140 121 133 115 121 158 119 142 138 132 128
271 250 274 286 262 230 226 251 217 165 148 160 127 144 124 144 162 155 113 127 142 118 158 168 177 177 174 134 123 124 132 119 134 135 132 163 153 148 135 123 125 127 127 125
259 256 259 268 280 239 237 244 219 192 161 148 148 156 122 127 106 160 131 158 141 125 133 157 129 131 123 123 124 125 126 125 143 134 144 142 196 154 151 123 124 135 137 140
251 260 245 266 269 265 251 237 246 213 182 157 144 144 138 144 140 162 114 115 168 141 141 134 123 127 126 131 162 159 125 131 148 116 132 151 173 194 131 157 162 133 143 144
266 253 250 246 278 265 244 242 240 230 96 175 161 108 146 164 130 120 150 162 143 119 158 125 129 105 134 137 129 130 132 132 125 126 139 133 113 135 133 141 145 146 143 137
305 241 255 242 246 267 259 257 235 240 216 172 171 159 156 158 151 145 160 142 131 137 123 140 133 118 120 110 133 144 109 129 133 133 137 133 135 157 129 145 141 143 140 143
281 272 240 255 242 247 257 262 242 142 189 210 188 169 111 106 160 158 151 154 165 121 136 133 122 119 114 108 127 117 147 115 145 135 124 128 124 125 152 132 125 131 148 149
285 292 303 249 248 245 242 259 250 237 232 238 209 189 176 166 167 163 148 145 151 153 162 147 155 107 138 129 137 146 126 130 119 126 131 125 124 123 153 127 128 151 156 149
287 285 288 295 297 251 252 245 258 252 235 232 237 213 193 98 172 177 146 105 155 162 159 159 165 149 154 156 158 159 158 166 159 139 144 143 132 139 139 126 141 155 140 126
269 288 285 265 279 296 280 255 244 250 245 248 234 234 239 211 178 128 170 170 141 124 172 183 172 163 168 153 132 157 127 144 162 151 159 146 131 143 158 165 139 127 122 123
236 264 276 303 270 264 312 309 254 241 245 249 241 252 255 234 215 202 176 173 172 175 168 162 164 168 171 166 164 166 168 164 160 161 158 158 130 157 143 155 148 149 157 134

GFSCGP_2pvu_pres_114.txt.gz
Presure
149 167 152 163 165 138 155 144 137 137 145 142 127 172 147 145 143 151 143 134 139 135 128 130 132 129 130 115 128 119 138 133 149 171 169 160 168 169 122 216 195 183 186 211
181 139 132 147 139 156 155 152 139 140 141 146 151 150 128 158 151 149 158 145 140 121 132 129 131 129 134 137 142 151 145 132 160 132 126 135 145 159 156 205 160 163 174 143
180 190 140 134 150 159 155 153 135 150 141 145 133 170 115 129 145 146 165 153 134 130 126 131 128 132 130 138 136 134 147 141 127 139 142 140 138 162 136 161 211 164 163 163
178 229 206 132 137 141 154 163 150 108 134 141 97 161 154 119 172 145 155 158 114 145 145 130 132 137 131 130 133 137 133 125 143 135 148 151 146 141 149 146 162 162 156 167
208 268 219 227 143 155 161 146 155 144 151 142 125 143 156 154 121 151 156 147 138 124 139 132 137 128 138 130 129 134 138 131 131 132 131 156 140 151 137 148 143 159 156 165
188 180 329 190 229 134 124 161 160 132 140 150 147 151 134 132 147 130 133 142 145 154 134 142 118 137 137 140 133 134 139 148 136 138 140 150 156 147 151 151 146 141 139 139
324 313 190 211 196 186 128 145 160 152 129 143 142 143 144 144 139 147 129 154 143 148 130 134 144 132 122 128 142 130 130 128 135 136 142 132 133 129 121 134 139 154 159 143
283 304 298 199 211 197 252 163 134 144 154 152 143 121 119 121 120 124 130 133 140 144 154 141 132 154 134 126 131 141 124 127 126 145 139 147 140 134 130 128 125 131 127 134
253 293 273 274 211 225 216 174 142 126 148 108 157 148 109 146 141 136 134 136 136 139 139 138 130 130 142 132 132 128 132 129 150 119 138 136 139 134 134 137 122 131 116 126
241 292 279 306 226 191 226 197 160 136 128 136 138 157 108 126 152 149 150 145 137 135 155 156 141 127 138 119 136 136 125 131 137 127 150 121 142 133 132 136 129 134 132 127
234 275 272 294 304 300 200 217 213 167 138 146 119 131 109 135 145 126 158 149 155 128 132 149 145 123 130 117 130 135 138 132 148 143 154 146 135 138 127 132 133 129 140 137
226 243 278 271 295 315 221 210 228 177 163 163 135 158 148 115 133 113 128 143 153 158 158 132 176 140 125 126 140 129 133 147 123 151 141 133 131 142 139 141 138 119 120 120
219 235 282 263 289 302 306 74 207 234 126 144 124 125 102 130 133 151 118 150 128 142 162 138 133 132 153 136 122 127 124 134 146 160 138 135 131 144 128 128 124 129 143 134
218 243 274 272 153 261 296 258 186 227 184 146 145 148 162 135 154 146 147 153 156 167 146 119 131 140 141 139 140 142 133 140 151 145 142 131 130 138 126 122 127 140 130 121
227 290 237 274 271 292 283 293 249 207 231 168 149 142 159 119 140 123 115 153 119 155 144 144 158 144 143 139 137 151 127 140 141 167 134 131 124 132 134 130 152 132 131 138
387 384 306 273 263 280 287 283 290 214 226 189 142 152 110 138 162 140 138 158 150 143 134 122 149 132 150 129 128 161 144 142 147 155 126 125 130 131 127 137 139 132 130 140
379 428 361 270 262 278 290 272 280 217 220 115 159 133 135 149 128 149 160 130 125 137 161 159 166 154 134 130 155 176 137 122 145 133 145 131 131 129 136 143 141 109 127 135
366 421 343 269 262 280 283 266 271 222 212 221 188 152 141 150 132 132 128 131 150 161 169 147 160 147 159 147 145 148 154 146 151 129 128 142 135 128 135 148 143 154 120 134
332 375 300 272 257 269 273 272 256 215 213 221 205 146 141 144 107 133 130 164 166 131 140 139 139 136 126 104 143 158 143 144 145 129 124 124 133 140 141 129 153 162 167 157
308 354 270 264 248 262 268 270 256 223 215 220 234 163 156 92 165 161 135 135 121 128 168 142 125 124 167 130 133 161 177 167 186 154 134 133 132 113 136 144 158 121 111 130
304 296 263 257 245 257 268 262 264 226 226 221 235 193 154 152 147 158 163 113 150 134 130 119 165 114 137 143 156 170 132 137 167 131 119 174 134 124 188 118 124 150 151 114
302 299 291 252 254 244 256 264 258 237 140 230 231 218 179 169 151 107 137 123 119 136 124 142 152 148 118 172 170 146 141 132 120 122 117 123 125 123 124 130 134 143 168 131
276 300 300 258 260 243 244 257 262 272 233 218 243 235 208 178 161 163 157 151 169 127 145 157 95 122 120 142 130 112 140 129 115 138 111 106 123 132 129 108 146 134 110 139
296 294 297 304 257 256 243 244 257 258 281 226 102 210 220 200 175 176 162 161 158 170 159 161 124 130 149 134 156 107 128 136 135 145 117 117 123 124 111 134 137 150 142 127
265 247 283 292 300 286 256 244 245 252 267 267 198 208 242 221 202 178 172 147 166 153 162 133 87 156 163 161 122 141 139 151 145 136 116 127 147 132 131 146 158 126 124 154
236 255 241 293 283 284 288 251 253 237 250 262 268 234 242 239 241 197 180 176 157 170 174 163 164 161 123 133 167 144 157 143 156 129 136 148 155 139 144 96 145 147 122 151

GFSCGP_2pvu_pres_117.txt.gz
Presure
208 215 131 152 134 141 153 147 146 137 138 146 153 144 126 179 158 138 154 131 139 139 135 136 133 128 144 143 151 131 138 130 125 162 160 175 154 152 159 206 131 152 147 211
183 198 184 129 133 156 129 145 156 149 142 141 109 137 142 126 150 161 149 146 142 142 123 133 135 137 139 138 140 142 138 153 146 147 154 186 160 172 153 167 161 165 219 243
164 186 191 171 157 142 154 138 148 148 153 144 136 142 141 149 156 130 148 148 141 137 138 127 137 139 141 132 132 148 127 144 149 146 149 147 170 172 158 161 157 169 162 149
159 160 175 183 194 173 147 156 151 154 144 134 147 149 108 140 161 144 165 132 139 139 135 135 130 137 139 139 134 127 141 130 127 142 150 152 145 140 146 190 123 116 139 149
167 216 177 173 186 191 168 133 153 140 158 152 153 132 95 140 134 141 148 148 147 113 137 126 131 132 139 135 136 139 129 148 149 153 146 141 146 148 141 142 148 140 164 131
202 202 164 222 174 200 186 146 148 162 139 164 114 110 144 142 150 110 150 137 143 152 145 139 128 136 132 135 138 138 141 144 130 126 150 159 152 148 150 148 135 146 143 140
175 212 195 238 257 280 185 212 192 136 139 164 157 142 161 133 157 110 134 165 141 131 135 144 135 119 126 131 140 127 128 129 143 135 123 136 126 144 152 164 146 145 140 137
221 222 217 233 268 133 305 108 218 157 141 162 156 116 158 156 150 156 135 147 126 118 155 140 142 148 133 133 122 140 133 124 127 125 141 125 140 137 125 120 127 129 133 141
202 209 221 230 285 299 294 209 264 209 162 140 138 130 145 123 124 141 150 136 136 147 150 149 132 131 149 136 135 127 129 124 124 119 139 142 137 128 131 134 131 131 137 138
200 211 223 226 263 296 282 245 222 283 187 89 139 162 117 145 162 153 132 142 149 140 158 134 137 147 134 147 128 133 135 129 129 131 125 135 125 136 116 133 134 129 123 125
213 217 231 221 234 288 290 248 229 210 183 131 152 120 155 135 164 120 149 145 131 145 139 143 142 134 136 133 131 126 142 138 136 133 141 132 140 132 134 126 128 117 131 135
220 210 228 218 241 263 287 304 207 218 208 171 162 128 120 153 140 118 148 169 122 138 122 137 146 154 165 148 142 130 128 135 137 140 138 161 170 145 139 131 144 132 121 117
224 215 228 223 236 249 291 310 197 201 311 181 103 162 149 146 148 142 138 126 155 141 147 137 149 137 167 139 135 122 144 129 133 134 139 141 153 128 142 137 127 121 130 139
213 225 229 225 229 272 294 292 297 183 240 192 154 162 162 127 106 151 134 120 153 135 162 147 131 122 158 146 145 137 124 143 130 132 134 133 135 122 111 142 120 124 124 135
213 227 222 185 243 305 287 285 305 202 195 242 182 167 163 163 150 154 156 132 134 141 142 127 145 156 152 149 140 140 143 120 126 133 164 140 127 149 140 129 126 125 132 138
229 225 215 252 387 300 279 299 296 206 225 233 190 176 165 164 155 128 114 158 165 150 137 161 137 133 140 147 137 139 135 136 142 178 147 129 140 112 157 124 123 121 130 130
226 224 245 316 381 323 274 286 277 285 196 206 233 182 175 165 110 157 165 144 158 160 151 140 150 163 162 125 132 134 128 136 140 133 142 125 160 150 139 150 145 122 139 128
224 228 373 369 403 288 255 267 263 274 285 183 222 192 178 169 166 160 143 156 152 162 160 131 118 125 149 150 132 162 143 130 149 136 138 152 158 142 131 147 128 156 133 129
231 289 358 330 341 269 255 267 266 271 278 212 194 227 183 172 165 125 155 150 136 126 122 159 131 135 167 129 127 139 148 139 145 151 138 166 163 122 168 148 124 151 145 139
235 332 361 334 317 267 255 266 264 267 271 279 211 198 213 179 101 114 158 123 108 128 134 156 160 152 170 133 140 143 150 160 144 116 143 157 159 144 166 136 160 119 141 134
232 318 328 332 271 255 253 262 259 258 257 271 263 198 198 198 104 168 169 116 150 156 160 166 152 131 135 160 162 160 141 161 153 111 156 126 146 122 125 124 141 148 125 148
222 285 309 308 260 250 246 255 265 257 254 259 269 191 202 203 204 175 175 139 136 154 151 135 111 134 145 170 162 165 149 140 133 135 155 132 123 141 138 135 180 112 149 178
222 240 305 309 266 256 244 254 249 247 256 260 267 254 193 193 156 205 163 109 140 156 109 127 133 106 135 117 137 151 140 134 115 117 135 151 139 119 159 162 118 134 151 124
221 234 258 318 309 261 245 244 250 251 249 250 262 243 232 100 200 211 222 107 170 118 141 150 125 150 118 135 128 137 161 129 155 155 131 141 123 147 136 146 159 141 121 119
218 223 272 264 303 320 260 241 241 248 262 261 256 258 244 226 206 143 216 204 181 165 168 148 161 163 116 116 152 160 123 143 133 150 128 114 155 161 156 147 126 135 114 169
219 216 235 260 255 293 312 284 243 237 247 257 263 256 240 218 234 210 214 220 218 183 181 172 111 156 147 158 165 121 125 132 161 171 109 124 154 112 139 114 137 125 129 138

GFSCGP_2pvu_pres_120.txt.gz
Presure
195 209 183 186 126 144 134 152 140 162 146 159 155 122 122 130 125 133 140 143 135 146 142 138 133 142 125 139 131 151 147 178 147 137 162 163 139 154 147 217 223 202 180 140
173 191 199 151 133 132 143 137 142 148 153 103 123 138 126 123 144 143 149 151 152 128 141 139 140 141 134 139 134 146 150 144 181 167 142 150 169 164 179 220 132 140 148 163
162 170 184 196 204 188 135 153 140 143 145 163 123 124 116 133 136 129 150 147 155 148 141 142 139 141 134 132 131 130 121 152 149 165 177 186 180 179 177 169 164 241 230 183
166 172 170 184 187 192 187 133 132 146 163 117 152 150 142 131 125 131 168 147 141 153 148 144 141 140 139 132 128 156 136 148 147 139 149 142 160 140 170 145 167 147 164 154
182 182 178 174 174 189 195 209 143 131 160 141 162 146 124 155 145 129 136 146 130 147 147 148 137 140 136 139 139 137 132 154 146 149 146 147 144 150 199 130 168 174 156 178
154 157 158 172 176 178 187 195 205 159 132 153 156 147 141 139 148 132 145 149 136 146 146 147 141 138 135 141 137 145 144 135 126 159 140 152 139 145 142 150 151 150 164 173
179 182 188 153 166 168 175 173 192 187 162 129 145 153 155 136 133 133 124 180 143 126 163 134 142 142 135 135 140 126 136 146 133 130 135 125 123 146 144 137 138 140 142 136
188 89 190 198 202 202 169 169 179 196 207 155 155 141 155 148 127 161 129 120 130 143 128 158 151 148 143 133 137 130 129 134 139 136 126 135 137 127 124 121 138 142 141 149
234 235 233 233 221 184 194 236 259 187 116 207 158 144 154 130 140 155 124 153 117 129 157 148 155 149 140 141 127 131 140 125 118 156 135 125 119 121 137 131 138 162 125 125
198 196 198 211 219 207 223 249 246 322 235 186 217 165 154 147 154 124 167 150 141 122 145 118 149 152 154 141 138 127 131 125 127 118 162 129 125 120 124 126 125 122 126 127
200 187 187 207 211 227 218 246 255 283 231 246 183 177 137 140 117 146 138 134 144 146 131 127 157 157 134 139 152 142 138 139 131 130 129 128 138 126 117 119 119 121 129 128
204 197 209 208 204 226 226 234 247 277 296 293 186 142 166 164 145 150 149 162 145 155 134 151 128 149 151 145 145 148 136 137 144 146 134 139 132 143 148 123 126 116 118 116
206 209 212 210 220 214 235 226 240 258 327 203 181 233 213 155 116 167 157 157 135 142 128 118 126 148 141 128 135 126 143 129 138 136 137 135 147 137 143 148 135 130 125 128
216 212 215 207 217 226 237 225 238 251 306 296 181 205 111 164 159 127 161 154 163 165 135 162 171 128 131 129 139 151 156 143 129 131 128 139 133 141 145 136 149 141 134 114
214 207 211 217 216 228 229 219 228 244 277 198 252 185 195 179 130 114 160 162 142 118 147 126 132 120 123 124 139 134 161 144 127 143 136 133 136 145 142 113 124 117 135 148
219 211 216 214 230 233 225 225 229 267 299 356 261 238 204 186 175 159 146 129 160 142 109 170 134 123 142 156 137 136 148 155 149 118 142 126 135 127 163 144 128 141 128 127
219 220 212 226 234 229 242 317 333 300 289 326 226 245 195 188 121 119 117 161 130 156 169 128 120 145 130 153 136 125 148 158 149 157 142 136 134 142 130 127 137 133 146 125
223 212 219 237 237 343 360 425 316 286 276 315 281 226 241 164 179 170 171 157 133 148 167 129 159 130 175 158 141 132 152 159 159 156 141 139 142 132 141 126 114 134 141 149
219 209 229 225 372 322 331 391 283 272 269 298 297 204 301 184 177 176 117 142 153 127 126 146 151 144 127 160 139 162 129 137 139 159 150 135 134 140 137 145 139 131 158 165
214 216 234 238 311 316 368 281 268 265 276 284 279 193 222 200 183 168 168 160 166 163 157 128 165 131 158 138 163 143 135 149 170 134 156 132 154 161 130 144 149 119 139 165
212 218 231 335 312 332 292 264 266 259 279 274 291 200 192 234 185 174 172 142 162 151 120 143 163 139 140 155 152 119 143 171 171 132 155 131 157 139 141 142 159 147 133 138
207 218 225 315 302 317 269 255 253 258 273 270 274 254 185 249 197 177 175 171 120 156 167 162 142 144 159 149 160 158 150 149 136 119 132 165 133 137 152 163 127 158 126 152
208 216 226 289 313 289 264 254 248 244 270 280 255 275 205 187 295 191 182 172 166 164 136 126 152 162 163 162 131 145 161 137 178 169 136 136 129 165 125 170 153 117 140 150
209 212 228 243 314 301 255 244 245 255 257 263 268 259 273 177 189 247 184 176 178 172 119 100 163 162 121 110 139 162 145 146 164 169 126 136 159 164 171 107 126 126 111 136
211 213 227 221 266 318 272 254 242 246 254 256 267 255 265 218 185 195 220 215 182 178 141 143 169 102 154 146 151 172 158 132 176 141 137 123 152 159 147 129 123 126 150 130
207 215 229 214 236 256 317 260 245 237 245 247 251 253 248 233 235 183 184 213 203 188 181 151 168 169 115 154 169 95 130 115 125 135 126 127 125 142 119 146 130 131 165 126

GFSCGP_2pvu_pres_123.txt.gz
Presure
198 202 212 216 135 132 150 141 147 143 152 144 144 126 133 127 129 122 108 139 150 159 132 146 145 139 150 147 150 170 146 131 155 158 179 203 235 213 214 202 193 174 209 197
174 196 195 205 219 138 136 154 135 145 145 146 144 165 136 122 128 129 134 144 148 150 143 136 146 150 135 138 144 133 157 181 184 197 166 181 142 254 204 205 161 192 161 148
183 167 174 197 201 194 158 135 142 146 134 146 149 152 125 139 148 124 131 133 146 151 139 154 138 135 142 135 147 144 155 170 166 179 168 172 190 136 137 201 209 204 175 142
177 185 167 172 180 201 199 168 152 132 148 135 148 150 154 158 108 124 117 133 160 123 121 160 143 148 139 149 139 150 141 160 143 140 172 152 133 174 168 241 182 202 215 160
185 178 190 171 173 195 195 204 204 139 137 148 148 146 158 126 119 117 134 131 111 167 140 144 150 146 128 141 136 158 148 142 149 155 164 169 176 166 158 168 143 149 167 146
193 205 208 205 168 164 174 192 202 206 156 139 151 140 159 128 127 147 131 122 135 149 165 128 142 138 140 145 149 136 144 157 146 138 140 163 177 167 168 166 151 159 148 157
150 156 159 164 182 195 181 186 183 200 212 172 151 152 156 119 133 146 149 152 135 130 143 151 132 132 146 142 143 151 133 132 123 124 130 146 142 144 163 170 165 158 152 154
160 163 160 159 154 155 160 167 183 175 194 209 176 164 146 153 133 152 159 150 134 149 173 142 128 149 141 145 132 142 140 136 138 133 131 145 133 120 151 134 143 154 129 155
167 164 197 201 203 200 209 173 164 164 177 188 203 185 152 139 128 164 115 139 126 136 158 156 151 139 159 151 150 133 138 129 131 132 129 140 124 128 137 142 141 133 140 135
187 185 182 203 226 217 215 251 211 206 206 135 183 121 180 168 133 138 155 137 127 160 136 146 145 144 141 152 115 144 127 130 135 147 125 123 127 124 125 129 119 123 124 127
171 179 188 194 196 202 207 213 224 229 224 234 176 181 142 163 156 149 154 132 150 134 136 149 142 127 132 140 151 126 138 125 126 120 152 128 123 124 125 119 121 133 136 135
209 201 196 206 215 201 195 194 219 219 243 234 278 270 169 201 179 131 152 148 139 155 134 120 132 142 132 142 150 149 135 146 130 131 127 125 130 132 122 127 125 124 122 117
188 188 188 210 207 211 219 216 215 208 243 233 247 249 290 180 219 176 159 142 150 127 166 138 128 123 127 152 147 136 154 142 138 133 129 135 143 140 149 128 127 118 124 119
192 191 197 208 219 220 198 212 216 213 225 257 242 194 185 242 209 143 157 149 167 134 147 160 129 124 125 131 134 160 147 142 140 138 144 143 136 148 143 146 146 128 123 122
189 194 203 201 228 220 213 206 216 216 267 256 237 237 323 265 160 174 178 157 149 155 134 133 141 156 143 130 130 124 136 139 128 145 142 136 136 131 137 152 146 135 150 130
193 199 216 220 217 226 218 216 210 210 224 241 231 244 256 154 258 130 114 180 122 127 154 120 151 156 147 134 127 135 141 135 135 128 148 149 131 141 130 135 133 149 135 133
200 205 221 215 230 234 219 213 223 229 237 239 223 249 142 327 222 112 190 142 162 175 169 154 155 141 128 127 126 143 134 132 132 131 159 146 125 145 141 139 136 126 160 117
196 197 210 213 230 222 215 243 243 238 241 244 263 264 265 236 241 188 142 184 135 121 140 144 139 158 178 136 137 156 125 128 121 138 135 143 148 144 123 142 136 128 135 147
189 198 210 220 227 220 245 376 320 317 335 390 285 257 307 334 203 159 178 178 175 149 166 155 170 136 167 159 167 146 129 132 135 153 135 127 144 145 162 139 141 139 138 127
192 195 211 227 222 234 231 253 263 262 481 443 325 260 304 311 315 284 182 189 159 129 163 180 170 169 139 132 169 154 166 136 130 150 156 129 145 151 158 146 144 142 126 140
191 198 227 226 221 241 311 367 297 257 305 319 292 284 278 327 299 253 203 189 123 129 165 155 139 157 122 121 165 131 147 139 130 148 169 138 155 158 141 151 158 132 139 137
195 202 230 218 219 241 296 337 349 279 245 224 269 284 304 287 282 190 253 200 178 169 145 125 130 168 132 161 158 145 128 132 123 156 160 158 160 153 141 158 175 147 131 133
202 208 225 217 218 236 330 331 282 268 265 245 275 277 287 273 295 202 222 182 159 178 171 157 166 163 163 158 153 167 120 170 166 138 147 150 137 140 132 164 141 134 161 152
199 218 222 218 219 231 336 339 268 265 254 259 287 259 257 273 265 248 209 245 185 139 155 175 138 160 160 128 156 125 135 145 129 132 151 158 129 143 152 132 167 139 146 161
200 223 220 211 218 229 258 342 268 250 248 249 264 239 268 282 242 235 216 211 238 187 172 165 175 163 166 153 167 170 165 141 166 128 115 123 177 152 147 154 165 141 158 124
200 226 218 211 221 234 214 278 277 254 245 250 253 266 267 270 259 218 242 200 221 243 183 180 176 173 126 167 135 134 135 173 177 144 153 187 170 168 131 160 131 108 143 188